[[{"header":{"parameterUnit":"m.s-1","parameterCategory":1,"la1":31.0,"la2":29.5877,"lo1":-88.7671,"lo2":-86.6584,"dy":0.0162,"dx":0.0185,"nx":115,"ny":88,"refTime":"2023-04-16T06:00:00:Z","depth":0,"parameterNumber":2,"parameterNumberName":"U-component_of_WINDS"},"data":[0.0,0.0,0.0,0.0,0.0,0.0,0.0,0.0,0.0,0.0,0.0,0.0,0.0,0.0,0.0,0.0,0.0,0.0,0.0,0.0,0.0,0.0,0.0,0.0,0.0,0.0,0.0,0.0,0.0,0.0,0.0,0.0,0.0,0.0,0.0,0.0,0.0,0.0,0.0,0.0,0.0,0.0,0.0,0.0,0.0,0.0,0.0,0.0,0.0,0.0,0.0,0.0,0.0,0.0,0.0,0.0,0.0,0.0,0.0,0.0,0.0,0.0,0.0,0.0,0.0,0.0,0.0,0.0,0.0,0.0,0.0,0.0,0.0,0.0,0.0,0.0,0.0,0.0,0.0,0.0,0.0,0.0,0.0,0.0,0.0,0.0,0.0,0.0,0.0,0.0,0.0,0.0,0.0,0.0,0.0,0.0,0.0,0.0,0.0,0.0,0.0,0.0,0.0,0.0,0.0,0.0,0.0,0.0,0.0,0.0,0.0,0.0,0.0,0.0,0.0,0.0,0.0,0.0,0.0,0.0,0.0,0.0,0.0,0.0,0.0,0.0,0.0,0.0,0.0,0.0,0.0,0.0,0.0,0.0,0.0,0.0,0.0,0.0,0.0,0.0,0.0,0.0,0.0,0.0,0.0,0.0,0.0,0.0,0.0,0.0,0.0,0.0,0.0,0.0,0.0,0.0,0.0,0.0,0.0,0.0,0.0,0.0,0.0,0.0,0.0,0.0,0.0,0.0,0.0,0.0,0.0,0.0,0.0,0.0,0.0,0.0,0.0,0.0,0.0,0.0,0.0,0.0,0.0,0.0,0.0,0.0,0.0,0.0,0.0,0.0,0.0,0.0,0.0,0.0,0.0,0.0,0.0,0.0,0.0,0.0,0.0,0.0,0.0,0.0,0.0,0.0,0.0,0.0,0.0,0.0,0.0,0.0,0.0,0.0,0.0,0.0,0.0,0.0,0.0,0.0,0.0,0.0,0.0,0.0,0.0,0.0,0.0,0.0,0.0,0.0,0.0,0.0,0.0,0.0,0.0,0.0,0.0,0.0,0.0,0.0,0.0,0.0,0.0,0.0,0.0,0.0,0.0,0.0,0.0,0.0,0.0,0.0,0.0,0.0,0.0,0.0,0.0,0.0,0.0,0.0,0.0,0.0,0.0,0.0,0.0,0.0,0.0,0.0,0.0,0.0,0.0,0.0,0.0,0.0,0.0,0.0,0.0,0.0,0.0,0.0,0.0,0.0,0.0,0.0,0.0,0.0,0.0,0.0,0.0,0.0,0.0,0.0,0.0,0.0,0.0,0.0,0.0,0.0,0.0,0.0,0.0,0.0,0.0,0.0,0.0,0.0,0.0,0.0,0.0,0.0,0.0,0.0,0.0,0.0,0.0,0.0,0.0,0.0,0.0,0.0,0.0,0.0,0.0,0.0,0.0,0.0,0.0,0.0,0.0,0.0,0.0,0.0,0.0,0.0,0.0,0.0,0.0,0.0,0.0,0.0,0.0,0.0,0.0,0.0,0.0,0.0,0.0,0.0,0.0,0.0,0.0,0.0,0.0,0.0,0.0,0.0,0.0,0.0,0.0,0.0,0.0,0.0,0.0,0.0,0.0,0.0,0.0,0.0,0.0,0.0,0.0,0.0,0.0,0.0,0.0,0.0,0.0,0.0,0.0,0.0,0.0,0.0,0.0,0.0,0.0,0.0,0.0,0.0,0.0,0.0,0.0,0.0,0.0,0.0,0.0,0.0,0.0,0.0,0.0,0.0,0.0,0.0,0.0,0.0,0.0,0.0,0.0,0.0,0.0,0.0,0.0,0.0,0.0,0.0,0.0,0.0,0.0,0.0,0.0,0.0,0.0,0.0,0.0,0.0,0.0,0.0,0.0,0.0,0.0,0.0,0.0,0.0,0.0,0.0,0.0,0.0,0.0,0.0,0.0,0.0,0.0,0.0,0.0,0.0,0.0,0.0,0.0,0.0,0.0,0.0,0.0,0.0,0.0,0.0,0.0,0.0,0.0,0.0,0.0,0.0,0.0,0.0,0.0,0.0,0.0,0.0,0.0,0.0,0.0,0.0,0.0,0.0,0.0,0.0,0.0,0.0,0.0,0.0,0.0,0.0,0.0,0.0,0.0,0.0,0.0,0.0,0.0,0.0,0.0,0.0,0.0,0.0,0.0,0.0,0.0,0.0,0.0,0.0,0.0,0.0,0.0,0.0,0.0,0.0,0.0,0.0,0.0,0.0,0.0,0.0,0.0,0.0,0.0,0.0,0.0,0.0,0.0,0.0,0.0,0.0,0.0,0.0,0.0,0.0,0.0,0.0,0.0,0.0,0.0,0.0,0.0,0.0,0.0,0.0,0.0,0.0,0.0,0.0,0.0,0.0,0.0,0.0,0.0,0.0,0.0,0.0,0.0,0.0,0.0,0.0,0.0,0.0,0.0,0.0,0.0,0.0,0.0,0.0,0.0,0.0,0.0,0.0,0.0,0.0,0.0,0.0,0.0,0.0,0.0,0.0,0.0,0.0,0.0,0.0,0.0,0.0,0.0,0.0,0.0,0.0,0.0,0.0,0.0,0.0,0.0,0.0,0.0,0.0,0.0,0.0,0.0,0.0,0.0,0.0,0.0,0.0,0.0,0.0,0.0,0.0,0.0,0.0,0.0,0.0,0.0,0.0,0.0,0.0,0.0,0.0,0.0,0.0,0.0,0.0,0.0,0.0,0.0,0.0,0.0,0.0,0.0,0.0,0.0,0.0,0.0,0.0,0.0,0.0,0.0,0.0,0.0,0.0,0.0,0.0,0.0,0.0,0.0,0.0,0.0,0.0,0.0,0.0,0.0,0.0,0.0,0.0,0.0,0.0,0.0,0.0,0.0,0.0,0.0,0.0,0.0,0.0,0.0,0.0,0.0,0.0,0.0,0.0,0.0,0.0,0.0,0.0,0.0,0.0,0.0,0.0,0.0,0.0,0.0,0.0,0.0,0.0,0.0,0.0,0.0,0.0,0.0,0.0,0.0,0.0,0.0,0.0,0.0,0.0,0.0,0.0,0.0,0.0,0.0,0.0,0.0,0.0,0.0,0.0,0.0,0.0,0.0,0.0,0.0,0.0,0.0,0.0,0.0,0.0,0.0,0.0,0.0,0.0,0.0,0.0,0.0,0.0,0.0,0.0,0.0,0.0,0.0,0.0,0.0,0.0,0.0,0.0,0.0,0.0,0.0,0.0,0.0,0.0,0.0,0.0,0.0,0.0,0.0,0.0,0.0,0.0,0.0,0.0,0.0,0.0,0.0,0.0,0.0,0.0,0.0,0.0,0.0,0.0,0.0,0.0,0.0,0.0,0.0,0.0,0.0,0.0,0.0,0.0,0.0,0.0,0.0,0.0,0.0,0.0,0.0,0.0,0.0,0.0,0.0,0.0,0.0,0.0,0.0,0.0,0.0,0.0,0.0,0.0,0.0,0.0,0.0,0.0,0.0,0.0,0.0,0.0,0.0,0.0,0.0,0.0,0.0,0.0,0.0,0.0,0.0,0.0,0.0,0.0,0.0,0.0,0.0,0.0,0.0,0.0,0.0,0.0,0.0,0.0,0.0,0.0,0.0,0.0,0.0,0.0,0.0,0.0,0.0,0.0,0.0,0.0,0.0,0.0,0.0,0.0,0.0,0.0,0.0,0.0,0.0,0.0,0.0,0.0,0.0,0.0,0.0,0.0,0.0,0.0,0.0,0.0,0.0,0.0,0.0,0.0,0.0,0.0,0.0,0.0,0.0,0.0,0.0,0.0,0.0,0.0,0.0,0.0,0.0,0.0,0.0,0.0,0.0,0.0,0.0,0.0,0.0,0.0,0.0,0.0,0.0,0.0,0.0,0.0,0.0,0.0,0.0,0.0,0.0,0.0,0.0,0.0,0.0,0.0,0.0,0.0,0.0,0.0,0.0,0.0,0.0,0.0,0.0,0.0,0.0,0.0,0.0,0.0,0.0,0.0,0.0,0.0,0.0,0.0,0.0,0.0,0.0,0.0,0.0,0.0,0.0,0.0,0.0,0.0,0.0,0.0,0.0,0.0,0.0,0.0,0.0,0.0,0.0,0.0,0.0,0.0,0.0,0.0,0.0,0.0,0.0,0.0,0.0,0.0,0.0,0.0,0.0,0.0,0.0,0.0,0.0,0.0,0.0,0.0,0.0,0.0,0.0,0.0,0.0,0.0,0.0,0.0,0.0,0.0,0.0,0.0,0.0,0.0,0.0,0.0,0.0,0.0,0.0,0.0,0.3449,0.0,0.0,0.0,0.0,0.0,0.0,0.0,0.0,0.0,0.0,0.0,0.0,0.0,0.0,0.0,0.0,0.0,0.0,0.0,0.0,0.0,0.0,0.0,0.0,0.0,0.0,0.0,0.0,0.0,0.0,0.0,0.0,0.0,0.0,0.0,0.0,0.0,0.0,0.0,0.0,0.0,0.0,0.0,0.0,0.0,0.0,0.0,0.0,0.0,0.0,0.0,0.0,0.0,0.0,0.0,0.0,0.0,0.0,0.0,0.0,0.0,0.0,0.0,0.0,0.0,0.0,0.0,0.0,0.0,0.0,0.0,0.0,0.0,0.0,0.0,0.0,0.0,0.0,0.0,0.0,0.0,0.0,0.0,0.0,0.0,0.0,0.0,0.0,0.0,0.0,0.0,0.0,0.0,0.0,0.0,0.0,0.0,0.0,0.0,0.0,0.0,0.0,0.0,0.0,0.0,0.0,0.0,0.0,0.0,0.0,0.3271,0.47,0.2688,0.2273,0.378,0.0,0.0,0.0,0.0,0.0,0.0,0.0,0.0,0.0,0.0,0.0,0.0,0.0,0.0,0.0,0.0,0.0,0.0,0.0,0.0,0.0,0.0,0.0,0.0,0.0,0.0,0.0,0.0,0.0,0.0,0.0,0.0,0.0,0.0,0.0,0.0,0.0,0.0,0.0,0.0,0.0,0.0,0.0,0.0,0.0,0.0,0.0,0.0,0.0,0.0,0.0,0.0,0.0,0.0,0.0,0.0,0.0,0.0,0.0,0.0,0.0,0.0,0.0,0.0,0.0,0.0,0.0,0.0,0.0,0.0,0.0,0.0,0.0,0.0,0.0,0.0,0.0,0.0,0.0,0.0,0.0,0.0,0.0,0.0,0.0,0.0,0.0,0.0,0.0,0.0,0.0,0.0,0.0,0.0,0.0,0.0,0.0,0.0,0.0,0.0,0.0,0.0,0.0,0.0,0.0,0.0,0.0,0.0,0.0,0.0,0.0,0.0,0.3105,0.2645,0.4138,0.0,0.0,0.0,0.0,0.0,0.0,0.0,0.0,0.0,0.0,0.0,0.0,0.0,0.0,0.0,0.0,0.0,0.0,0.0,0.0,0.0,0.0,0.0,0.0,0.0,0.0,0.0,0.0,0.0,0.0,0.0,0.0,0.0,0.0,0.0,0.0,0.0,0.0,0.0,0.0,0.0,0.0,0.0,0.0,0.0,0.0,0.0,0.0,0.0,0.0,0.0,0.0,0.0,0.0,0.0,0.0,0.0,0.0,0.0,0.0,0.0,0.0,0.0,0.0,0.0,0.0,0.0,0.0,0.0,0.0,0.0,0.0,0.0,0.0,0.0,0.0,0.0,0.0,0.0,0.0,0.0,0.0,0.0,0.0,0.0,0.0,0.0,0.0,0.0,0.0,0.0,0.0,0.0,0.0,0.0,0.0,0.0,0.0,0.0,0.0,0.0,0.0,0.0,0.0,0.0,0.0,0.0,0.0,0.0,0.0,0.5439,0.6411,0.6294,0.0,0.5266,0.0,0.0,0.0,0.0,0.0,0.0,0.0,0.0,0.0,0.0,0.0,0.0,0.0,0.0,0.0,0.0,0.0,0.0,0.0,0.0,0.0,0.0,0.0,0.0,0.0,0.0,0.0,0.0,0.0,0.0,0.0,0.0,0.0,0.0,0.0,0.0,0.0,0.0,0.0,0.0,0.0,0.0,0.0,0.0,0.0,0.0,0.0,0.0,0.0,0.0,0.0,0.0,0.0,0.0,0.0,0.0,0.0,0.0,0.0,0.0,0.0,0.0,0.0,0.0,0.0,0.0,0.0,0.0,0.0,0.0,0.0,0.0,0.0,0.0,0.0,0.0,0.0,0.0,0.0,0.0,0.0,0.0,0.0,0.0,0.0,0.0,0.0,0.0,0.0,0.0,0.0,0.0,0.0,0.0,0.0,0.0,0.0,0.0,0.0,0.0,0.0,0.0,0.0,0.0,0.0,0.0,0.0,0.0,0.0,0.0,0.5724,0.6343,0.6266,0.581,0.0,0.0,0.0,0.0,0.0,0.0,0.0,0.0,0.0,0.0,0.0,0.0,0.0,0.0,0.0,0.0,0.0,0.0,0.0,0.0,0.0,0.0,0.0,0.0,0.0,0.0,0.0,0.0,0.0,0.0,0.0,0.0,0.0,0.0,0.0,0.0,0.0,0.0,0.0,0.0,0.0,0.0,0.0,0.0,0.0,0.0,0.0,0.0,0.0,0.0,0.0,0.0,0.0,0.0,0.0,0.0,0.0,0.0,0.0,0.0,0.0,0.0,0.0,0.0,0.0,0.0,0.0,0.0,0.0,0.0,0.0,0.0,0.0,0.0,0.0,0.0,0.0,0.0,0.0,0.0,0.0,0.0,0.0,0.0,0.0,0.0,0.0,0.0,0.0,0.0,0.0,0.0,0.0,0.0,0.0,0.0,0.0,0.0,0.0,0.0,0.0,0.0,0.0,0.0,0.0,0.0,0.0,0.0,0.0,0.0,0.5934,0.6084,0.6617,0.6158,0.5602,0.5016,0.0,0.0,0.0,0.0,0.0,0.0,0.0,0.0,0.0,0.0,0.0,0.0,0.0,0.0,0.0,0.0,0.0,0.0,0.0,0.0,0.0,0.0,0.0,0.0,0.0,0.0,0.0,0.0,0.0,0.0,0.0,0.0,0.0,0.0,0.0,0.0,0.0,0.0,0.0,0.0,0.0,0.0,0.0,0.0,0.0,0.0,0.0,0.0,0.0,0.0,0.0,0.0,0.0,0.0,0.0,0.0,0.0,0.0,0.0,0.0,0.0,0.0,0.0,0.0,0.0,0.0,0.0,0.0,0.0,0.0,0.0,0.0,0.0,0.0,0.0,0.0,0.0,0.0,0.0,0.0,0.0,0.0,0.0,0.0,0.0,0.0,0.0,0.0,0.0,0.0,0.0,0.0,0.0,0.0,0.0,0.0,0.0,0.0,0.0,0.0,0.0,0.0,0.0,0.0,0.0,0.0,0.0,0.0,0.7755,0.6803,0.6758,0.7722,0.6696,0.6027,0.0,0.0,0.0,0.0,0.0,0.0,0.0,0.0,0.0,0.0,0.0,0.0,0.0,0.0,0.0,0.0,0.0,0.0,0.0,0.0,0.0,0.0,0.0,0.0,0.0,0.0,0.0,0.0,0.0,0.0,0.0,0.0,0.0,0.0,0.0,0.0,0.0,0.0,0.0,0.0,0.0,0.0,0.0,0.0,0.0,0.0,0.0,0.0,0.0,0.0,0.0,0.0,0.0,0.0,0.0,0.0,0.0,0.0,0.0,0.0,0.0,0.0,0.0,0.0,0.0,0.0,0.0,0.0,0.0,0.0,0.0,0.0,0.0,0.0,0.0,0.0,0.0,0.0,0.0,0.0,0.0,0.0,0.0,0.0,0.0,0.0,0.0,0.0,0.0,0.0,0.0,0.0,0.0,0.0,0.0,0.0,0.0,0.0,0.0,0.0,0.0,0.0,0.0,0.0,0.0,0.0,0.0,0.0,0.0,0.6705,0.6653,0.6883,0.7409,0.6906,0.6512,0.0,0.0,0.0,0.0,0.0,0.0,0.0,0.0,0.0,0.0,0.0,0.0,0.0,0.0,0.0,0.0,0.0,0.0,0.0,0.0,0.0,0.0,0.0,0.0,0.0,0.0,0.0,0.0,0.0,0.0,0.0,0.0,0.0,0.0,0.0,0.0,0.0,0.0,0.0,0.0,0.0,0.0,0.0,0.0,0.0,0.0,0.0,0.0,0.0,0.0,0.0,0.0,0.0,0.0,0.0,0.0,0.0,0.0,0.0,0.0,0.0,0.0,0.0,0.0,0.0,0.0,0.0,0.0,0.0,0.0,0.0,0.0,0.0,0.0,0.0,0.0,0.0,0.0,0.0,0.0,0.0,0.0,0.0,0.0,0.0,0.0,0.0,0.0,0.0,0.0,0.0,0.0,0.0,0.0,0.0,0.0,0.0,0.0,0.0,0.0,0.0,0.0,0.0,0.0,0.0,0.0,0.0,0.0,0.0,0.6193,0.0,0.6906,0.7114,0.6887,0.662,0.0,0.0,0.0,0.0,0.0,0.0,0.0,0.0,0.0,0.0,0.0,0.0,0.0,0.0,0.0,0.0,0.0,0.0,0.0,0.0,0.0,0.0,0.0,0.0,0.0,0.0,0.0,0.0,0.0,0.0,0.0,0.0,0.0,0.0,0.0,0.0,0.0,0.0,0.0,0.0,0.0,0.0,0.0,0.0,0.0,0.0,0.0,0.0,0.0,0.0,0.0,0.0,0.0,0.0,0.0,0.0,0.0,0.0,0.0,0.0,0.0,0.0,0.0,0.0,0.0,0.0,0.0,0.0,0.0,0.0,0.0,0.0,0.0,0.0,0.0,0.0,0.0,0.0,0.0,0.0,0.0,0.0,0.0,0.0,0.0,0.0,0.0,0.0,0.0,0.0,0.0,0.0,0.0,0.0,0.0,0.0,0.0,0.0,0.0,0.0,0.0,0.0,0.0,0.0,0.0,0.0,0.0,0.0,0.6223,0.6567,0.6735,0.6912,0.7011,0.6705,0.6353,0.0,0.0,0.0,0.0,0.0,0.0,0.0,0.0,0.0,0.0,0.0,0.0,0.0,0.0,0.0,0.0,0.0,0.0,0.0,0.0,0.0,0.0,0.0,0.0,0.0,0.0,0.0,0.0,0.0,0.0,0.0,0.0,0.0,0.0,0.0,0.0,0.0,0.0,0.0,0.0,0.0,0.0,0.0,0.0,0.0,0.0,0.0,0.0,0.0,0.0,0.0,0.0,0.0,0.0,0.0,0.0,0.0,0.0,0.0,0.0,0.0,0.0,0.0,0.0,0.0,0.0,0.0,0.0,0.0,0.0,0.0,0.0,0.0,0.0,0.0,0.0,0.0,0.0,0.0,0.0,0.0,0.0,0.0,0.0,0.0,0.0,0.0,0.0,0.0,0.0,0.0,0.0,0.0,0.0,0.0,0.0,0.0,0.0,0.0,0.0,0.0,0.0,0.0,0.0,0.0,0.0,0.0,0.0,0.0,0.6534,0.7015,0.7571,0.8117,0.7237,0.705,0.0,0.0,0.0,0.0,0.0,0.0,0.0,0.0,0.0,0.0,0.0,0.0,0.0,0.0,0.0,0.0,0.0,0.0,0.0,0.0,0.0,0.0,0.0,0.0,0.0,0.0,0.0,0.0,0.0,0.0,0.0,0.0,0.0,0.0,0.0,0.0,0.0,0.0,0.0,0.0,0.0,0.0,0.0,0.0,0.0,0.0,0.0,0.0,0.0,0.0,0.0,0.0,0.0,0.0,0.0,0.0,0.0,0.0,0.0,0.0,0.0,0.0,0.0,0.0,0.0,0.0,0.0,0.0,0.0,0.0,0.0,0.0,0.0,0.0,0.0,0.0,0.0,0.0,0.0,0.0,0.0,0.0,0.0,0.0,0.0,0.0,0.0,0.0,0.0,0.0,0.0,0.0,0.0,0.0,0.0,0.0,0.0,0.0,0.0,0.0,0.0,0.0,0.0,0.0,0.0,0.0,0.0,0.0,0.0,0.6636,0.6989,0.7355,0.7693,0.6982,0.6951,0.7621,0.0,0.0,0.0,0.0,0.0,0.0,0.0,0.0,0.0,0.0,0.0,0.0,0.0,0.0,0.0,0.0,0.0,0.0,0.0,0.0,0.0,0.0,0.0,0.0,0.0,0.0,0.0,0.0,0.0,0.0,0.0,0.0,0.0,0.0,0.0,0.0,0.0,0.0,0.0,0.0,0.0,0.0,0.0,0.0,0.0,0.0,0.0,0.0,0.0,0.0,0.0,0.0,0.0,0.0,0.0,0.0,0.0,0.0,0.0,0.0,0.0,0.0,0.0,0.0,0.0,0.0,0.0,0.0,0.0,0.0,0.0,0.0,0.0,0.0,0.0,0.0,0.0,0.0,0.0,0.0,0.0,0.0,0.0,0.0,0.0,0.0,0.0,0.0,0.0,0.0,0.0,0.0,0.0,0.0,0.0,0.0,0.0,0.0,0.0,0.0,0.0,0.0,0.0,0.0,0.0,0.0,0.0,0.0,0.6758,0.6743,0.654,0.6158,0.6271,0.6313,0.0,0.0,0.0,0.0,0.0,0.0,0.0,0.0,0.0,0.0,0.0,0.0,0.0,0.0,0.0,0.0,0.0,0.0,0.0,0.0,0.0,0.0,0.0,0.0,0.0,0.0,0.0,0.0,0.0,0.0,0.0,0.0,0.0,0.0,0.0,0.0,0.0,0.0,0.0,0.0,0.0,0.0,0.0,0.0,0.0,0.0,0.0,0.0,0.0,0.0,0.0,0.0,0.0,0.0,0.0,0.0,0.0,0.0,0.0,0.0,0.0,0.0,0.0,0.0,0.0,0.0,0.0,0.0,0.0,0.0,0.0,0.0,0.0,0.0,0.0,0.0,0.0,0.0,0.0,0.0,0.0,0.0,0.0,0.0,0.0,0.0,0.0,0.0,0.0,0.0,0.0,0.0,0.0,0.0,0.0,0.0,0.0,0.0,0.0,0.0,0.0,0.0,0.0,0.0,0.0,0.0,0.0,0.0,0.0,0.6125,0.6766,0.7164,0.7154,0.6846,0.6676,0.0,0.0,0.0,0.0,0.0,0.0,0.0,0.0,0.0,0.0,0.0,0.0,0.0,0.0,0.0,0.0,0.0,0.0,0.0,0.0,0.0,0.0,0.0,0.0,0.0,0.0,0.0,0.0,0.0,0.0,0.0,0.0,0.0,0.0,0.0,0.0,0.0,0.0,0.0,0.0,0.0,0.0,0.0,0.0,0.0,0.0,0.0,0.0,0.0,0.0,0.0,0.0,0.0,0.0,0.0,0.0,0.0,0.0,0.0,0.0,0.0,0.0,0.0,0.0,0.0,0.0,0.0,0.0,0.0,0.0,0.0,0.0,0.0,0.0,0.0,0.0,0.0,0.0,0.0,0.0,0.0,0.0,0.0,0.0,0.0,0.0,0.0,0.0,0.0,0.0,0.0,0.0,0.0,0.0,0.0,0.0,0.0,0.0,0.0,0.0,0.0,0.0,0.0,0.0,0.0,0.0,0.0,0.0,0.6679,0.6676,0.7053,0.7226,0.7162,0.7338,0.7052,0.0,0.0,0.0,0.0,0.0,0.0,0.0,0.0,0.0,0.0,0.0,0.0,0.0,0.0,0.0,0.0,0.0,0.0,0.0,0.0,0.0,0.0,0.0,0.0,0.0,0.0,0.0,0.0,0.0,0.0,0.0,0.0,0.0,0.0,0.0,0.0,0.0,0.0,0.0,0.0,0.0,0.0,0.0,0.0,0.0,0.0,0.0,0.0,0.0,0.0,0.0,0.0,0.0,0.0,0.0,0.0,0.0,0.0,0.0,0.0,0.0,0.0,0.0,0.0,0.0,0.0,0.0,0.0,0.0,0.0,0.0,0.0,0.0,0.0,0.0,0.0,0.0,0.0,0.0,0.0,0.0,0.0,0.0,0.0,0.0,0.0,0.0,0.0,0.0,0.0,0.0,0.0,0.0,0.0,0.0,0.0,0.0,0.0,0.0,0.0,0.0,0.0,0.0,0.0,0.0,0.0,0.0,0.0,0.6703,0.7723,0.7393,0.699,0.6509,0.7533,0.7259,0.0,0.0,0.0,0.0,0.0,0.0,0.0,0.0,0.0,0.0,0.0,0.0,0.0,0.0,0.0,0.0,0.0,0.0,0.0,0.0,0.0,0.0,0.0,0.0,0.0,0.0,0.0,0.0,0.0,0.0,0.0,0.0,0.0,0.0,0.0,0.0,0.0,0.0,0.0,0.0,0.0,0.0,0.0,0.0,0.0,0.0,0.0,0.0,0.0,0.0,0.0,0.0,0.0,0.0,0.0,0.0,0.0,0.0,0.0,0.0,0.0,0.0,0.0,0.0,0.0,0.0,0.0,0.0,0.0,0.0,0.0,0.0,0.0,0.0,0.0,0.0,0.0,0.0,0.0,0.0,0.0,0.0,0.0,0.0,0.0,0.0,0.0,0.0,0.0,0.0,0.0,0.0,0.0,0.0,0.0,0.0,0.0,0.0,0.0,0.0,0.0,0.0,0.0,0.0,0.0,0.0,0.0,0.0,0.6477,0.6942,0.7128,0.6868,0.62,0.6689,0.6402,0.0,0.0,0.0,0.0,0.0,0.0,0.0,0.0,0.0,0.0,0.0,0.0,0.0,0.0,0.0,0.0,0.0,0.0,0.0,0.0,0.0,0.0,0.0,0.0,0.0,0.0,0.0,0.0,0.0,0.0,0.0,0.0,0.0,0.0,0.0,0.0,0.0,0.0,0.0,0.0,0.0,0.0,0.0,0.0,0.0,0.0,0.0,0.0,0.7245,0.0,0.0,0.0,0.0,0.0,0.0,0.0,0.0,0.0,0.0,0.0,0.0,0.0,0.0,0.0,0.0,0.0,0.0,0.0,0.0,0.0,0.0,0.0,0.0,0.0,0.0,0.0,0.0,0.0,0.0,0.0,0.0,0.0,0.0,0.0,0.0,0.0,0.0,0.0,0.0,0.0,0.0,0.0,0.0,0.0,0.0,0.0,0.0,0.0,0.0,0.0,0.0,0.0,0.0,0.0,0.0,0.0,0.0,0.0,0.6602,0.7268,0.7225,0.6932,0.6414,0.6449,0.6086,0.0,0.0,0.0,0.0,0.0,0.0,0.0,0.0,0.0,0.0,0.0,0.0,0.0,0.0,0.0,0.0,0.0,0.0,0.0,0.0,0.0,0.0,0.0,0.0,0.0,0.0,0.0,0.0,0.0,0.0,0.0,0.0,0.0,0.0,0.0,0.0,0.0,0.0,0.0,0.0,0.0,0.0,0.0,0.0,0.0,0.0,0.0,0.0,0.0,0.0,0.0,0.0,0.0,0.0,0.0,0.0,0.0,0.0,0.0,0.0,0.0,0.0,0.0,0.0,0.0,0.0,0.0,0.0,0.0,0.0,0.0,0.0,0.0,0.0,0.0,0.0,0.0,0.0,0.0,0.0,0.0,0.0,0.0,0.0,0.0,0.0,0.0,0.0,0.0,0.0,0.0,0.0,0.0,0.0,0.0,0.0,0.0,0.0,0.0,0.0,0.0,0.0,0.0,0.0,0.0,0.0,0.0,0.6372,0.6745,0.7778,0.7409,0.7024,0.6711,0.6423,0.6084,0.5723,0.0,0.0,0.0,0.0,0.0,0.0,0.0,0.0,0.0,0.0,0.0,0.0,0.0,0.0,0.0,0.0,0.0,0.0,0.0,0.0,0.0,0.0,0.0,0.0,0.0,0.0,0.0,0.0,0.0,0.0,0.0,0.0,0.0,0.0,0.0,0.0,0.0,0.0,0.7724,0.8079,0.0,0.0,0.0,0.0,0.0,0.0,0.0,0.0,0.7799,0.0,0.0,0.0,0.0,0.0,0.0,0.0,0.0,0.0,0.0,0.0,0.0,0.0,0.0,0.0,0.0,0.0,0.0,0.0,0.0,0.0,0.0,0.0,0.0,0.0,0.0,0.0,0.0,0.0,0.0,0.0,0.0,0.0,0.0,0.0,0.0,0.0,0.0,0.0,0.0,0.0,0.0,0.0,0.0,0.0,0.0,0.0,0.0,0.0,0.0,0.0,0.0,0.0,0.0,0.0,0.0,0.7012,0.6527,0.6597,0.7227,0.7212,0.7024,0.6702,0.6347,0.6251,0.646,0.0,0.0,0.0,0.0,0.0,0.0,0.0,0.0,0.0,0.0,0.0,0.0,0.0,0.0,0.0,0.0,0.0,0.0,0.0,0.0,0.0,0.0,0.0,0.0,0.0,0.0,0.0,0.0,0.0,0.0,0.0,0.0,0.0,0.0,0.0,0.0,0.0,0.0,0.0,0.9119,0.9645,0.0,0.0,0.0,0.0,0.0,0.0,0.0,0.0,0.8335,0.0,0.0,0.0,0.0,0.0,0.0,0.0,0.0,0.0,0.0,0.0,0.0,0.0,0.0,0.0,0.0,0.0,0.0,0.0,0.0,0.0,0.0,0.0,0.0,0.0,0.0,0.0,0.0,0.0,0.0,0.0,0.0,0.0,0.0,0.0,0.0,0.0,0.0,0.0,0.0,0.0,0.0,0.0,0.0,0.0,0.0,0.0,0.0,0.0,0.0,0.0,0.0,0.0,0.0,0.0,0.7061,0.659,0.6585,0.7148,0.7244,0.7007,0.6414,0.62,0.627,0.0,0.0,0.0,0.0,0.0,0.0,0.0,0.0,0.0,0.0,0.0,0.0,0.0,0.0,0.0,0.0,0.0,0.0,0.0,0.0,0.0,0.0,0.0,0.0,0.0,0.0,0.0,0.0,0.0,0.0,0.0,0.0,0.0,0.0,0.0,0.0,0.0,0.0,0.0,0.0,0.8247,0.8633,0.7214,0.0,0.0,0.0,0.0,0.0,0.0,0.8801,0.8873,0.0,0.0,0.0,0.0,0.0,0.0,0.0,0.0,0.0,0.0,0.0,0.0,0.0,0.0,0.0,0.0,0.0,0.0,0.0,0.0,0.0,0.0,0.0,0.0,0.0,0.0,0.0,0.0,0.0,0.0,0.0,0.0,0.0,0.0,0.0,0.0,0.0,0.0,0.0,0.0,0.0,0.0,0.0,0.0,0.0,0.0,0.0,0.0,0.0,0.0,0.0,0.0,0.0,0.0,0.0,0.6885,0.6513,0.6538,0.707,0.7257,0.6989,0.6231,0.6154,0.6268,0.0,0.0,0.0,0.0,0.0,0.0,0.0,0.0,0.0,0.0,0.0,0.0,0.0,0.0,0.0,0.0,0.0,0.0,0.0,0.0,0.0,0.0,0.0,0.0,0.0,0.0,0.0,0.0,0.0,0.0,0.0,0.0,0.0,0.0,0.0,0.0,0.0,0.0,0.0,0.0,0.0,0.8134,0.6953,0.8302,0.0,0.0,0.0,0.0,0.9466,0.9375,0.0,0.0,0.0,0.0,0.0,0.0,0.0,0.0,0.0,0.0,0.0,0.0,0.0,0.0,0.0,0.0,0.0,0.0,0.0,0.0,0.0,0.0,0.0,0.0,0.0,0.0,0.0,0.0,0.0,0.0,0.0,0.0,0.0,0.0,0.0,0.0,0.0,0.0,0.0,0.0,0.0,0.0,0.0,0.0,0.0,0.0,0.0,0.0,0.0,0.0,0.0,0.0,0.0,0.0,0.0,0.0,0.6042,0.6175,0.6375,0.6666,0.7051,0.7015,0.6547,0.6312,0.6404,0.0,0.0,0.0,0.0,0.0,0.0,0.0,0.0,0.0,0.0,0.0,0.0,0.0,0.0,0.0,0.0,0.0,0.0,0.0,0.0,0.0,0.0,0.0,0.0,0.0,0.0,0.0,0.0,0.0,0.0,0.0,0.0,0.0,0.0,0.0,0.0,0.0,0.0,0.0,0.0,0.0,1.0908,0.8352,0.9479,1.047,0.0,0.0,0.9217,0.9982,0.9907,0.0,0.0,0.0,0.0,0.0,0.0,0.0,0.0,0.0,0.0,0.0,0.0,0.0,0.0,0.0,0.0,0.0,0.0,0.0,0.0,0.0,0.0,0.0,0.0,0.0,0.0,0.0,0.0,0.0,0.0,0.0,0.0,0.0,0.0,0.0,0.0,0.0,0.0,0.0,0.0,0.0,0.0,0.0,0.0,0.0,0.0,0.0,0.0,0.0,0.0,0.0,0.0,0.0,0.0,0.0,0.6024,0.6878,0.6442,0.6449,0.6913,0.697,0.6767,0.6257,0.6002,0.6151,0.0,0.0,0.0,0.0,0.0,0.0,0.0,0.0,0.0,0.0,0.0,0.0,0.0,0.0,0.0,0.0,0.0,0.0,0.0,0.0,0.0,0.0,0.0,0.0,0.0,0.0,0.0,0.0,0.0,0.0,0.0,0.0,0.0,0.0,0.0,0.0,0.0,0.0,0.0,0.0,0.0,0.0,0.8827,0.9913,0.0,0.0,0.0,1.0645,1.2018,0.0,0.0,0.0,0.0,0.0,0.0,0.0,0.0,0.0,0.0,0.0,0.0,0.0,0.0,0.0,0.0,0.0,0.0,0.0,0.0,0.0,0.0,0.0,0.0,0.0,0.0,0.0,0.0,0.0,0.0,0.0,0.0,0.0,0.0,0.0,0.0,0.0,0.0,0.0,0.0,0.0,0.0,0.0,0.0,0.0,0.0,0.0,0.0,0.0,0.0,0.0,0.0,0.0,0.0,0.0,0.0,0.0,0.7308,0.6562,0.6434,0.7013,0.6943,0.661,0.6011,0.5811,0.0,0.0,0.0,0.0,0.0,0.0,0.0,0.0,0.0,0.0,0.0,0.0,0.0,0.0,0.0,0.0,0.0,0.0,0.0,0.0,0.0,0.0,0.0,0.0,0.0,0.0,0.0,0.5849,0.0,0.0,0.0,0.0,0.0,0.0,0.0,0.0,0.0,0.0,0.0,0.0,0.0,0.0,0.8971,0.9166,1.0366,1.1307,0.0,0.0,1.196,1.2882,1.1378,1.0657,0.0,0.0,0.0,0.0,0.0,0.0,0.0,0.0,0.0,0.0,0.0,0.0,0.0,0.0,0.0,0.0,0.0,0.0,0.0,0.0,0.0,0.0,0.0,0.0,0.0,0.0,0.0,0.0,0.0,0.0,0.0,0.0,0.0,0.0,0.0,0.0,0.0,0.0,0.0,0.0,0.0,0.0,0.0,0.0,0.0,0.0,0.0,0.0,0.0,0.0,0.0,0.0,0.0,0.0,0.0,0.6371,0.6154,0.6228,0.6639,0.6986,0.6794,0.6054,0.604,0.6241,0.0,0.0,0.0,0.0,0.0,0.0,0.0,0.0,0.0,0.0,0.0,0.0,0.0,0.0,0.0,0.0,0.0,0.0,0.0,0.0,0.0,0.0,0.0,0.0,0.0,0.0,0.0,0.0,0.0,0.0,0.0,0.0,0.0,0.0,0.0,0.0,0.0,0.0,0.0,0.0,0.0,1.0465,0.9512,1.1196,1.2104,0.0,0.0,1.2574,1.1152,1.1053,1.138,1.22,0.0,0.0,0.0,0.0,0.0,0.0,0.0,0.0,0.0,0.0,0.0,0.0,0.0,0.0,0.0,0.0,0.0,0.0,0.0,0.0,0.0,0.0,0.0,0.0,0.0,0.0,0.0,0.0,0.0,0.0,0.0,0.0,0.0,0.0,0.0,0.0,0.0,0.0,0.0,0.0,0.0,0.0,0.0,0.0,0.0,0.0,0.0,0.0,0.0,0.0,0.0,0.0,0.0,0.6338,0.6703,0.6171,0.6116,0.6566,0.6711,0.6647,0.6392,0.6196,0.6385,0.0,0.0,0.0,0.0,0.0,0.0,0.0,0.0,0.0,0.0,0.0,0.0,0.0,0.0,0.0,0.0,0.0,0.0,0.0,0.0,0.0,0.0,0.0,0.0,0.0,0.0,0.0,0.0,0.4738,0.4873,0.5993,0.0,0.0,0.0,0.0,0.0,0.0,0.0,0.0,0.0,0.0,1.0464,1.067,1.1579,0.0,0.0,1.3,1.3325,1.345,1.2724,1.2538,1.3733,1.4111,0.0,0.0,0.0,0.0,0.0,0.0,0.0,0.0,0.0,0.0,0.0,0.0,0.0,0.0,0.0,0.0,0.0,0.0,0.0,0.0,0.0,0.0,0.0,0.0,0.0,0.0,0.0,0.0,0.0,0.0,0.0,0.0,0.0,0.0,0.0,0.0,0.0,0.0,0.0,0.0,0.0,0.0,0.0,0.0,0.0,0.0,0.0,0.0,0.0,0.0,0.0,0.0,0.6649,0.7211,0.6309,0.6118,0.6748,0.6682,0.6628,0.6557,0.6337,0.6501,0.0,0.0,0.0,0.0,0.0,0.0,0.0,0.0,0.0,0.0,0.0,0.0,0.0,0.0,0.0,0.0,0.0,0.0,0.0,0.0,0.0,0.0,0.0,0.0,0.0,0.0,0.0,0.0,0.511,0.5423,0.6897,0.0,0.0,0.0,0.0,0.0,0.0,0.0,0.0,0.0,0.0,1.0311,1.1001,1.1833,1.2707,1.3532,1.3908,1.4288,1.4825,1.394,1.3582,1.4796,0.0,0.0,0.0,0.0,0.0,0.0,0.0,0.0,0.0,0.0,0.0,0.0,0.0,0.0,0.0,0.0,0.0,0.0,0.0,0.0,0.0,0.0,0.0,0.0,0.0,0.0,0.0,0.0,0.0,0.0,0.5558,0.0,0.0,0.0,0.0,0.0,0.0,0.0,0.0,0.0,0.0,0.0,0.0,0.0,0.0,0.0,0.0,0.0,0.0,0.0,0.0,0.0,0.0,0.6768,0.7647,0.6516,0.6286,0.7041,0.7077,0.6906,0.6537,0.6484,0.6648,0.6982,0.0,0.0,0.0,0.0,0.0,0.0,0.0,0.0,0.0,0.0,0.0,0.0,0.0,0.0,0.0,0.0,0.0,0.0,0.0,0.0,0.0,0.0,0.0,0.0,0.0,0.0,0.7629,0.7161,0.7025,0.0,0.0,0.0,0.0,0.0,0.0,0.0,0.0,0.0,0.0,1.0278,1.0211,1.0214,1.2109,1.3411,1.3049,1.4585,1.5487,1.453,1.4327,1.4474,0.0,0.0,0.0,0.0,0.0,0.0,0.0,0.0,0.0,0.0,0.0,0.0,0.0,0.0,0.0,0.0,0.0,0.0,0.0,0.0,0.0,0.0,0.0,0.0,0.0,0.0,0.0,0.4661,0.4788,0.0,0.0,0.0,0.0,0.0,0.0,0.0,0.0,0.0,0.0,0.0,0.5639,0.5822,0.0,0.0,0.0,0.0,0.0,0.0,0.0,0.0,0.0,0.0,0.0,0.0,0.669,0.7395,0.642,0.6048,0.6478,0.6871,0.7125,0.7308,0.6937,0.6897,0.7187,0.0,0.0,0.0,0.0,0.0,0.0,0.0,0.0,0.0,0.0,0.0,0.0,0.0,0.0,0.0,0.0,0.0,0.0,0.0,0.0,0.0,0.0,0.0,0.0,0.0,0.7268,0.0,0.0,0.0,0.0,0.0,0.0,0.0,0.0,0.0,0.0,0.0,1.0641,1.056,1.1148,1.1707,1.1995,1.3029,1.3868,0.0,0.0,0.0,0.0,0.0,0.0,0.0,0.0,0.0,0.0,0.0,0.0,0.0,0.0,1.6553,1.6475,1.5918,1.5447,1.5463,0.0,0.0,0.0,0.0,0.0,0.0,0.0,0.0,0.0,0.0,0.0,0.0,0.0,0.0,0.4305,0.0,0.4463,0.0,0.0,0.0,0.0,0.0,0.0,0.0,0.0,0.546,0.5386,0.5404,0.5649,0.5753,0.0,0.5836,0.6273,0.0,0.0,0.0,0.0,0.0,0.0,0.0,0.0,0.68,0.7036,0.6493,0.6261,0.6457,0.6872,0.7193,0.7406,0.7097,0.6996,0.7178,0.7216,0.7393,0.0,0.0,0.0,0.0,0.0,0.0,0.0,0.0,0.0,0.0,0.0,0.0,0.0,0.0,0.0,0.0,0.0,0.0,0.0,0.0,0.0,0.0,0.0,0.7586,0.0,0.0,0.0,0.0,0.0,0.0,0.0,0.0,0.0,0.9894,1.0359,1.0833,1.0982,1.1709,1.242,1.3017,0.0,0.0,0.0,0.0,0.0,0.0,0.0,1.6937,1.7281,1.7235,1.7072,1.6977,1.6851,1.6918,1.7348,0.0,0.0,1.6095,1.5515,1.5052,1.5077,1.5446,1.5759,1.5743,1.6103,1.6405,0.0,0.0,0.0,0.0,0.0,0.0,0.0,0.0,0.4012,0.4587,0.0,0.4328,0.0,0.0,0.0,0.0,0.0,0.568,0.0,0.0,0.4788,0.4533,0.4392,0.4767,0.4883,0.4861,0.5353,0.5845,0.6293,0.5924,0.0,0.0,0.0,0.0,0.0,0.0,0.7101,0.6611,0.6783,0.6911,0.6915,0.7164,0.7173,0.6907,0.6928,0.6928,0.7032,0.7088,0.7131,0.7241,0.7959,0.0,0.0,0.0,0.0,0.0,0.0,0.0,0.0,0.0,0.0,0.0,0.0,0.0,0.0,0.0,0.0,0.0,0.0,0.0,0.0,0.7689,0.0,0.0,0.0,0.0,0.0,0.0,0.0,0.0,0.0,0.0,0.953,1.0594,1.1571,1.1638,0.0,0.0,0.0,0.0,1.4477,1.5528,1.6415,1.709,1.7396,1.709,1.6907,1.7084,0.0,0.0,1.7225,1.7655,1.7912,1.7973,1.7146,1.6457,1.6264,1.6145,1.6068,1.6114,1.6212,1.6367,1.6367,1.6378,1.6495,0.4192,0.0,0.0,0.0,0.0,0.4277,0.403,0.3612,0.3436,0.3619,0.4049,0.3478,0.0,0.0,0.0,0.0,0.0,0.0,0.5275,0.4913,0.5082,0.5033,0.4802,0.5168,0.521,0.4945,0.514,0.5301,0.5404,0.5605,0.6473,0.7907,0.0,0.0,0.0,0.0,0.7283,0.7466,0.7185,0.7106,0.7265,0.7123,0.6991,0.682,0.7098,0.7263,0.7202,0.7237,0.7365,0.7628,0.7859,0.0,0.0,0.0,0.0,0.0,0.0,0.0,0.0,0.0,0.0,0.0,0.0,0.0,0.0,0.0,0.0,0.0,0.0,0.0,0.9224,0.8535,0.8727,0.0,0.0,0.0,0.0,0.0,0.0,0.0,0.0,0.0,1.1399,1.1735,1.2136,0.0,0.0,1.4118,1.4418,1.5009,1.5509,1.5679,1.6377,0.0,0.0,1.7181,1.7532,1.7577,1.7277,1.7254,1.7851,1.7461,1.7208,1.764,1.7119,1.6632,1.6597,1.5972,1.5551,1.5463,1.5861,1.6232,1.6277,1.6618,1.6973,0.3217,0.3659,0.3822,0.3794,0.3596,0.3666,0.3414,0.2956,0.2825,0.3063,0.3508,0.2964,0.3339,0.4371,0.44,0.0,0.0,0.0,0.5125,0.4721,0.524,0.5404,0.5332,0.5564,0.5591,0.5454,0.5486,0.5508,0.5508,0.5937,0.6706,0.7809,0.0,0.0,0.8442,0.7834,0.7577,0.7702,0.7511,0.7335,0.7312,0.7172,0.7015,0.6842,0.7135,0.7245,0.7145,0.7152,0.7253,0.7523,0.7665,0.7945,0.0,0.0,0.0,0.0,0.0,0.0,0.0,0.0,0.0,0.0,0.0,0.8778,0.0,0.0,0.0,0.0,0.8108,0.8463,0.8886,0.8783,0.0,0.0,0.0,0.0,0.0,0.0,0.0,1.3043,1.2478,1.2126,1.2449,1.2631,1.2745,1.2794,1.3651,1.441,1.4919,0.0,1.5569,1.6027,1.6536,1.6895,1.69,1.725,1.7537,1.7651,1.7737,1.787,1.8194,1.7789,1.7562,1.7815,1.766,1.7421,1.7444,1.6986,1.6389,1.5884,1.6167,1.6445,1.6459,1.6838,1.7146,0.2332,0.2358,0.3265,0.3392,0.2955,0.2946,0.2732,0.2358,0.2368,0.2876,0.3674,0.2751,0.3198,0.4647,0.4697,0.0,0.4041,0.4834,0.4968,0.4587,0.5249,0.5663,0.5801,0.5938,0.6019,0.6063,0.6101,0.6175,0.631,0.6634,0.7108,0.7586,0.7685,0.7965,0.8354,0.818,0.7881,0.7545,0.7707,0.7631,0.7238,0.7199,0.7118,0.6966,0.7046,0.7038,0.6951,0.6959,0.698,0.7095,0.7456,0.7792,0.8084,0.0,0.0,0.0,0.0,0.0,0.0,0.0,0.0,0.0,0.0,0.0,0.0,0.0,0.0,0.0,0.7904,0.0,0.7523,0.8704,0.0,0.0,0.0,1.1847,1.2283,1.2401,1.2323,1.1923,0.0,0.0,1.2824,1.3166,1.3178,1.2544,1.3022,1.3812,1.487,1.4724,1.5012,1.6333,1.6689,1.6947,1.7277,1.7271,1.7306,1.7646,1.8131,1.852,1.8618,1.8562,1.8548,1.8548,1.8506,1.845,1.8464,1.8454,1.8304,1.7114,1.7014,1.7084,1.7112,1.7254,1.7366,0.2137,0.2009,0.2368,0.2441,0.2393,0.2558,0.2721,0.2876,0.2752,0.2946,0.3386,0.2958,0.3022,0.3523,0.383,0.4002,0.4098,0.4419,0.4678,0.4906,0.527,0.5533,0.5641,0.5914,0.6044,0.5955,0.605,0.621,0.6464,0.6914,0.7231,0.7522,0.7975,0.8154,0.8011,0.7906,0.7833,0.7751,0.7816,0.775,0.7411,0.7172,0.7119,0.7356,0.7197,0.7175,0.7327,0.7342,0.7234,0.6965,0.715,0.7372,0.7718,0.8471,0.0,0.0,0.0,0.0,0.0,0.0,0.0,0.0,0.0,0.9107,0.974,0.0,0.8523,0.0,0.7796,0.8008,0.9317,0.9521,0.0,0.0,1.152,1.1916,1.2248,1.1698,1.1687,1.2684,1.2377,1.2246,1.2612,1.2753,1.2612,1.2119,1.3031,1.3894,1.4224,1.443,1.4791,1.5611,1.6004,1.6389,1.7022,1.7497,1.7938,1.8602,1.8864,1.9169,1.9572,1.9308,1.9016,1.8934,1.8693,1.8481,1.8349,1.8439,1.8408,1.8072,1.8153,1.8341,1.8355,1.8378,1.8393,0.1957,0.1806,0.1925,0.1987,0.2069,0.2332,0.2653,0.3011,0.2929,0.3025,0.325,0.322,0.3204,0.328,0.3576,0.3838,0.4121,0.424,0.4564,0.5101,0.5345,0.5583,0.593,0.6203,0.6305,0.6248,0.631,0.6401,0.6576,0.6902,0.7155,0.734,0.7769,0.7896,0.7745,0.775,0.7643,0.7462,0.764,0.776,0.7828,0.7666,0.7588,0.7616,0.7355,0.7247,0.733,0.7187,0.714,0.7221,0.7243,0.7487,0.7961,0.8747,0.8748,0.0,0.0,0.0,0.0,0.0,0.0,0.0,0.0,0.0,0.0,0.0,0.9088,0.9438,0.8879,0.9084,1.049,1.0481,1.0641,1.1228,1.1367,1.1394,1.1387,1.1118,1.1198,1.2034,1.201,1.2029,1.2378,1.2608,1.2643,1.2385,1.3075,1.358,1.3594,1.3785,1.4299,1.5195,1.5625,1.61,1.6886,1.7475,1.8058,1.8643,1.87,1.881,1.9402,1.9293,1.9058,1.9086,1.9073,1.9086,1.9003,1.9045,1.9086,1.9114,1.9223,1.9148,1.8772,1.8949,1.9173,0.1698,0.1683,0.175,0.178,0.1837,0.2151,0.2539,0.2805,0.2878,0.2991,0.3193,0.3414,0.357,0.3551,0.3707,0.3939,0.4173,0.4315,0.4698,0.525,0.5445,0.5846,0.633,0.6504,0.6679,0.68,0.6679,0.6679,0.6794,0.6875,0.7011,0.7102,0.734,0.7474,0.7508,0.7618,0.7458,0.7075,0.7498,0.7936,0.8358,0.8371,0.8224,0.7944,0.7523,0.7251,0.7111,0.6841,0.6964,0.7563,0.7557,0.7813,0.8455,0.9187,0.9725,0.0,1.0702,0.0,0.0,0.0,0.0,0.0,0.0,0.0,0.0,1.0067,1.0278,1.0864,1.0264,1.0166,1.1014,1.1174,1.113,1.0894,1.0907,1.0792,1.0489,1.0792,1.1025,1.1025,1.1733,1.2229,1.2269,1.2639,1.2889,1.2866,1.301,1.3139,1.3085,1.3273,1.3874,1.4982,1.5509,1.6115,1.6777,1.7323,1.7811,1.8315,1.8434,1.8398,1.9203,1.9203,1.915,1.929,1.9565,1.9754,1.9897,1.9839,1.9839,1.9828,1.9927,1.9723,1.893,1.915,1.9583,0.1498,0.1444,0.1589,0.172,0.1795,0.1881,0.2099,0.2442,0.2437,0.2601,0.2979,0.356,0.3802,0.3783,0.418,0.4445,0.465,0.4815,0.5083,0.5539,0.575,0.6021,0.6467,0.6597,0.6897,0.7225,0.6945,0.7004,0.7246,0.7272,0.7225,0.7278,0.753,0.7658,0.7671,0.0,0.0,0.0,0.839,0.893,0.8889,0.8748,0.8693,0.8616,0.7797,0.0,0.7328,0.7278,0.7394,0.7658,0.7754,0.0,0.0,0.0,0.0,0.0,0.0,0.0,0.0,0.0,0.0,0.0,1.0309,1.0149,0.9774,0.9806,0.995,1.0214,1.0118,0.9964,0.9853,1.0243,1.0514,1.0523,1.086,1.1176,1.1176,1.1423,1.1594,1.1731,1.2109,1.2404,1.2541,1.2689,1.2902,1.2998,1.2942,1.2982,1.3125,1.3466,1.3935,1.4725,1.5496,1.617,1.6539,1.7002,1.7758,1.8623,1.9168,1.9584,2.0375,2.034,2.0156,2.0129,1.9962,1.9762,1.9686,1.9778,1.9908,1.9704,2.0188,2.0237,1.9252,1.9488,1.9766,0.1344,0.0,0.1512,0.1572,0.0,0.1664,0.1781,0.1923,0.2235,0.2679,0.3176,0.3632,0.3844,0.3796,0.4275,0.4575,0.4735,0.4902,0.5208,0.5637,0.5898,0.6221,0.649,0.687,0.7151,0.7317,0.7151,0.7219,0.7317,0.739,0.7383,0.727,0.7491,0.7613,0.7618,0.7847,0.7852,0.7639,0.8454,0.8832,0.8811,0.9098,0.9015,0.857,0.0,0.0,0.0,0.0,0.0,0.0,0.0,0.0,0.0,0.0,0.0,0.9564,1.0066,1.0238,0.998,1.0004,1.0038,0.9953,0.992,0.9884,0.9795,0.9697,0.9793,1.0094,1.0182,1.0149,1.0007,1.0315,1.052,1.0529,1.0844,1.1097,1.1205,1.1494,1.1723,1.186,1.2491,1.3017,1.3163,1.3733,1.4107,1.4222,1.4269,1.4329,1.4367,1.3858,1.3776,1.4507,1.5389,1.6032,1.63,1.7079,1.7808,1.8624,1.9035,1.9588,2.0364,2.0367,2.0274,2.0274,2.0172,2.0084,2.0214,2.0219,2.0234,2.0274,2.057,2.0597,1.9849,1.998,2.0192,0.1313,0.1319,0.1419,0.1492,0.1492,0.1492,0.1546,0.1604,0.0,0.0,0.0,0.367,0.385,0.3894,0.4235,0.4535,0.4759,0.4943,0.527,0.5669,0.6032,0.6342,0.6535,0.6939,0.7215,0.731,0.7274,0.724,0.731,0.74,0.7384,0.732,0.7384,0.7465,0.762,0.8209,0.8434,0.8244,0.8514,0.8776,0.893,0.9452,0.9388,0.8655,0.8588,0.8366,0.7962,0.7649,0.7773,0.8342,0.8652,0.8972,0.9377,0.9924,1.0128,0.9857,1.0186,1.0301,0.9955,1.0086,1.0048,0.9823,0.9792,0.9798,0.9969,0.9684,0.9636,1.0021,1.0197,1.0377,1.0514,1.0747,1.091,1.0873,1.1167,1.1361,1.1408,1.1712,1.2027,1.2109,1.3,1.3693,1.3879,1.466,1.5403,1.5485,1.5459,1.5734,1.5578,1.4556,1.3979,1.4683,1.5339,1.5736,1.6106,1.6958,1.7949,1.8409,1.878,1.9196,1.976,2.004,2.0136,2.0271,2.0401,2.0588,2.0824,2.0681,2.0622,2.0904,2.0947,2.0801,2.0425,2.0374,2.0509,0.1322,0.1327,0.138,0.1402,0.1452,0.1552,0.1683,0.188,0.2303,0.2569,0.2749,0.3611,0.3959,0.3995,0.4401,0.4692,0.4883,0.5207,0.5482,0.5817,0.6213,0.6447,0.6482,0.6558,0.6842,0.7289,0.7007,0.7052,0.7358,0.735,0.726,0.7151,0.7146,0.7426,0.7861,0.8249,0.8828,0.9506,0.9627,0.986,1.0112,0.9876,0.985,0.9805,0.9065,0.8665,0.8567,0.8282,0.8322,0.8682,0.869,0.8915,0.9598,0.9898,0.9984,0.9831,1.0074,1.0106,0.9768,0.9906,1.0109,1.037,1.037,1.0189,0.9765,0.967,0.9641,0.979,1.0159,1.0404,1.0677,1.1258,1.1705,1.1912,1.2299,1.26,1.2741,1.2846,1.3038,1.3266,1.3772,1.4041,1.426,1.4726,1.5122,1.5227,1.5521,1.5529,1.5609,1.5307,1.5152,1.5344,1.5269,1.5464,1.5998,1.6538,1.7483,1.8425,1.8882,1.9451,2.0174,2.039,2.044,2.0529,2.0588,2.0716,2.066,2.0782,2.0752,2.0696,2.0673,2.0607,2.0416,2.0492,2.0535,0.1278,0.1333,0.1486,0.156,0.1561,0.1612,0.1732,0.1808,0.221,0.2399,0.265,0.3434,0.3742,0.3743,0.435,0.4689,0.48,0.5119,0.5361,0.5542,0.5955,0.6169,0.6276,0.6588,0.6922,0.7191,0.7215,0.7317,0.7551,0.7661,0.7684,0.7621,0.7679,0.798,0.8592,0.8843,0.9489,1.0359,1.0021,0.9916,1.0127,1.0201,1.006,0.9809,0.9525,0.9391,0.9241,0.9105,0.9061,0.9146,0.9302,0.9503,0.9671,0.9999,1.0159,1.008,1.0199,1.0246,1.021,1.0429,1.0731,1.1178,1.1249,1.1328,1.1293,1.0525,1.0293,1.0707,1.0916,1.1121,1.1454,1.1944,1.2249,1.2303,1.2624,1.2831,1.2885,1.3113,1.3277,1.3468,1.3919,1.4263,1.4437,1.4909,1.5336,1.5601,1.5907,1.6125,1.6148,1.5913,1.5731,1.5759,1.5381,1.5519,1.627,1.717,1.7862,1.8444,1.9019,1.9522,2.0029,2.0169,2.0283,2.0245,2.0291,2.0263,2.0344,2.0276,2.0299,2.0536,2.0435,2.0385,2.0461,2.077,2.1103,0.1227,0.1282,0.1541,0.1618,0.1674,0.1726,0.1726,0.1781,0.1992,0.2207,0.2433,0.3149,0.3481,0.3547,0.421,0.4595,0.4793,0.5016,0.5191,0.5378,0.5772,0.603,0.6169,0.6646,0.6952,0.722,0.7407,0.7502,0.772,0.7882,0.7947,0.8053,0.8244,0.8628,0.9344,0.9541,1.0077,1.0924,1.0432,1.0104,1.0092,1.0421,1.0309,0.9866,1.0066,1.0107,0.9893,0.982,0.9697,0.9534,0.9831,0.9937,0.9855,1.017,1.039,1.0404,1.0523,1.0721,1.0959,1.1137,1.1479,1.2034,1.2116,1.2287,1.2531,1.1818,1.1368,1.1792,1.1801,1.1914,1.238,1.2611,1.2717,1.2709,1.2802,1.2968,1.2994,1.3286,1.3501,1.3648,1.416,1.4606,1.4868,1.5263,1.5743,1.6303,1.6581,1.667,1.6639,1.6339,1.6062,1.6039,1.565,1.5622,1.6593,1.7443,1.8054,1.8279,1.8855,1.9396,1.9676,1.9949,2.0079,2.0156,1.9965,1.9937,2.0117,2.0001,1.9986,2.0258,2.0207,2.0271,2.0566,2.1069,2.1694,0.122,0.1172,0.1321,0.1453,0.1619,0.1732,0.1786,0.1786,0.1843,0.1843,0.1956,0.2625,0.3229,0.3699,0.3842,0.4303,0.4991,0.5128,0.5293,0.56,0.5948,0.6216,0.6391,0.6565,0.694,0.7357,0.734,0.7459,0.776,0.7758,0.789,0.826,0.855,0.8999,0.9696,1.0134,1.0684,1.1527,1.124,1.0946,1.0673,1.0679,1.066,1.0621,1.0578,1.0508,1.0537,1.0221,0.9999,0.9846,0.9802,0.9917,1.02,1.0547,1.0718,1.0627,1.1218,1.1734,1.1966,1.1935,1.2143,1.2793,1.2615,1.2607,1.3002,1.3161,1.3063,1.271,1.2525,1.2752,1.3145,1.3216,1.3364,1.3563,1.3422,1.3449,1.4004,1.4188,1.4381,1.485,1.5034,1.5405,1.5458,1.5757,1.6273,1.6775,1.6628,1.6547,1.6824,1.641,1.6192,1.6381,1.6157,1.6106,1.6471,1.6961,1.7599,1.8055,1.8447,1.9126,1.9785,2.003,2.0001,2.0326,2.0398,2.0156,2.0029,2.0067,2.0054,2.0042,2.008,2.022,2.0809,2.1224,2.1668,0.1264,0.1321,0.1283,0.1403,0.1572,0.1684,0.1741,0.1797,0.1741,0.1759,0.1897,0.2148,0.2597,0.3138,0.3596,0.4107,0.4558,0.4893,0.5174,0.5501,0.5693,0.5952,0.6246,0.6546,0.6876,0.7158,0.7314,0.7493,0.7773,0.7969,0.8235,0.8529,0.8848,0.9388,1.0184,1.0343,1.0904,1.1814,1.1644,1.1378,1.1246,1.1057,1.0973,1.1101,1.0995,1.0936,1.1062,1.0949,1.0739,1.0499,1.054,1.0608,1.056,1.0903,1.1084,1.1261,1.1492,1.1771,1.1908,1.1924,1.2258,1.2927,1.2968,1.3233,1.3754,1.4026,1.4041,1.3719,1.3611,1.3664,1.3794,1.3982,1.4185,1.4298,1.417,1.4226,1.4483,1.4629,1.4754,1.4959,1.5106,1.531,1.5504,1.5891,1.6294,1.6602,1.648,1.6641,1.6858,1.6657,1.6698,1.7009,1.6992,1.6869,1.6802,1.6926,1.7346,1.78,1.8435,1.9258,1.9665,2.0251,2.0459,2.0439,2.0382,2.0175,1.9784,1.9875,1.9914,1.9977,2.0016,2.0143,2.0398,2.1183,2.1953,0.1185,0.1367,0.1378,0.1433,0.1538,0.1608,0.1663,0.1766,0.1594,0.1606,0.1737,0.1774,0.2104,0.2728,0.3401,0.3928,0.4418,0.4872,0.5216,0.5451,0.5627,0.5846,0.6201,0.6519,0.684,0.7081,0.7349,0.7574,0.7779,0.8049,0.8447,0.8933,0.9222,0.985,1.0731,1.0906,1.129,1.1983,1.1929,1.1832,1.1768,1.1488,1.1351,1.1418,1.1335,1.1335,1.155,1.155,1.1344,1.09,1.1077,1.1084,1.09,1.1145,1.1539,1.1888,1.1937,1.2006,1.2075,1.2144,1.2486,1.3135,1.3349,1.3675,1.4387,1.4568,1.4715,1.4895,1.4768,1.4587,1.4274,1.4604,1.4832,1.4942,1.484,1.4823,1.5112,1.5117,1.5106,1.5297,1.5466,1.5491,1.5773,1.6131,1.6496,1.6627,1.6605,1.6693,1.6846,1.6841,1.6858,1.7222,1.7326,1.7307,1.7101,1.7123,1.7329,1.7722,1.8442,1.8999,1.9573,2.0411,2.0937,2.0827,2.0656,2.0556,2.0387,2.0282,2.025,2.0263,2.0381,2.0534,2.1018,2.1745,2.2308,0.1086,0.1119,0.1515,0.1565,0.1415,0.1633,0.169,0.1648,0.1469,0.1389,0.1425,0.1623,0.2056,0.2638,0.3157,0.3929,0.4817,0.5175,0.5423,0.5627,0.5812,0.6096,0.6383,0.6593,0.6974,0.7414,0.7441,0.7619,0.7864,0.8051,0.8674,0.9735,0.9818,1.0458,1.1409,1.1736,1.1983,1.2224,1.2224,1.2218,1.2198,1.2031,1.1807,1.1657,1.1566,1.1702,1.185,1.185,1.1653,1.0989,1.1141,1.1127,1.1061,1.1465,1.1956,1.2421,1.2506,1.2614,1.2963,1.2778,1.3021,1.3748,1.3623,1.3948,1.4858,1.4781,1.5019,1.5863,1.5683,1.5335,1.4808,1.5122,1.5332,1.548,1.5221,1.5435,1.6148,1.5634,1.5651,1.6088,1.6156,1.6114,1.6462,1.6706,1.6927,1.7058,1.6824,1.6656,1.6882,1.668,1.6654,1.689,1.7103,1.7277,1.7308,1.736,1.7525,1.7941,1.8411,1.8823,1.9877,2.0748,2.1055,2.1217,2.1076,2.1018,2.1082,2.1107,2.1131,2.1137,2.1154,2.1348,2.1496,2.2298,2.2788,0.101,0.0944,0.1252,0.1309,0.1303,0.1341,0.1412,0.1516,0.1308,0.1364,0.1424,0.1449,0.1849,0.2648,0.2939,0.37,0.4725,0.5093,0.5391,0.5794,0.5988,0.6211,0.6371,0.6578,0.6898,0.7333,0.7441,0.7674,0.8004,0.8212,0.8757,0.9572,1.0013,1.0582,1.1397,1.1861,1.2009,1.2077,1.2231,1.2305,1.2305,1.2077,1.2024,1.2012,1.1926,1.1926,1.2144,1.229,1.2084,1.156,1.1717,1.1813,1.181,1.2221,1.2511,1.2558,1.2722,1.2853,1.2945,1.2875,1.3127,1.3676,1.3722,1.3989,1.4734,1.5072,1.5381,1.566,1.592,1.5846,1.5837,1.603,1.6296,1.6377,1.6323,1.6314,1.6519,1.6465,1.6388,1.6482,1.6564,1.6676,1.6669,1.6866,1.6981,1.6806,1.6624,1.6688,1.6865,1.6812,1.6844,1.7254,1.7662,1.7851,1.7683,1.7698,1.7856,1.8233,1.8665,1.921,2.008,2.0953,2.1353,2.1236,2.1257,2.1369,2.1432,2.1524,2.1581,2.16,2.1644,2.182,2.1788,2.256,2.2892,0.0971,0.0948,0.1144,0.1207,0.1204,0.125,0.1257,0.1359,0.1208,0.1199,0.131,0.1273,0.174,0.2504,0.2713,0.3505,0.4725,0.5071,0.5439,0.5905,0.6105,0.6298,0.6396,0.6609,0.6871,0.7211,0.755,0.7944,0.8495,0.8651,0.9158,1.0053,1.0289,1.0818,1.1632,1.1929,1.2009,1.2083,1.2224,1.2305,1.2305,1.215,1.215,1.2224,1.2157,1.215,1.2305,1.2452,1.2453,1.2082,1.2103,1.2193,1.2251,1.26,1.2795,1.2813,1.2973,1.3127,1.3119,1.3119,1.3372,1.4084,1.4066,1.4304,1.5174,1.5551,1.5637,1.585,1.6126,1.6405,1.6715,1.7046,1.7235,1.7132,1.709,1.715,1.7244,1.7055,1.6824,1.6779,1.6963,1.7068,1.6946,1.7131,1.709,1.6652,1.6759,1.6946,1.6824,1.6958,1.7097,1.747,1.7804,1.8014,1.8031,1.8083,1.8176,1.8511,1.8738,1.9405,2.0068,2.0963,2.1409,2.1301,2.1416,2.1583,2.1743,2.1873,2.1938,2.197,2.2196,2.2447,2.2506,2.2698,2.3056,0.0971,0.0954,0.1194,0.1262,0.1242,0.1236,0.1298,0.1241,0.111,0.1019,0.1043,0.1107,0.1675,0.2395,0.2448,0.3374,0.473,0.5031,0.5382,0.592,0.6129,0.6264,0.642,0.6609,0.6783,0.7052,0.7767,0.851,0.9256,0.9281,0.9809,1.0801,1.0795,1.126,1.2305,1.2083,1.215,1.2224,1.2305,1.2305,1.2305,1.2305,1.2305,1.2305,1.2305,1.2305,1.2305,1.2526,1.2456,1.2219,1.2255,1.2208,1.2301,1.2571,1.2892,1.315,1.3353,1.3499,1.3492,1.3499,1.3985,1.4736,1.4747,1.5144,1.6056,1.5973,1.5898,1.6456,1.6651,1.6919,1.7309,1.7607,1.7729,1.7543,1.7466,1.7603,1.774,1.7372,1.702,1.7223,1.7473,1.7643,1.7534,1.7446,1.7362,1.7178,1.724,1.7249,1.6884,1.7054,1.7241,1.7255,1.7605,1.8008,1.8289,1.8556,1.8623,1.8741,1.8871,1.9276,1.9898,2.0688,2.1135,2.123,2.1798,2.1983,2.2392,2.2518,2.2652,2.2749,2.2949,2.2962,2.3047,2.3132,2.3381,0.0983,0.0979,0.108,0.1079,0.1119,0.1094,0.1088,0.1113,0.1049,0.0977,0.0965,0.1031,0.1467,0.197,0.2118,0.2921,0.4355,0.4455,0.4958,0.58,0.6083,0.6214,0.628,0.642,0.6814,0.7415,0.8027,0.8508,0.8964,0.917,0.9771,1.0519,1.0887,1.1484,1.2231,1.2231,1.2224,1.2305,1.2305,1.2305,1.2305,1.2305,1.2311,1.2305,1.2452,1.2526,1.2526,1.2599,1.2528,1.2388,1.255,1.2684,1.277,1.3064,1.3245,1.3244,1.3346,1.3492,1.3564,1.3805,1.4222,1.4912,1.5227,1.5637,1.644,1.6648,1.6738,1.6976,1.7057,1.731,1.7716,1.7635,1.7649,1.7789,1.786,1.7877,1.798,1.7817,1.7715,1.7768,1.7837,1.7812,1.7631,1.7613,1.7541,1.7199,1.7327,1.7388,1.7155,1.7349,1.7396,1.7189,1.7623,1.8002,1.8143,1.8399,1.8617,1.8767,1.8958,1.9135,1.9749,2.0324,2.0764,2.1336,2.1913,2.242,2.2787,2.2969,2.3078,2.3125,2.3062,2.315,2.3314,2.3389,2.3536,0.0988,0.099,0.0997,0.0928,0.0975,0.1004,0.0999,0.0976,0.0984,0.0982,0.0975,0.0984,0.1304,0.1814,0.1943,0.2737,0.3913,0.4116,0.468,0.5547,0.5954,0.6148,0.6226,0.6622,0.7005,0.758,0.8161,0.8584,0.8927,0.9322,0.9922,1.0663,1.1111,1.1639,1.2231,1.2311,1.2338,1.2438,1.2472,1.2465,1.2472,1.2465,1.2418,1.2325,1.2526,1.2599,1.2599,1.268,1.2736,1.272,1.2848,1.2942,1.2949,1.315,1.3288,1.3324,1.3419,1.3492,1.3652,1.4048,1.4626,1.5349,1.5723,1.6111,1.6587,1.7066,1.7066,1.6894,1.7139,1.7473,1.7716,1.7716,1.7716,1.7951,1.8023,1.8031,1.8031,1.8031,1.8023,1.7989,1.8014,1.7912,1.7757,1.7751,1.77,1.7389,1.7552,1.7591,1.7445,1.7552,1.7459,1.7439,1.7743,1.7965,1.8,1.8279,1.8616,1.8836,1.8936,1.9166,1.9528,2.0064,2.0506,2.14,2.2037,2.2494,2.286,2.303,2.3125,2.3125,2.3226,2.3477,2.3627,2.3314,2.3462,0.0987,0.0982,0.0958,0.0892,0.0953,0.098,0.0977,0.0956,0.098,0.098,0.0965,0.0989,0.1327,0.1737,0.1938,0.2683,0.3673,0.4008,0.4535,0.515,0.5624,0.5954,0.6296,0.6907,0.7311,0.7602,0.8157,0.8659,0.916,0.962,1.0293,1.0962,1.1409,1.1855,1.2231,1.2305,1.2418,1.2599,1.2665,1.2748,1.2788,1.2755,1.264,1.2318,1.2526,1.2673,1.2746,1.2935,1.3103,1.3185,1.3165,1.3214,1.3111,1.3053,1.3236,1.3484,1.3492,1.3637,1.385,1.4421,1.5059,1.588,1.6218,1.6509,1.6976,1.7057,1.6976,1.6722,1.7139,1.7473,1.7554,1.7716,1.7959,1.7951,1.8031,1.804,1.7993,1.8066,1.8066,1.8091,1.8074,1.804,1.8031,1.8049,1.8026,1.7847,1.8101,1.7987,1.7742,1.7767,1.7749,1.7828,1.8081,1.8193,1.8307,1.8657,1.9023,1.9123,1.9239,1.9396,1.9512,1.99,2.0442,2.1273,2.2121,2.2616,2.286,2.2969,2.319,2.3376,2.3565,2.3853,2.3891,2.3641,2.3753,0.0975,0.0956,0.0971,0.0976,0.0977,0.0986,0.0984,0.098,0.1007,0.1014,0.1015,0.104,0.1251,0.1661,0.1728,0.2403,0.3349,0.3687,0.422,0.502,0.5359,0.5826,0.6386,0.7009,0.7407,0.7677,0.8175,0.8663,0.9084,0.962,1.0218,1.0887,1.1409,1.1935,1.2224,1.2305,1.2331,1.2405,1.2425,1.2599,1.2786,1.2572,1.2466,1.2546,1.2673,1.29,1.3075,1.3637,1.3761,1.3618,1.3866,1.3881,1.3748,1.3652,1.3585,1.3572,1.3659,1.3797,1.4141,1.4836,1.5541,1.6185,1.6804,1.7225,1.7496,1.7627,1.7538,1.7456,1.7708,1.7878,1.7878,1.7959,1.804,1.8031,1.804,1.8126,1.8288,1.8203,1.8126,1.8374,1.8425,1.828,1.8228,1.84,1.8594,1.8189,1.8342,1.8606,1.8241,1.8136,1.831,1.8252,1.8361,1.8489,1.8693,1.9127,1.9399,1.9533,1.9586,1.9671,1.9771,1.9986,2.0497,2.1135,2.2123,2.271,2.2813,2.2921,2.323,2.3616,2.3879,2.4155,2.4469,2.4405,2.4469,0.0997,0.0982,0.0987,0.0988,0.0988,0.0988,0.0988,0.0994,0.102,0.1034,0.104,0.1063,0.121,0.1479,0.1748,0.2351,0.3222,0.3687,0.4289,0.4891,0.5428,0.5892,0.641,0.6929,0.7416,0.7615,0.8171,0.866,0.9155,0.962,1.0218,1.0812,1.1409,1.1855,1.2157,1.2231,1.2398,1.2525,1.2525,1.2639,1.2866,1.2639,1.2506,1.264,1.2826,1.3089,1.3623,1.4215,1.4318,1.4179,1.4332,1.4357,1.4079,1.4111,1.4,1.3726,1.3918,1.4205,1.4553,1.5322,1.5905,1.6338,1.7098,1.7505,1.7578,1.7768,1.787,1.77,1.7861,1.7951,1.804,1.8121,1.8121,1.804,1.8121,1.8296,1.8512,1.8232,1.8228,1.8516,1.8616,1.8456,1.8245,1.8754,1.8711,1.8512,1.8644,1.8722,1.8644,1.8709,1.8718,1.8635,1.8765,1.9003,1.923,1.9599,1.9979,2.0106,2.0257,2.0276,2.0365,2.0407,2.0787,2.1388,2.2163,2.2714,2.2774,2.3047,2.3654,2.4042,2.4255,2.4608,2.4921,2.5018,2.5043,0.1029,0.1026,0.1,0.099,0.0994,0.0993,0.0937,0.0942,0.0901,0.0976,0.1046,0.1065,0.1209,0.1344,0.1816,0.2421,0.3092,0.3754,0.4422,0.4967,0.5582,0.6058,0.6316,0.7038,0.7438,0.7695,0.816,0.8746,0.9246,0.97,1.0218,1.0812,1.1409,1.1781,1.2009,1.2231,1.2505,1.2679,1.2632,1.2645,1.2746,1.2721,1.2716,1.2714,1.2991,1.3518,1.4155,1.4689,1.4829,1.4653,1.4836,1.4687,1.4325,1.4447,1.4374,1.4138,1.4336,1.4582,1.4867,1.5664,1.6221,1.6395,1.7294,1.7755,1.7514,1.7834,1.804,1.7861,1.7942,1.8121,1.8121,1.8282,1.8282,1.8201,1.829,1.8362,1.8371,1.8236,1.8336,1.8889,1.8763,1.8681,1.8707,1.8806,1.8909,1.8884,1.9046,1.923,1.9124,1.8993,1.8905,1.8789,1.9127,1.9666,1.9878,2.009,2.0463,2.0737,2.1,2.1062,2.1264,2.1355,2.1473,2.1823,2.2352,2.2574,2.2609,2.3118,2.3963,2.4568,2.4845,2.5184,2.5523,2.5444,2.539,0.0999,0.0997,0.0991,0.1003,0.1022,0.096,0.0778,0.0661,0.0599,0.08,0.1003,0.1074,0.1277,0.1547,0.1748,0.2218,0.3092,0.3623,0.4223,0.5306,0.5837,0.6131,0.6392,0.7081,0.7592,0.7819,0.8341,0.8775,0.9175,0.9862,1.031,1.0669,1.1366,1.1787,1.2009,1.2183,1.2331,1.2425,1.2412,1.2438,1.254,1.2608,1.2762,1.284,1.3407,1.4011,1.4635,1.5207,1.5511,1.5655,1.5694,1.5416,1.5057,1.4945,1.4777,1.4572,1.4638,1.4875,1.5115,1.5708,1.6235,1.6408,1.7107,1.7639,1.77,1.8065,1.8256,1.8273,1.8442,1.8451,1.854,1.8612,1.8612,1.8531,1.8469,1.8486,1.8593,1.8551,1.8866,1.9436,1.9669,1.954,1.9187,1.9964,1.9876,1.9512,1.956,1.9747,1.96,1.9297,1.912,1.8985,1.9263,1.9712,2.0004,2.0313,2.0708,2.112,2.1459,2.1627,2.1771,2.1973,2.1945,2.2082,2.2296,2.2496,2.275,2.3514,2.4337,2.4884,2.5423,2.5724,2.5937,2.5857,2.589,0.045,0.0386,0.0514,0.0519,0.0526,0.0527,0.0598,0.074,0.0607,0.0742,0.1078,0.1077,0.1277,0.1614,0.1614,0.2218,0.3159,0.3892,0.4558,0.5393,0.5924,0.6272,0.6602,0.7191,0.7761,0.781,0.8271,0.8846,0.9549,1.0008,1.0455,1.0986,1.1684,1.1909,1.1993,1.2282,1.2425,1.2338,1.2378,1.2378,1.2378,1.2599,1.2826,1.3053,1.3615,1.4186,1.4879,1.5295,1.5751,1.6223,1.632,1.5971,1.5556,1.5313,1.5165,1.52,1.515,1.5352,1.5713,1.6087,1.637,1.6534,1.7275,1.7674,1.7883,1.8224,1.8416,1.8442,1.8523,1.862,1.87,1.8772,1.878,1.8736,1.886,1.9011,1.9115,1.8946,1.9054,1.9738,1.9998,1.9955,2.0201,2.058,2.0536,2.0015,2.0014,2.0174,1.9964,1.9732,1.9435,1.9343,1.9496,1.9737,2.0036,2.044,2.0958,2.1343,2.1732,2.1766,2.1848,2.2064,2.2314,2.2517,2.2651,2.289,2.3203,2.3994,2.4579,2.4927,2.54,2.6058,2.6327,2.6183,2.6383,-0.0134,-0.0269,-0.0202,-0.0134,-0.0134,-0.0067,0.0336,0.0808,0.0607,0.0742,0.1078,0.1076,0.1277,0.1547,0.1614,0.2218,0.3291,0.4228,0.496,0.5382,0.5978,0.6352,0.675,0.7368,0.7772,0.7704,0.8225,0.9069,0.9771,1.0223,1.0674,1.1384,1.2081,1.2181,1.2052,1.2421,1.2579,1.2338,1.2452,1.2452,1.2452,1.2673,1.2973,1.336,1.3704,1.4298,1.4981,1.5444,1.5834,1.653,1.6624,1.6304,1.5921,1.5621,1.5599,1.588,1.5677,1.5811,1.6178,1.6502,1.668,1.6823,1.7587,1.7967,1.803,1.8285,1.8487,1.8531,1.8612,1.8736,1.8852,1.9066,1.9102,1.9111,1.9434,1.9722,1.9787,1.9512,1.9697,1.9954,2.0419,2.0526,2.0586,2.0799,2.0727,2.0638,2.0653,2.0492,2.028,2.007,1.9779,1.9405,1.9494,1.9832,2.0146,2.0566,2.1151,2.1576,2.1933,2.2052,2.2051,2.2356,2.2677,2.2867,2.3055,2.3293,2.3699,2.4453,2.4917,2.5091,2.5623,2.6402,2.6615,2.6553,2.6841,-0.0,-0.0134,-0.0672,-0.0941,-0.0807,-0.0269,0.0067,0.0202,0.0472,0.0742,0.1079,0.1076,0.1277,0.1547,0.1615,0.2285,0.3435,0.4381,0.5046,0.5497,0.6044,0.6474,0.6679,0.7512,0.7917,0.7934,0.8364,0.9079,0.9776,1.0315,1.0755,1.1328,1.2113,1.2335,1.2198,1.2496,1.2645,1.2392,1.2399,1.2452,1.2526,1.2753,1.3119,1.3594,1.3977,1.4562,1.5181,1.5662,1.5959,1.6229,1.6409,1.6435,1.6397,1.6246,1.6207,1.6174,1.6076,1.6292,1.6775,1.6759,1.7028,1.7367,1.784,1.808,1.8204,1.8443,1.8656,1.8789,1.8896,1.9137,1.9634,1.9643,1.9916,2.0034,2.0096,2.0129,2.0162,2.0341,2.047,2.0668,2.0899,2.1112,2.1058,2.1031,2.1058,2.1031,2.0956,2.0738,2.0409,2.0227,1.9962,1.9668,1.9338,1.9901,2.0411,2.0809,2.1318,2.1756,2.2113,2.2328,2.2477,2.2765,2.3018,2.3134,2.3295,2.3527,2.4095,2.479,2.525,2.5484,2.614,2.6814,2.6922,2.7017,2.7122,-0.0806,-0.0873,-0.121,-0.1493,-0.1574,-0.0878,-0.0271,0.0274,0.061,0.0945,0.1078,0.1212,0.1344,0.1553,0.1778,0.247,0.3562,0.4657,0.5203,0.5675,0.6328,0.6691,0.6829,0.7639,0.7934,0.8152,0.8509,0.916,0.9992,1.038,1.0905,1.1677,1.2446,1.2685,1.2451,1.2769,1.2786,1.2654,1.2621,1.2606,1.268,1.2914,1.3353,1.3769,1.4182,1.4726,1.5258,1.5661,1.6055,1.6356,1.6569,1.67,1.6904,1.6912,1.6976,1.6998,1.6843,1.6953,1.7371,1.7402,1.7516,1.7912,1.8249,1.8437,1.853,1.8735,1.886,1.9047,1.9344,1.9543,1.9825,2.0108,2.0319,2.0493,2.0619,2.0653,2.0666,2.0956,2.1121,2.115,2.1293,2.1355,2.14,2.14,2.1535,2.1489,2.1371,2.103,2.0585,2.0338,2.0209,1.9977,1.9724,2.0201,2.0732,2.1093,2.1547,2.2053,2.2252,2.2553,2.2692,2.2841,2.3021,2.3121,2.3425,2.3654,2.4062,2.4589,2.5218,2.5851,2.6367,2.6863,2.7239,2.7532,2.7648,-0.1547,-0.1547,-0.1547,-0.1772,-0.2005,-0.1495,-0.0612,0.0345,0.0748,0.1012,0.1146,0.1212,0.1412,0.169,0.2126,0.278,0.37,0.4812,0.5428,0.5696,0.6516,0.6982,0.7186,0.7685,0.8089,0.8156,0.8542,0.9306,1.0137,1.0443,1.1037,1.1859,1.2744,1.2981,1.2711,1.3006,1.305,1.307,1.2962,1.2959,1.3093,1.3381,1.3696,1.3863,1.4217,1.477,1.538,1.5636,1.6015,1.6404,1.6651,1.6854,1.7309,1.7432,1.7716,1.806,1.7838,1.7822,1.8,1.7993,1.8091,1.8547,1.8738,1.8861,1.8912,1.8976,1.9048,1.9421,1.9859,2.0126,2.0228,2.0495,2.0659,2.086,2.108,2.1167,2.1144,2.1298,2.1425,2.1553,2.1642,2.1642,2.1553,2.1553,2.1562,2.1523,2.1405,2.0994,2.0604,2.0458,2.0319,2.0314,2.0349,2.0668,2.1036,2.1449,2.1906,2.2349,2.253,2.2628,2.2777,2.2841,2.3021,2.3147,2.3305,2.3537,2.3959,2.4357,2.5004,2.5708,2.6395,2.6892,2.7288,2.7871,2.831,-0.1344,-0.1344,-0.1344,-0.1348,-0.1488,-0.1618,-0.1078,-0.0,0.0406,0.0742,0.1146,0.1281,0.1416,0.1826,0.2642,0.3094,0.3763,0.4784,0.5567,0.5758,0.6572,0.7025,0.7104,0.7782,0.8012,0.8178,0.8475,0.9231,1.0078,1.0455,1.1055,1.2009,1.2815,1.3086,1.2939,1.329,1.3475,1.3413,1.339,1.3501,1.3845,1.4066,1.4088,1.4141,1.4328,1.4828,1.5494,1.569,1.592,1.6285,1.6603,1.6895,1.7204,1.7717,1.8238,1.8488,1.8355,1.8029,1.8511,1.8448,1.8511,1.8985,1.9164,1.9097,1.9199,1.9389,1.9498,1.9664,2.0316,2.0625,2.0699,2.1052,2.1336,2.1461,2.1502,2.1594,2.156,2.1575,2.1722,2.1651,2.1642,2.1642,2.1642,2.1651,2.1633,2.1496,2.1286,2.0989,2.0668,2.0634,2.0504,2.0517,2.0862,2.1286,2.1599,2.1999,2.2288,2.2734,2.2915,2.294,2.2885,2.297,2.2959,2.3086,2.3309,2.3519,2.3824,2.4273,2.4885,2.5505,2.6215,2.683,2.7272,2.7971,2.8725,-0.1547,-0.1479,-0.1344,-0.1357,-0.1304,-0.1219,-0.0814,-0.0206,0.0275,0.0751,0.1218,0.1437,0.1653,0.2069,0.307,0.3609,0.4008,0.5206,0.5978,0.6143,0.6849,0.7283,0.7387,0.7825,0.8102,0.8178,0.8556,0.9231,1.0019,1.0656,1.1335,1.2398,1.3034,1.3434,1.3272,1.36,1.3748,1.3798,1.3769,1.391,1.414,1.4283,1.4313,1.4297,1.4441,1.4972,1.5507,1.5674,1.5975,1.6381,1.669,1.7001,1.7548,1.7954,1.8362,1.9222,1.8928,1.8828,1.8976,1.8948,1.9049,1.921,1.9329,1.9359,1.9534,1.9679,1.9852,1.9896,2.0773,2.1043,2.1043,2.1463,2.1798,2.1952,2.1919,2.183,2.182,2.1919,2.1919,2.183,2.1731,2.1731,2.1731,2.1651,2.1642,2.164,2.1429,2.1185,2.0994,2.0969,2.0838,2.0696,2.1303,2.1879,2.2289,2.2656,2.2777,2.3197,2.377,2.359,2.3155,2.3036,2.3165,2.3174,2.3257,2.3468,2.3762,2.4066,2.4536,2.5299,2.6105,2.6687,2.7307,2.8124,2.8813,-0.1816,-0.1547,-0.1344,-0.1293,-0.1314,-0.0813,-0.0544,-0.0208,0.0277,0.0822,0.1293,0.1659,0.1967,0.2413,0.3166,0.3693,0.4143,0.551,0.6236,0.6678,0.7079,0.7387,0.7544,0.7868,0.8102,0.8102,0.8475,0.9231,0.9986,1.073,1.1557,1.2689,1.3193,1.35,1.3682,1.3913,1.4047,1.4142,1.4481,1.4587,1.4516,1.4582,1.463,1.4691,1.4757,1.5094,1.5758,1.5774,1.6094,1.6734,1.6676,1.7065,1.7891,1.8167,1.8603,1.9231,1.9335,1.9256,1.9335,1.9256,1.9301,1.9381,1.9399,1.9528,1.985,2.0007,1.9988,2.0005,2.1231,2.14,2.1344,2.1767,2.2133,2.2246,2.2185,2.1998,2.1909,2.2087,2.2185,2.2097,2.1998,2.1909,2.183,2.175,2.1722,2.1756,2.1544,2.1355,2.1351,2.1438,2.1588,2.153,2.2197,2.2868,2.3099,2.3382,2.3416,2.3605,2.4194,2.4222,2.37,2.3493,2.3471,2.3426,2.3359,2.3375,2.362,2.3903,2.4208,2.5011,2.5804,2.6651,2.7397,2.8213,2.87,-0.1816,-0.1547,-0.1344,-0.1211,-0.1147,-0.1076,-0.0673,-0.0068,0.0203,0.0744,0.1356,0.1802,0.2206,0.2596,0.3049,0.3651,0.4152,0.5146,0.5878,0.6464,0.6931,0.7318,0.7561,0.7872,0.8102,0.8178,0.8551,0.9155,0.9878,1.0631,1.1532,1.2505,1.32,1.3567,1.3892,1.4246,1.4486,1.4678,1.5195,1.5302,1.5078,1.5088,1.5194,1.5239,1.5273,1.5535,1.6339,1.6207,1.6415,1.718,1.6944,1.7224,1.8149,1.8336,1.8834,1.9478,1.9636,1.9557,1.9557,1.939,1.939,1.9469,1.9576,1.965,1.9975,2.054,2.052,2.0348,2.1608,2.2026,2.2016,2.2141,2.2463,2.2441,2.2353,2.2353,2.2264,2.2344,2.2353,2.2353,2.2264,2.2176,2.2087,2.2008,2.1839,2.1872,2.1929,2.1658,2.1968,2.2121,2.2466,2.2754,2.3408,2.3927,2.3972,2.4148,2.4257,2.4298,2.4675,2.4581,2.4323,2.4126,2.3995,2.3787,2.3831,2.3643,2.3616,2.4071,2.45,2.4891,2.5527,2.6504,2.7164,2.7878,2.8224,-0.1854,-0.1612,-0.1452,-0.1323,-0.1076,-0.1077,-0.0605,0.0135,0.0411,0.0966,0.1658,0.2057,0.227,0.2547,0.3079,0.3614,0.4239,0.5069,0.5911,0.6608,0.7073,0.733,0.7642,0.7949,0.8174,0.8327,0.8627,0.9306,1.0235,1.0557,1.1517,1.2485,1.3239,1.3702,1.4123,1.4604,1.5012,1.5294,1.564,1.5759,1.5589,1.5265,1.5399,1.5573,1.5423,1.5791,1.6385,1.6542,1.6891,1.7202,1.7371,1.7903,1.8461,1.8727,1.9222,1.9872,1.9872,1.9794,1.9706,1.9548,1.939,1.9557,1.9743,1.9953,2.0301,2.0929,2.1146,2.1409,2.1988,2.2428,2.2197,2.2438,2.2715,2.2706,2.2618,2.253,2.253,2.2608,2.252,2.253,2.2441,2.2353,2.2264,2.2264,2.2185,2.2078,2.2124,2.2186,2.2409,2.265,2.2959,2.3374,2.3983,2.4529,2.4659,2.4914,2.515,2.5114,2.5066,2.4952,2.4825,2.4836,2.4683,2.4511,2.4259,2.4249,2.4304,2.4523,2.4812,2.5015,2.5624,2.6474,2.7053,2.7594,2.7729,-0.1902,-0.1608,-0.158,-0.1386,-0.1142,-0.1078,-0.0539,0.027,0.0685,0.1323,0.2039,0.2316,0.2449,0.2699,0.3102,0.3686,0.4323,0.5052,0.5835,0.6517,0.7019,0.7415,0.7723,0.8025,0.8174,0.8403,0.8703,0.9387,1.0218,1.0421,1.1346,1.2451,1.3406,1.3819,1.4423,1.5061,1.5606,1.5636,1.5932,1.5966,1.592,1.5747,1.5867,1.6092,1.6029,1.6297,1.676,1.7,1.7163,1.7523,1.7831,1.8231,1.8691,1.9222,1.9696,2.002,2.0186,2.002,1.9932,1.9696,1.9627,1.9872,1.9951,2.0334,2.0752,2.1085,2.1284,2.1463,2.2236,2.2727,2.236,2.2621,2.2862,2.2882,2.2882,2.2794,2.2794,2.2784,2.2784,2.2696,2.2608,2.2618,2.253,2.253,2.2441,2.2451,2.2561,2.2581,2.2756,2.3018,2.3231,2.3627,2.4166,2.469,2.5189,2.5335,2.55,2.5406,2.537,2.5376,2.5338,2.5317,2.5256,2.4927,2.473,2.4845,2.4981,2.5116,2.5115,2.5139,2.5779,2.6574,2.6827,2.7286,2.7373,-0.1898,-0.1612,-0.1608,-0.1406,-0.1143,-0.1078,-0.0539,0.0336,0.0944,0.1642,0.2388,0.2569,0.2813,0.3074,0.3253,0.3726,0.4365,0.4974,0.5668,0.6357,0.6938,0.7411,0.771,0.8008,0.8232,0.8475,0.8784,0.9316,1.0073,1.0594,1.1372,1.2201,1.3224,1.3938,1.4588,1.5591,1.5822,1.5529,1.6246,1.6233,1.6149,1.6213,1.6389,1.6685,1.6656,1.6847,1.7263,1.746,1.7615,1.7865,1.8092,1.8513,1.8957,1.945,1.9932,2.0264,2.0342,2.0342,2.0255,2.001,2.002,2.0186,2.0186,2.0418,2.0622,2.0938,2.1467,2.1665,2.2349,2.2785,2.2755,2.2785,2.2969,2.3047,2.3057,2.3057,2.296,2.296,2.2872,2.2872,2.2969,2.3057,2.2882,2.2803,2.2803,2.2794,2.2969,2.3047,2.3057,2.3222,2.3396,2.3907,2.4337,2.4861,2.538,2.5644,2.5779,2.5706,2.5652,2.5699,2.5683,2.5596,2.5431,2.5245,2.5304,2.5363,2.5558,2.5764,2.5769,2.5779,2.5993,2.6564,2.6721,2.6887,2.7049,-0.1773,-0.1743,-0.1486,-0.1301,-0.1142,-0.1078,-0.0539,0.0403,0.1345,0.2099,0.2414,0.2596,0.2762,0.2904,0.3204,0.3632,0.4387,0.4825,0.5412,0.6414,0.6946,0.7387,0.7752,0.8009,0.8179,0.843,0.8835,0.9544,1.0368,1.0899,1.1719,1.2607,1.3311,1.4086,1.4853,1.5651,1.6003,1.5942,1.6347,1.6577,1.6451,1.6373,1.6541,1.7098,1.6957,1.7213,1.7747,1.7931,1.8072,1.8256,1.8513,1.9076,1.9371,1.9775,2.0255,2.0498,2.0576,2.0741,2.0809,2.0654,2.0489,2.042,2.043,2.0693,2.1095,2.1218,2.1641,2.2041,2.2627,2.2949,2.295,2.295,2.3047,2.3057,2.3057,2.3057,2.3047,2.3047,2.3047,2.3047,2.3057,2.3057,2.2969,2.2969,2.2969,2.2969,2.3057,2.3047,2.3144,2.3222,2.3387,2.3983,2.4498,2.5031,2.5464,2.5728,2.5906,2.5801,2.5884,2.6019,2.5931,2.5843,2.5821,2.5711,2.5837,2.5964,2.5991,2.6051,2.6363,2.6553,2.6507,2.6601,2.6757,2.683,2.6824,-0.167,-0.1647,-0.1403,-0.1226,-0.1143,-0.108,-0.0337,0.101,0.1902,0.2379,0.2525,0.2703,0.2963,0.3179,0.3321,0.3609,0.4426,0.5004,0.5368,0.6349,0.6864,0.7278,0.7647,0.7891,0.8132,0.8477,0.9105,0.9765,1.0368,1.1279,1.2096,1.2903,1.3672,1.4238,1.4865,1.5514,1.5963,1.6036,1.6351,1.664,1.6643,1.6734,1.6839,1.7106,1.7291,1.7561,1.8052,1.8362,1.8683,1.8754,1.9222,1.9784,1.9775,2.0098,2.0576,2.0654,2.0731,2.0896,2.0974,2.0809,2.0654,2.0586,2.0722,2.0937,2.1342,2.142,2.1925,2.2419,2.2859,2.3104,2.3193,2.3202,2.3135,2.3135,2.3144,2.3144,2.3115,2.3105,2.3115,2.3125,2.3135,2.3135,2.3144,2.3057,2.3057,2.3057,2.3144,2.3144,2.3144,2.3309,2.3541,2.4104,2.4648,2.5179,2.5538,2.5812,2.5895,2.5895,2.6074,2.624,2.6218,2.613,2.6196,2.6229,2.6152,2.6108,2.6257,2.6362,2.6483,2.6591,2.6666,2.676,2.6886,2.6834,2.6694,-0.1586,-0.141,-0.1419,-0.1179,-0.0939,-0.074,0.0337,0.2158,0.2351,0.2545,0.2698,0.3055,0.3319,0.3713,0.3874,0.4192,0.4622,0.5306,0.5682,0.6071,0.6771,0.7144,0.7466,0.7719,0.8001,0.8601,0.9224,0.9852,1.0351,1.149,1.2532,1.3103,1.3673,1.4244,1.4739,1.5283,1.5679,1.6033,1.6456,1.664,1.6698,1.7033,1.7172,1.7359,1.7568,1.7971,1.8451,1.8692,1.8922,1.9231,1.9706,1.9863,2.002,2.0333,2.0498,2.0654,2.0722,2.0886,2.0974,2.0964,2.0886,2.0896,2.1128,2.1071,2.1201,2.1441,2.188,2.2409,2.28,2.3156,2.3327,2.328,2.3135,2.3135,2.3144,2.3115,2.3076,2.3066,2.3086,2.3096,2.3212,2.3222,2.3222,2.3222,2.327,2.3232,2.3319,2.3396,2.3484,2.357,2.378,2.4173,2.4735,2.5326,2.56,2.5819,2.5895,2.5895,2.6157,2.6324,2.6313,2.6396,2.6396,2.6396,2.6229,2.6313,2.6396,2.6479,2.655,2.6565,2.6685,2.6662,2.6805,2.6769,2.6714,-0.136,-0.1311,-0.1188,-0.0191,0.1179,0.1269,0.1682,0.2225,0.2379,0.2502,0.2691,0.3138,0.3472,0.3688,0.4138,0.4568,0.5,0.5568,0.5962,0.6395,0.6833,0.7137,0.7375,0.761,0.7961,0.8428,0.9103,0.9977,1.0622,1.1848,1.2753,1.3228,1.355,1.4082,1.4592,1.5049,1.5605,1.6121,1.648,1.6632,1.6812,1.7057,1.7229,1.7473,1.7708,1.8121,1.8612,1.9002,1.9152,1.939,2.001,2.0323,2.0186,2.0489,2.0644,2.1051,2.1205,2.1359,2.1512,2.1502,2.1349,2.1282,2.1512,2.1502,2.1409,2.1484,2.1756,2.2312,2.2754,2.3032,2.3172,2.3216,2.3083,2.3006,2.3016,2.3016,2.2957,2.2822,2.2918,2.3011,2.3051,2.3159,2.3199,2.3404,2.3461,2.3454,2.3484,2.3551,2.3724,2.3887,2.4135,2.4523,2.4872,2.5411,2.5543,2.5666,2.5797,2.5979,2.624,2.6407,2.6479,2.6561,2.6644,2.6561,2.6479,2.6561,2.6727,2.6644,2.6561,2.6573,2.6622,2.6644,2.6655,2.6644,2.6565,-0.1216,-0.1149,-0.1031,0.0124,0.168,0.2196,0.2356,0.2356,0.2421,0.2621,0.2827,0.3215,0.3604,0.3927,0.4409,0.4856,0.5345,0.5772,0.6191,0.656,0.6968,0.7119,0.7329,0.7575,0.7881,0.8326,0.9,0.9907,1.0813,1.205,1.3046,1.3339,1.3492,1.3903,1.4509,1.5027,1.5504,1.6116,1.6545,1.6624,1.6812,1.7057,1.7229,1.7456,1.7691,1.8273,1.8825,1.9213,1.946,1.9775,2.0489,2.0566,2.0498,2.0731,2.0954,2.1282,2.1282,2.1425,2.1502,2.1512,2.1512,2.1512,2.1665,2.1655,2.1655,2.166,2.1937,2.2326,2.2574,2.2869,2.3006,2.3163,2.2938,2.2798,2.2827,2.2942,2.2788,2.2614,2.2695,2.2755,2.2898,2.3028,2.3158,2.3403,2.3433,2.3208,2.3298,2.3594,2.3872,2.4245,2.4426,2.4809,2.5178,2.5579,2.5594,2.5568,2.5775,2.5979,2.6313,2.6479,2.6561,2.6644,2.6727,2.6727,2.6644,2.6727,2.682,2.6655,2.6501,2.6595,2.6617,2.6451,2.644,2.6407,2.6284,-0.1142,-0.0881,-0.0883,-0.0061,0.1224,0.2246,0.2542,0.2488,0.2611,0.2815,0.3021,0.3364,0.3752,0.415,0.4663,0.5202,0.5696,0.6117,0.6441,0.6726,0.7062,0.7242,0.7446,0.7631,0.7892,0.8349,0.9006,1.0024,1.0967,1.2085,1.3119,1.3492,1.3572,1.3954,1.4568,1.4881,1.5382,1.6032,1.6444,1.6635,1.6878,1.7139,1.7456,1.7568,1.7989,1.8496,1.9097,1.9492,1.9766,2.0333,2.0654,2.0722,2.0886,2.1128,2.1349,2.1425,2.1425,2.1502,2.1578,2.1512,2.1502,2.1502,2.1512,2.1655,2.1731,2.1731,2.1968,2.2175,2.2408,2.2574,2.2686,2.3041,2.3016,2.2878,2.2824,2.2765,2.2562,2.2502,2.2629,2.2704,2.2776,2.2907,2.2895,2.3119,2.318,2.2832,2.2902,2.3392,2.3924,2.4398,2.4619,2.4924,2.5378,2.5597,2.5441,2.5502,2.5786,2.6063,2.6396,2.6561,2.6561,2.6727,2.6798,2.6715,2.6561,2.6727,2.6738,2.6745,2.6718,2.664,2.6579,2.6256,2.6234,2.6379,2.6168,-0.1127,-0.0911,-0.0641,0.0244,0.1473,0.2218,0.2655,0.2882,0.2756,0.2836,0.3082,0.3493,0.3904,0.4341,0.4907,0.5491,0.5898,0.6417,0.6785,0.7065,0.7332,0.7438,0.7654,0.7785,0.8009,0.8473,0.9211,1.0396,1.1655,1.2551,1.3119,1.3492,1.3652,1.402,1.4567,1.4849,1.5286,1.5817,1.6134,1.6605,1.7009,1.722,1.7543,1.7906,1.8329,1.8846,1.9472,2.0004,2.0343,2.0819,2.0964,2.1051,2.1138,2.1425,2.1578,2.1578,2.1578,2.1655,2.1655,2.1578,2.1655,2.1655,2.1731,2.1731,2.1807,2.1807,2.189,2.2076,2.2175,2.2234,2.239,2.2848,2.3033,2.2817,2.2702,2.2479,2.2339,2.2503,2.2564,2.2707,2.2747,2.2676,2.2747,2.2706,2.2757,2.2705,2.2644,2.301,2.3784,2.4231,2.4381,2.4744,2.5449,2.571,2.5437,2.548,2.588,2.6146,2.6396,2.6479,2.6644,2.6727,2.6809,2.6644,2.6479,2.6738,2.7016,2.7205,2.7205,2.6918,2.697,2.6819,2.6735,2.6835,2.6461,-0.1107,-0.0789,-0.0116,0.0661,0.1485,0.219,0.2629,0.2888,0.3021,0.3179,0.3222,0.3625,0.4023,0.4506,0.5148,0.5709,0.6131,0.6635,0.7034,0.7293,0.7522,0.7635,0.7771,0.7957,0.8098,0.847,0.9725,1.1057,1.2278,1.2973,1.3346,1.3572,1.3805,1.4026,1.4525,1.4782,1.5095,1.5459,1.5878,1.6464,1.6987,1.7271,1.7561,1.7996,1.8369,1.9007,1.9573,2.0119,2.0515,2.0904,2.1205,2.1282,2.1359,2.1589,2.1731,2.1731,2.1731,2.1807,2.1807,2.1807,2.1807,2.1807,2.1807,2.1807,2.1807,2.1807,2.1807,2.1963,2.1983,2.2015,2.2138,2.2436,2.2377,2.2229,2.2332,2.2372,2.2352,2.2453,2.2676,2.3012,2.2777,2.2351,2.2321,2.2342,2.2392,2.2524,2.2484,2.2991,2.3738,2.4098,2.417,2.4556,2.5273,2.5513,2.5306,2.5552,2.5924,2.6146,2.6396,2.6561,2.6644,2.682,2.682,2.6644,2.6644,2.6985,2.7238,2.7429,2.7277,2.6934,2.7155,2.7442,2.7363,2.7069,2.6749,-0.0979,-0.0675,0.0289,0.0999,0.1423,0.2106,0.2612,0.2904,0.3224,0.3471,0.3563,0.3761,0.4159,0.473,0.5335,0.5931,0.6447,0.6869,0.7194,0.7451,0.7642,0.7818,0.791,0.801,0.83,0.9018,1.0238,1.132,1.2418,1.3039,1.3492,1.3717,1.3935,1.408,1.4382,1.4749,1.5028,1.5338,1.5772,1.6355,1.6757,1.724,1.7536,1.7872,1.8213,1.8824,1.941,2.0017,2.0516,2.0887,2.1375,2.1512,2.1578,2.1731,2.1731,2.1731,2.1731,2.1807,2.1807,2.1807,2.1807,2.1807,2.1807,2.1807,2.1807,2.1883,2.1883,2.1818,2.1838,2.189,2.2014,2.1989,2.1891,2.1957,2.2172,2.2318,2.2412,2.2605,2.292,2.3298,2.2909,2.2351,2.2249,2.2169,2.2208,2.2339,2.2639,2.3244,2.3722,2.396,2.4032,2.4443,2.5098,2.5242,2.5168,2.5541,2.6019,2.6229,2.6479,2.6561,2.6644,2.6727,2.6727,2.6727,2.682,2.7149,2.7392,2.7644,2.7318,2.7147,2.7645,2.7901,2.7228,2.7073,2.7028,-0.087,-0.0449,-0.0,0.0747,0.1641,0.2034,0.2525,0.2997,0.3223,0.3403,0.373,0.4097,0.4495,0.5024,0.5369,0.5944,0.6668,0.7098,0.7305,0.7546,0.7836,0.8046,0.8206,0.8363,0.8822,0.9582,1.0592,1.1512,1.2339,1.3078,1.363,1.376,1.4194,1.4346,1.4441,1.4704,1.5033,1.5275,1.5715,1.6235,1.6763,1.7204,1.7685,1.8211,1.8845,1.9174,1.9655,2.0398,2.0757,2.1022,2.1374,2.1603,2.1731,2.1807,2.1807,2.1883,2.1807,2.1807,2.1883,2.1883,2.1883,2.1873,2.1949,2.2035,2.2025,2.209,2.2025,2.1949,2.197,2.1818,2.1901,2.1901,2.1845,2.2226,2.2525,2.2693,2.2828,2.3074,2.3464,2.3598,2.3454,2.3114,2.2919,2.2816,2.26,2.2639,2.2559,2.3139,2.3751,2.3863,2.3886,2.4415,2.5038,2.5225,2.54,2.5705,2.6119,2.6351,2.6561,2.6644,2.6644,2.6644,2.6644,2.6809,2.7044,2.7371,2.7567,2.7775,2.7765,2.7648,2.8184,2.8339,2.7569,2.7133,2.7144]},{"header":{"parameterUnit":"m.s-1","parameterCategory":1,"la1":31.0,"la2":29.5877,"lo1":-88.7671,"lo2":-86.6584,"dy":0.0162,"dx":0.0185,"nx":115,"ny":88,"refTime":"2023-04-16T06:00:00:Z","depth":0,"parameterNumber":3,"parameterNumberName":"V-component_of_WINDS"},"data":[0.0,0.0,0.0,0.0,0.0,0.0,0.0,0.0,0.0,0.0,0.0,0.0,0.0,0.0,0.0,0.0,0.0,0.0,0.0,0.0,0.0,0.0,0.0,0.0,0.0,0.0,0.0,0.0,0.0,0.0,0.0,0.0,0.0,0.0,0.0,0.0,0.0,0.0,0.0,0.0,0.0,0.0,0.0,0.0,0.0,0.0,0.0,0.0,0.0,0.0,0.0,0.0,0.0,0.0,0.0,0.0,0.0,0.0,0.0,0.0,0.0,0.0,0.0,0.0,0.0,0.0,0.0,0.0,0.0,0.0,0.0,0.0,0.0,0.0,0.0,0.0,0.0,0.0,0.0,0.0,0.0,0.0,0.0,0.0,0.0,0.0,0.0,0.0,0.0,0.0,0.0,0.0,0.0,0.0,0.0,0.0,0.0,0.0,0.0,0.0,0.0,0.0,0.0,0.0,0.0,0.0,0.0,0.0,0.0,0.0,0.0,0.0,0.0,0.0,0.0,0.0,0.0,0.0,0.0,0.0,0.0,0.0,0.0,0.0,0.0,0.0,0.0,0.0,0.0,0.0,0.0,0.0,0.0,0.0,0.0,0.0,0.0,0.0,0.0,0.0,0.0,0.0,0.0,0.0,0.0,0.0,0.0,0.0,0.0,0.0,0.0,0.0,0.0,0.0,0.0,0.0,0.0,0.0,0.0,0.0,0.0,0.0,0.0,0.0,0.0,0.0,0.0,0.0,0.0,0.0,0.0,0.0,0.0,0.0,0.0,0.0,0.0,0.0,0.0,0.0,0.0,0.0,0.0,0.0,0.0,0.0,0.0,0.0,0.0,0.0,0.0,0.0,0.0,0.0,0.0,0.0,0.0,0.0,0.0,0.0,0.0,0.0,0.0,0.0,0.0,0.0,0.0,0.0,0.0,0.0,0.0,0.0,0.0,0.0,0.0,0.0,0.0,0.0,0.0,0.0,0.0,0.0,0.0,0.0,0.0,0.0,0.0,0.0,0.0,0.0,0.0,0.0,0.0,0.0,0.0,0.0,0.0,0.0,0.0,0.0,0.0,0.0,0.0,0.0,0.0,0.0,0.0,0.0,0.0,0.0,0.0,0.0,0.0,0.0,0.0,0.0,0.0,0.0,0.0,0.0,0.0,0.0,0.0,0.0,0.0,0.0,0.0,0.0,0.0,0.0,0.0,0.0,0.0,0.0,0.0,0.0,0.0,0.0,0.0,0.0,0.0,0.0,0.0,0.0,0.0,0.0,0.0,0.0,0.0,0.0,0.0,0.0,0.0,0.0,0.0,0.0,0.0,0.0,0.0,0.0,0.0,0.0,0.0,0.0,0.0,0.0,0.0,0.0,0.0,0.0,0.0,0.0,0.0,0.0,0.0,0.0,0.0,0.0,0.0,0.0,0.0,0.0,0.0,0.0,0.0,0.0,0.0,0.0,0.0,0.0,0.0,0.0,0.0,0.0,0.0,0.0,0.0,0.0,0.0,0.0,0.0,0.0,0.0,0.0,0.0,0.0,0.0,0.0,0.0,0.0,0.0,0.0,0.0,0.0,0.0,0.0,0.0,0.0,0.0,0.0,0.0,0.0,0.0,0.0,0.0,0.0,0.0,0.0,0.0,0.0,0.0,0.0,0.0,0.0,0.0,0.0,0.0,0.0,0.0,0.0,0.0,0.0,0.0,0.0,0.0,0.0,0.0,0.0,0.0,0.0,0.0,0.0,0.0,0.0,0.0,0.0,0.0,0.0,0.0,0.0,0.0,0.0,0.0,0.0,0.0,0.0,0.0,0.0,0.0,0.0,0.0,0.0,0.0,0.0,0.0,0.0,0.0,0.0,0.0,0.0,0.0,0.0,0.0,0.0,0.0,0.0,0.0,0.0,0.0,0.0,0.0,0.0,0.0,0.0,0.0,0.0,0.0,0.0,0.0,0.0,0.0,0.0,0.0,0.0,0.0,0.0,0.0,0.0,0.0,0.0,0.0,0.0,0.0,0.0,0.0,0.0,0.0,0.0,0.0,0.0,0.0,0.0,0.0,0.0,0.0,0.0,0.0,0.0,0.0,0.0,0.0,0.0,0.0,0.0,0.0,0.0,0.0,0.0,0.0,0.0,0.0,0.0,0.0,0.0,0.0,0.0,0.0,0.0,0.0,0.0,0.0,0.0,0.0,0.0,0.0,0.0,0.0,0.0,0.0,0.0,0.0,0.0,0.0,0.0,0.0,0.0,0.0,0.0,0.0,0.0,0.0,0.0,0.0,0.0,0.0,0.0,0.0,0.0,0.0,0.0,0.0,0.0,0.0,0.0,0.0,0.0,0.0,0.0,0.0,0.0,0.0,0.0,0.0,0.0,0.0,0.0,0.0,0.0,0.0,0.0,0.0,0.0,0.0,0.0,0.0,0.0,0.0,0.0,0.0,0.0,0.0,0.0,0.0,0.0,0.0,0.0,0.0,0.0,0.0,0.0,0.0,0.0,0.0,0.0,0.0,0.0,0.0,0.0,0.0,0.0,0.0,0.0,0.0,0.0,0.0,0.0,0.0,0.0,0.0,0.0,0.0,0.0,0.0,0.0,0.0,0.0,0.0,0.0,0.0,0.0,0.0,0.0,0.0,0.0,0.0,0.0,0.0,0.0,0.0,0.0,0.0,0.0,0.0,0.0,0.0,0.0,0.0,0.0,0.0,0.0,0.0,0.0,0.0,0.0,0.0,0.0,0.0,0.0,0.0,0.0,0.0,0.0,0.0,0.0,0.0,0.0,0.0,0.0,0.0,0.0,0.0,0.0,0.0,0.0,0.0,0.0,0.0,0.0,0.0,0.0,0.0,0.0,0.0,0.0,0.0,0.0,0.0,0.0,0.0,0.0,0.0,0.0,0.0,0.0,0.0,0.0,0.0,0.0,0.0,0.0,0.0,0.0,0.0,0.0,0.0,0.0,0.0,0.0,0.0,0.0,0.0,0.0,0.0,0.0,0.0,0.0,0.0,0.0,0.0,0.0,0.0,0.0,0.0,0.0,0.0,0.0,0.0,0.0,0.0,0.0,0.0,0.0,0.0,0.0,0.0,0.0,0.0,0.0,0.0,0.0,0.0,0.0,0.0,0.0,0.0,0.0,0.0,0.0,0.0,0.0,0.0,0.0,0.0,0.0,0.0,0.0,0.0,0.0,0.0,0.0,0.0,0.0,0.0,0.0,0.0,0.0,0.0,0.0,0.0,0.0,0.0,0.0,0.0,0.0,0.0,0.0,0.0,0.0,0.0,0.0,0.0,0.0,0.0,0.0,0.0,0.0,0.0,0.0,0.0,0.0,0.0,0.0,0.0,0.0,0.0,0.0,0.0,0.0,0.0,0.0,0.0,0.0,0.0,0.0,0.0,0.0,0.0,0.0,0.0,0.0,0.0,0.0,0.0,0.0,0.0,0.0,0.0,0.0,0.0,0.0,0.0,0.0,0.0,0.0,0.0,0.0,0.0,0.0,0.0,0.0,0.0,0.0,0.0,0.0,0.0,0.0,0.0,0.0,0.0,0.0,0.0,0.0,0.0,0.0,0.0,0.0,0.0,0.0,0.0,0.0,0.0,0.0,0.0,0.0,0.0,0.0,0.0,0.0,0.0,0.0,0.0,0.0,0.0,0.0,0.0,0.0,0.0,0.0,0.0,0.0,0.0,0.0,0.0,0.0,0.0,0.0,0.0,0.0,0.0,0.0,0.0,0.0,0.0,0.0,0.0,0.0,0.0,0.0,0.0,0.0,0.0,0.0,0.0,0.0,0.0,0.0,0.0,0.0,0.0,0.0,0.0,0.0,0.0,0.0,0.0,0.0,0.0,0.0,0.0,0.0,0.0,0.0,0.0,0.0,0.0,0.0,0.0,0.0,0.0,0.0,0.0,0.0,0.0,0.0,0.0,0.0,0.0,0.0,0.0,0.0,0.0,0.0,0.0,0.0,0.0,0.0,0.0,0.0,0.0,0.0,0.0,0.0,0.0,0.0,0.0,0.0,0.0,0.0,0.0,0.0,0.0,0.0,0.0,0.0,0.0,0.0,0.0,0.0,0.0,0.0,0.0,0.0,0.0,0.0,0.0,0.0,0.0,0.0,0.0,0.0,0.0,0.0,0.0,0.0,0.0,0.0,0.0,0.0,0.0,0.0,0.0,0.0,0.0,0.0,0.0,0.0,0.0,0.0,0.0,0.0,0.0,0.0,0.0,0.0,0.0,0.0,0.0,0.0,0.0,0.0,0.0,0.0,0.0,0.0,0.0,0.0,-0.666,0.0,0.0,0.0,0.0,0.0,0.0,0.0,0.0,0.0,0.0,0.0,0.0,0.0,0.0,0.0,0.0,0.0,0.0,0.0,0.0,0.0,0.0,0.0,0.0,0.0,0.0,0.0,0.0,0.0,0.0,0.0,0.0,0.0,0.0,0.0,0.0,0.0,0.0,0.0,0.0,0.0,0.0,0.0,0.0,0.0,0.0,0.0,0.0,0.0,0.0,0.0,0.0,0.0,0.0,0.0,0.0,0.0,0.0,0.0,0.0,0.0,0.0,0.0,0.0,0.0,0.0,0.0,0.0,0.0,0.0,0.0,0.0,0.0,0.0,0.0,0.0,0.0,0.0,0.0,0.0,0.0,0.0,0.0,0.0,0.0,0.0,0.0,0.0,0.0,0.0,0.0,0.0,0.0,0.0,0.0,0.0,0.0,0.0,0.0,0.0,0.0,0.0,0.0,0.0,0.0,0.0,0.0,0.0,0.0,0.0,-0.7947,-0.8981,-0.7335,-0.6509,-0.6613,0.0,0.0,0.0,0.0,0.0,0.0,0.0,0.0,0.0,0.0,0.0,0.0,0.0,0.0,0.0,0.0,0.0,0.0,0.0,0.0,0.0,0.0,0.0,0.0,0.0,0.0,0.0,0.0,0.0,0.0,0.0,0.0,0.0,0.0,0.0,0.0,0.0,0.0,0.0,0.0,0.0,0.0,0.0,0.0,0.0,0.0,0.0,0.0,0.0,0.0,0.0,0.0,0.0,0.0,0.0,0.0,0.0,0.0,0.0,0.0,0.0,0.0,0.0,0.0,0.0,0.0,0.0,0.0,0.0,0.0,0.0,0.0,0.0,0.0,0.0,0.0,0.0,0.0,0.0,0.0,0.0,0.0,0.0,0.0,0.0,0.0,0.0,0.0,0.0,0.0,0.0,0.0,0.0,0.0,0.0,0.0,0.0,0.0,0.0,0.0,0.0,0.0,0.0,0.0,0.0,0.0,0.0,0.0,0.0,0.0,0.0,0.0,-0.7782,-0.6935,-0.706,0.0,0.0,0.0,0.0,0.0,0.0,0.0,0.0,0.0,0.0,0.0,0.0,0.0,0.0,0.0,0.0,0.0,0.0,0.0,0.0,0.0,0.0,0.0,0.0,0.0,0.0,0.0,0.0,0.0,0.0,0.0,0.0,0.0,0.0,0.0,0.0,0.0,0.0,0.0,0.0,0.0,0.0,0.0,0.0,0.0,0.0,0.0,0.0,0.0,0.0,0.0,0.0,0.0,0.0,0.0,0.0,0.0,0.0,0.0,0.0,0.0,0.0,0.0,0.0,0.0,0.0,0.0,0.0,0.0,0.0,0.0,0.0,0.0,0.0,0.0,0.0,0.0,0.0,0.0,0.0,0.0,0.0,0.0,0.0,0.0,0.0,0.0,0.0,0.0,0.0,0.0,0.0,0.0,0.0,0.0,0.0,0.0,0.0,0.0,0.0,0.0,0.0,0.0,0.0,0.0,0.0,0.0,0.0,0.0,0.0,-0.9421,-1.0776,-1.0527,0.0,-0.8593,0.0,0.0,0.0,0.0,0.0,0.0,0.0,0.0,0.0,0.0,0.0,0.0,0.0,0.0,0.0,0.0,0.0,0.0,0.0,0.0,0.0,0.0,0.0,0.0,0.0,0.0,0.0,0.0,0.0,0.0,0.0,0.0,0.0,0.0,0.0,0.0,0.0,0.0,0.0,0.0,0.0,0.0,0.0,0.0,0.0,0.0,0.0,0.0,0.0,0.0,0.0,0.0,0.0,0.0,0.0,0.0,0.0,0.0,0.0,0.0,0.0,0.0,0.0,0.0,0.0,0.0,0.0,0.0,0.0,0.0,0.0,0.0,0.0,0.0,0.0,0.0,0.0,0.0,0.0,0.0,0.0,0.0,0.0,0.0,0.0,0.0,0.0,0.0,0.0,0.0,0.0,0.0,0.0,0.0,0.0,0.0,0.0,0.0,0.0,0.0,0.0,0.0,0.0,0.0,0.0,0.0,0.0,0.0,0.0,0.0,-0.9205,-1.02,-0.9741,-0.8779,0.0,0.0,0.0,0.0,0.0,0.0,0.0,0.0,0.0,0.0,0.0,0.0,0.0,0.0,0.0,0.0,0.0,0.0,0.0,0.0,0.0,0.0,0.0,0.0,0.0,0.0,0.0,0.0,0.0,0.0,0.0,0.0,0.0,0.0,0.0,0.0,0.0,0.0,0.0,0.0,0.0,0.0,0.0,0.0,0.0,0.0,0.0,0.0,0.0,0.0,0.0,0.0,0.0,0.0,0.0,0.0,0.0,0.0,0.0,0.0,0.0,0.0,0.0,0.0,0.0,0.0,0.0,0.0,0.0,0.0,0.0,0.0,0.0,0.0,0.0,0.0,0.0,0.0,0.0,0.0,0.0,0.0,0.0,0.0,0.0,0.0,0.0,0.0,0.0,0.0,0.0,0.0,0.0,0.0,0.0,0.0,0.0,0.0,0.0,0.0,0.0,0.0,0.0,0.0,0.0,0.0,0.0,0.0,0.0,0.0,-0.9094,-0.9323,-1.0141,-0.9087,-0.7927,-0.6809,0.0,0.0,0.0,0.0,0.0,0.0,0.0,0.0,0.0,0.0,0.0,0.0,0.0,0.0,0.0,0.0,0.0,0.0,0.0,0.0,0.0,0.0,0.0,0.0,0.0,0.0,0.0,0.0,0.0,0.0,0.0,0.0,0.0,0.0,0.0,0.0,0.0,0.0,0.0,0.0,0.0,0.0,0.0,0.0,0.0,0.0,0.0,0.0,0.0,0.0,0.0,0.0,0.0,0.0,0.0,0.0,0.0,0.0,0.0,0.0,0.0,0.0,0.0,0.0,0.0,0.0,0.0,0.0,0.0,0.0,0.0,0.0,0.0,0.0,0.0,0.0,0.0,0.0,0.0,0.0,0.0,0.0,0.0,0.0,0.0,0.0,0.0,0.0,0.0,0.0,0.0,0.0,0.0,0.0,0.0,0.0,0.0,0.0,0.0,0.0,0.0,0.0,0.0,0.0,0.0,0.0,0.0,0.0,-1.1283,-1.023,-1.0259,-1.1448,-0.9474,-0.8296,0.0,0.0,0.0,0.0,0.0,0.0,0.0,0.0,0.0,0.0,0.0,0.0,0.0,0.0,0.0,0.0,0.0,0.0,0.0,0.0,0.0,0.0,0.0,0.0,0.0,0.0,0.0,0.0,0.0,0.0,0.0,0.0,0.0,0.0,0.0,0.0,0.0,0.0,0.0,0.0,0.0,0.0,0.0,0.0,0.0,0.0,0.0,0.0,0.0,0.0,0.0,0.0,0.0,0.0,0.0,0.0,0.0,0.0,0.0,0.0,0.0,0.0,0.0,0.0,0.0,0.0,0.0,0.0,0.0,0.0,0.0,0.0,0.0,0.0,0.0,0.0,0.0,0.0,0.0,0.0,0.0,0.0,0.0,0.0,0.0,0.0,0.0,0.0,0.0,0.0,0.0,0.0,0.0,0.0,0.0,0.0,0.0,0.0,0.0,0.0,0.0,0.0,0.0,0.0,0.0,0.0,0.0,0.0,0.0,-0.9444,-0.9457,-0.9605,-0.9922,-0.9249,-0.8641,0.0,0.0,0.0,0.0,0.0,0.0,0.0,0.0,0.0,0.0,0.0,0.0,0.0,0.0,0.0,0.0,0.0,0.0,0.0,0.0,0.0,0.0,0.0,0.0,0.0,0.0,0.0,0.0,0.0,0.0,0.0,0.0,0.0,0.0,0.0,0.0,0.0,0.0,0.0,0.0,0.0,0.0,0.0,0.0,0.0,0.0,0.0,0.0,0.0,0.0,0.0,0.0,0.0,0.0,0.0,0.0,0.0,0.0,0.0,0.0,0.0,0.0,0.0,0.0,0.0,0.0,0.0,0.0,0.0,0.0,0.0,0.0,0.0,0.0,0.0,0.0,0.0,0.0,0.0,0.0,0.0,0.0,0.0,0.0,0.0,0.0,0.0,0.0,0.0,0.0,0.0,0.0,0.0,0.0,0.0,0.0,0.0,0.0,0.0,0.0,0.0,0.0,0.0,0.0,0.0,0.0,0.0,0.0,0.0,-0.8682,0.0,-0.9249,-0.9065,-0.8895,-0.8435,0.0,0.0,0.0,0.0,0.0,0.0,0.0,0.0,0.0,0.0,0.0,0.0,0.0,0.0,0.0,0.0,0.0,0.0,0.0,0.0,0.0,0.0,0.0,0.0,0.0,0.0,0.0,0.0,0.0,0.0,0.0,0.0,0.0,0.0,0.0,0.0,0.0,0.0,0.0,0.0,0.0,0.0,0.0,0.0,0.0,0.0,0.0,0.0,0.0,0.0,0.0,0.0,0.0,0.0,0.0,0.0,0.0,0.0,0.0,0.0,0.0,0.0,0.0,0.0,0.0,0.0,0.0,0.0,0.0,0.0,0.0,0.0,0.0,0.0,0.0,0.0,0.0,0.0,0.0,0.0,0.0,0.0,0.0,0.0,0.0,0.0,0.0,0.0,0.0,0.0,0.0,0.0,0.0,0.0,0.0,0.0,0.0,0.0,0.0,0.0,0.0,0.0,0.0,0.0,0.0,0.0,0.0,0.0,-0.8684,-0.9422,-0.9399,-0.9342,-0.9219,-0.8467,-0.7672,0.0,0.0,0.0,0.0,0.0,0.0,0.0,0.0,0.0,0.0,0.0,0.0,0.0,0.0,0.0,0.0,0.0,0.0,0.0,0.0,0.0,0.0,0.0,0.0,0.0,0.0,0.0,0.0,0.0,0.0,0.0,0.0,0.0,0.0,0.0,0.0,0.0,0.0,0.0,0.0,0.0,0.0,0.0,0.0,0.0,0.0,0.0,0.0,0.0,0.0,0.0,0.0,0.0,0.0,0.0,0.0,0.0,0.0,0.0,0.0,0.0,0.0,0.0,0.0,0.0,0.0,0.0,0.0,0.0,0.0,0.0,0.0,0.0,0.0,0.0,0.0,0.0,0.0,0.0,0.0,0.0,0.0,0.0,0.0,0.0,0.0,0.0,0.0,0.0,0.0,0.0,0.0,0.0,0.0,0.0,0.0,0.0,0.0,0.0,0.0,0.0,0.0,0.0,0.0,0.0,0.0,0.0,0.0,0.0,-0.8477,-0.882,-0.9476,-1.0389,-0.874,-0.8439,0.0,0.0,0.0,0.0,0.0,0.0,0.0,0.0,0.0,0.0,0.0,0.0,0.0,0.0,0.0,0.0,0.0,0.0,0.0,0.0,0.0,0.0,0.0,0.0,0.0,0.0,0.0,0.0,0.0,0.0,0.0,0.0,0.0,0.0,0.0,0.0,0.0,0.0,0.0,0.0,0.0,0.0,0.0,0.0,0.0,0.0,0.0,0.0,0.0,0.0,0.0,0.0,0.0,0.0,0.0,0.0,0.0,0.0,0.0,0.0,0.0,0.0,0.0,0.0,0.0,0.0,0.0,0.0,0.0,0.0,0.0,0.0,0.0,0.0,0.0,0.0,0.0,0.0,0.0,0.0,0.0,0.0,0.0,0.0,0.0,0.0,0.0,0.0,0.0,0.0,0.0,0.0,0.0,0.0,0.0,0.0,0.0,0.0,0.0,0.0,0.0,0.0,0.0,0.0,0.0,0.0,0.0,0.0,0.0,-0.8571,-0.8865,-0.9372,-1.0025,-0.8621,-0.8546,-0.9932,0.0,0.0,0.0,0.0,0.0,0.0,0.0,0.0,0.0,0.0,0.0,0.0,0.0,0.0,0.0,0.0,0.0,0.0,0.0,0.0,0.0,0.0,0.0,0.0,0.0,0.0,0.0,0.0,0.0,0.0,0.0,0.0,0.0,0.0,0.0,0.0,0.0,0.0,0.0,0.0,0.0,0.0,0.0,0.0,0.0,0.0,0.0,0.0,0.0,0.0,0.0,0.0,0.0,0.0,0.0,0.0,0.0,0.0,0.0,0.0,0.0,0.0,0.0,0.0,0.0,0.0,0.0,0.0,0.0,0.0,0.0,0.0,0.0,0.0,0.0,0.0,0.0,0.0,0.0,0.0,0.0,0.0,0.0,0.0,0.0,0.0,0.0,0.0,0.0,0.0,0.0,0.0,0.0,0.0,0.0,0.0,0.0,0.0,0.0,0.0,0.0,0.0,0.0,0.0,0.0,0.0,0.0,0.0,-0.943,-0.9585,-0.9297,-0.8514,-0.8285,-0.8154,0.0,0.0,0.0,0.0,0.0,0.0,0.0,0.0,0.0,0.0,0.0,0.0,0.0,0.0,0.0,0.0,0.0,0.0,0.0,0.0,0.0,0.0,0.0,0.0,0.0,0.0,0.0,0.0,0.0,0.0,0.0,0.0,0.0,0.0,0.0,0.0,0.0,0.0,0.0,0.0,0.0,0.0,0.0,0.0,0.0,0.0,0.0,0.0,0.0,0.0,0.0,0.0,0.0,0.0,0.0,0.0,0.0,0.0,0.0,0.0,0.0,0.0,0.0,0.0,0.0,0.0,0.0,0.0,0.0,0.0,0.0,0.0,0.0,0.0,0.0,0.0,0.0,0.0,0.0,0.0,0.0,0.0,0.0,0.0,0.0,0.0,0.0,0.0,0.0,0.0,0.0,0.0,0.0,0.0,0.0,0.0,0.0,0.0,0.0,0.0,0.0,0.0,0.0,0.0,0.0,0.0,0.0,0.0,0.0,-0.9899,-1.088,-1.0927,-0.9891,-0.9294,-0.8982,0.0,0.0,0.0,0.0,0.0,0.0,0.0,0.0,0.0,0.0,0.0,0.0,0.0,0.0,0.0,0.0,0.0,0.0,0.0,0.0,0.0,0.0,0.0,0.0,0.0,0.0,0.0,0.0,0.0,0.0,0.0,0.0,0.0,0.0,0.0,0.0,0.0,0.0,0.0,0.0,0.0,0.0,0.0,0.0,0.0,0.0,0.0,0.0,0.0,0.0,0.0,0.0,0.0,0.0,0.0,0.0,0.0,0.0,0.0,0.0,0.0,0.0,0.0,0.0,0.0,0.0,0.0,0.0,0.0,0.0,0.0,0.0,0.0,0.0,0.0,0.0,0.0,0.0,0.0,0.0,0.0,0.0,0.0,0.0,0.0,0.0,0.0,0.0,0.0,0.0,0.0,0.0,0.0,0.0,0.0,0.0,0.0,0.0,0.0,0.0,0.0,0.0,0.0,0.0,0.0,0.0,0.0,0.0,-1.1116,-1.1391,-1.2278,-1.2086,-1.0718,-1.0336,-0.9796,0.0,0.0,0.0,0.0,0.0,0.0,0.0,0.0,0.0,0.0,0.0,0.0,0.0,0.0,0.0,0.0,0.0,0.0,0.0,0.0,0.0,0.0,0.0,0.0,0.0,0.0,0.0,0.0,0.0,0.0,0.0,0.0,0.0,0.0,0.0,0.0,0.0,0.0,0.0,0.0,0.0,0.0,0.0,0.0,0.0,0.0,0.0,0.0,0.0,0.0,0.0,0.0,0.0,0.0,0.0,0.0,0.0,0.0,0.0,0.0,0.0,0.0,0.0,0.0,0.0,0.0,0.0,0.0,0.0,0.0,0.0,0.0,0.0,0.0,0.0,0.0,0.0,0.0,0.0,0.0,0.0,0.0,0.0,0.0,0.0,0.0,0.0,0.0,0.0,0.0,0.0,0.0,0.0,0.0,0.0,0.0,0.0,0.0,0.0,0.0,0.0,0.0,0.0,0.0,0.0,0.0,0.0,0.0,-1.1848,-1.3177,-1.3476,-1.2807,-1.1217,-1.1221,-1.0415,0.0,0.0,0.0,0.0,0.0,0.0,0.0,0.0,0.0,0.0,0.0,0.0,0.0,0.0,0.0,0.0,0.0,0.0,0.0,0.0,0.0,0.0,0.0,0.0,0.0,0.0,0.0,0.0,0.0,0.0,0.0,0.0,0.0,0.0,0.0,0.0,0.0,0.0,0.0,0.0,0.0,0.0,0.0,0.0,0.0,0.0,0.0,0.0,0.0,0.0,0.0,0.0,0.0,0.0,0.0,0.0,0.0,0.0,0.0,0.0,0.0,0.0,0.0,0.0,0.0,0.0,0.0,0.0,0.0,0.0,0.0,0.0,0.0,0.0,0.0,0.0,0.0,0.0,0.0,0.0,0.0,0.0,0.0,0.0,0.0,0.0,0.0,0.0,0.0,0.0,0.0,0.0,0.0,0.0,0.0,0.0,0.0,0.0,0.0,0.0,0.0,0.0,0.0,0.0,0.0,0.0,0.0,0.0,-1.1684,-1.2654,-1.3265,-1.285,-1.1302,-1.1133,-1.0001,0.0,0.0,0.0,0.0,0.0,0.0,0.0,0.0,0.0,0.0,0.0,0.0,0.0,0.0,0.0,0.0,0.0,0.0,0.0,0.0,0.0,0.0,0.0,0.0,0.0,0.0,0.0,0.0,0.0,0.0,0.0,0.0,0.0,0.0,0.0,0.0,0.0,0.0,0.0,0.0,0.0,0.0,0.0,0.0,0.0,0.0,0.0,0.0,-0.5919,0.0,0.0,0.0,0.0,0.0,0.0,0.0,0.0,0.0,0.0,0.0,0.0,0.0,0.0,0.0,0.0,0.0,0.0,0.0,0.0,0.0,0.0,0.0,0.0,0.0,0.0,0.0,0.0,0.0,0.0,0.0,0.0,0.0,0.0,0.0,0.0,0.0,0.0,0.0,0.0,0.0,0.0,0.0,0.0,0.0,0.0,0.0,0.0,0.0,0.0,0.0,0.0,0.0,0.0,0.0,0.0,0.0,0.0,0.0,-1.1972,-1.3456,-1.3589,-1.3037,-1.1875,-1.1341,-1.0129,0.0,0.0,0.0,0.0,0.0,0.0,0.0,0.0,0.0,0.0,0.0,0.0,0.0,0.0,0.0,0.0,0.0,0.0,0.0,0.0,0.0,0.0,0.0,0.0,0.0,0.0,0.0,0.0,0.0,0.0,0.0,0.0,0.0,0.0,0.0,0.0,0.0,0.0,0.0,0.0,0.0,0.0,0.0,0.0,0.0,0.0,0.0,0.0,0.0,0.0,0.0,0.0,0.0,0.0,0.0,0.0,0.0,0.0,0.0,0.0,0.0,0.0,0.0,0.0,0.0,0.0,0.0,0.0,0.0,0.0,0.0,0.0,0.0,0.0,0.0,0.0,0.0,0.0,0.0,0.0,0.0,0.0,0.0,0.0,0.0,0.0,0.0,0.0,0.0,0.0,0.0,0.0,0.0,0.0,0.0,0.0,0.0,0.0,0.0,0.0,0.0,0.0,0.0,0.0,0.0,0.0,0.0,-1.1206,-1.2295,-1.4401,-1.3934,-1.321,-1.2425,-1.1647,-1.0538,-0.9114,0.0,0.0,0.0,0.0,0.0,0.0,0.0,0.0,0.0,0.0,0.0,0.0,0.0,0.0,0.0,0.0,0.0,0.0,0.0,0.0,0.0,0.0,0.0,0.0,0.0,0.0,0.0,0.0,0.0,0.0,0.0,0.0,0.0,0.0,0.0,0.0,0.0,0.0,-0.6774,-0.687,0.0,0.0,0.0,0.0,0.0,0.0,0.0,0.0,-0.5877,0.0,0.0,0.0,0.0,0.0,0.0,0.0,0.0,0.0,0.0,0.0,0.0,0.0,0.0,0.0,0.0,0.0,0.0,0.0,0.0,0.0,0.0,0.0,0.0,0.0,0.0,0.0,0.0,0.0,0.0,0.0,0.0,0.0,0.0,0.0,0.0,0.0,0.0,0.0,0.0,0.0,0.0,0.0,0.0,0.0,0.0,0.0,0.0,0.0,0.0,0.0,0.0,0.0,0.0,0.0,0.0,-1.1964,-1.1477,-1.2087,-1.3809,-1.3707,-1.321,-1.2407,-1.1689,-1.1049,-1.0541,0.0,0.0,0.0,0.0,0.0,0.0,0.0,0.0,0.0,0.0,0.0,0.0,0.0,0.0,0.0,0.0,0.0,0.0,0.0,0.0,0.0,0.0,0.0,0.0,0.0,0.0,0.0,0.0,0.0,0.0,0.0,0.0,0.0,0.0,0.0,0.0,0.0,0.0,0.0,-0.7997,-0.8165,0.0,0.0,0.0,0.0,0.0,0.0,0.0,0.0,-0.5837,0.0,0.0,0.0,0.0,0.0,0.0,0.0,0.0,0.0,0.0,0.0,0.0,0.0,0.0,0.0,0.0,0.0,0.0,0.0,0.0,0.0,0.0,0.0,0.0,0.0,0.0,0.0,0.0,0.0,0.0,0.0,0.0,0.0,0.0,0.0,0.0,0.0,0.0,0.0,0.0,0.0,0.0,0.0,0.0,0.0,0.0,0.0,0.0,0.0,0.0,0.0,0.0,0.0,0.0,0.0,-1.2048,-1.1531,-1.2004,-1.3586,-1.3624,-1.3041,-1.1875,-1.1479,-1.1196,0.0,0.0,0.0,0.0,0.0,0.0,0.0,0.0,0.0,0.0,0.0,0.0,0.0,0.0,0.0,0.0,0.0,0.0,0.0,0.0,0.0,0.0,0.0,0.0,0.0,0.0,0.0,0.0,0.0,0.0,0.0,0.0,0.0,0.0,0.0,0.0,0.0,0.0,0.0,0.0,-0.7361,-0.7604,-0.6611,0.0,0.0,0.0,0.0,0.0,0.0,-0.6394,-0.6329,0.0,0.0,0.0,0.0,0.0,0.0,0.0,0.0,0.0,0.0,0.0,0.0,0.0,0.0,0.0,0.0,0.0,0.0,0.0,0.0,0.0,0.0,0.0,0.0,0.0,0.0,0.0,0.0,0.0,0.0,0.0,0.0,0.0,0.0,0.0,0.0,0.0,0.0,0.0,0.0,0.0,0.0,0.0,0.0,0.0,0.0,0.0,0.0,0.0,0.0,0.0,0.0,0.0,0.0,0.0,-1.163,-1.1395,-1.1918,-1.3296,-1.3506,-1.294,-1.1596,-1.1393,-1.1309,0.0,0.0,0.0,0.0,0.0,0.0,0.0,0.0,0.0,0.0,0.0,0.0,0.0,0.0,0.0,0.0,0.0,0.0,0.0,0.0,0.0,0.0,0.0,0.0,0.0,0.0,0.0,0.0,0.0,0.0,0.0,0.0,0.0,0.0,0.0,0.0,0.0,0.0,0.0,0.0,0.0,-0.7486,-0.6773,-0.7091,0.0,0.0,0.0,0.0,-0.6909,-0.7064,0.0,0.0,0.0,0.0,0.0,0.0,0.0,0.0,0.0,0.0,0.0,0.0,0.0,0.0,0.0,0.0,0.0,0.0,0.0,0.0,0.0,0.0,0.0,0.0,0.0,0.0,0.0,0.0,0.0,0.0,0.0,0.0,0.0,0.0,0.0,0.0,0.0,0.0,0.0,0.0,0.0,0.0,0.0,0.0,0.0,0.0,0.0,0.0,0.0,0.0,0.0,0.0,0.0,0.0,0.0,0.0,-1.0155,-1.0913,-1.174,-1.2603,-1.3261,-1.3192,-1.2379,-1.1686,-1.1613,0.0,0.0,0.0,0.0,0.0,0.0,0.0,0.0,0.0,0.0,0.0,0.0,0.0,0.0,0.0,0.0,0.0,0.0,0.0,0.0,0.0,0.0,0.0,0.0,0.0,0.0,0.0,0.0,0.0,0.0,0.0,0.0,0.0,0.0,0.0,0.0,0.0,0.0,0.0,0.0,0.0,-0.9952,-0.8136,-0.8386,-0.8516,0.0,0.0,-0.7332,-0.7556,-0.7845,0.0,0.0,0.0,0.0,0.0,0.0,0.0,0.0,0.0,0.0,0.0,0.0,0.0,0.0,0.0,0.0,0.0,0.0,0.0,0.0,0.0,0.0,0.0,0.0,0.0,0.0,0.0,0.0,0.0,0.0,0.0,0.0,0.0,0.0,0.0,0.0,0.0,0.0,0.0,0.0,0.0,0.0,0.0,0.0,0.0,0.0,0.0,0.0,0.0,0.0,0.0,0.0,0.0,0.0,0.0,-1.0279,-1.1793,-1.1503,-1.1878,-1.307,-1.2972,-1.2594,-1.1892,-1.1054,-1.0927,0.0,0.0,0.0,0.0,0.0,0.0,0.0,0.0,0.0,0.0,0.0,0.0,0.0,0.0,0.0,0.0,0.0,0.0,0.0,0.0,0.0,0.0,0.0,0.0,0.0,0.0,0.0,0.0,0.0,0.0,0.0,0.0,0.0,0.0,0.0,0.0,0.0,0.0,0.0,0.0,0.0,0.0,-0.8712,-0.8809,0.0,0.0,0.0,-0.8168,-0.8612,0.0,0.0,0.0,0.0,0.0,0.0,0.0,0.0,0.0,0.0,0.0,0.0,0.0,0.0,0.0,0.0,0.0,0.0,0.0,0.0,0.0,0.0,0.0,0.0,0.0,0.0,0.0,0.0,0.0,0.0,0.0,0.0,0.0,0.0,0.0,0.0,0.0,0.0,0.0,0.0,0.0,0.0,0.0,0.0,0.0,0.0,0.0,0.0,0.0,0.0,0.0,0.0,0.0,0.0,0.0,0.0,0.0,-1.2786,-1.1838,-1.1975,-1.326,-1.2921,-1.2301,-1.1425,-1.0758,0.0,0.0,0.0,0.0,0.0,0.0,0.0,0.0,0.0,0.0,0.0,0.0,0.0,0.0,0.0,0.0,0.0,0.0,0.0,0.0,0.0,0.0,0.0,0.0,0.0,0.0,0.0,-0.8087,0.0,0.0,0.0,0.0,0.0,0.0,0.0,0.0,0.0,0.0,0.0,0.0,0.0,0.0,-0.8816,-0.9008,-0.9211,-0.9404,0.0,0.0,-0.9053,-0.9317,-0.9132,-0.8903,0.0,0.0,0.0,0.0,0.0,0.0,0.0,0.0,0.0,0.0,0.0,0.0,0.0,0.0,0.0,0.0,0.0,0.0,0.0,0.0,0.0,0.0,0.0,0.0,0.0,0.0,0.0,0.0,0.0,0.0,0.0,0.0,0.0,0.0,0.0,0.0,0.0,0.0,0.0,0.0,0.0,0.0,0.0,0.0,0.0,0.0,0.0,0.0,0.0,0.0,0.0,0.0,0.0,0.0,0.0,-1.1318,-1.1393,-1.1775,-1.2552,-1.3208,-1.2845,-1.1447,-1.13,-1.1145,0.0,0.0,0.0,0.0,0.0,0.0,0.0,0.0,0.0,0.0,0.0,0.0,0.0,0.0,0.0,0.0,0.0,0.0,0.0,0.0,0.0,0.0,0.0,0.0,0.0,0.0,0.0,0.0,0.0,0.0,0.0,0.0,0.0,0.0,0.0,0.0,0.0,0.0,0.0,0.0,0.0,-1.0194,-0.8987,-0.9776,-1.0247,0.0,0.0,-0.9824,-0.9316,-0.9908,-1.0157,-0.9319,0.0,0.0,0.0,0.0,0.0,0.0,0.0,0.0,0.0,0.0,0.0,0.0,0.0,0.0,0.0,0.0,0.0,0.0,0.0,0.0,0.0,0.0,0.0,0.0,0.0,0.0,0.0,0.0,0.0,0.0,0.0,0.0,0.0,0.0,0.0,0.0,0.0,0.0,0.0,0.0,0.0,0.0,0.0,0.0,0.0,0.0,0.0,0.0,0.0,0.0,0.0,0.0,0.0,-1.109,-1.1848,-1.1606,-1.1811,-1.248,-1.2823,-1.2702,-1.2085,-1.1592,-1.14,0.0,0.0,0.0,0.0,0.0,0.0,0.0,0.0,0.0,0.0,0.0,0.0,0.0,0.0,0.0,0.0,0.0,0.0,0.0,0.0,0.0,0.0,0.0,0.0,0.0,0.0,0.0,0.0,-0.7193,-0.696,-0.7336,0.0,0.0,0.0,0.0,0.0,0.0,0.0,0.0,0.0,0.0,-1.0418,-1.0764,-1.1036,0.0,0.0,-1.1451,-1.1132,-1.0795,-1.0724,-1.0521,-0.9841,-0.9881,0.0,0.0,0.0,0.0,0.0,0.0,0.0,0.0,0.0,0.0,0.0,0.0,0.0,0.0,0.0,0.0,0.0,0.0,0.0,0.0,0.0,0.0,0.0,0.0,0.0,0.0,0.0,0.0,0.0,0.0,0.0,0.0,0.0,0.0,0.0,0.0,0.0,0.0,0.0,0.0,0.0,0.0,0.0,0.0,0.0,0.0,0.0,0.0,0.0,0.0,0.0,0.0,-1.1632,-1.2616,-1.1865,-1.1942,-1.2825,-1.2904,-1.28,-1.2529,-1.1982,-1.1849,0.0,0.0,0.0,0.0,0.0,0.0,0.0,0.0,0.0,0.0,0.0,0.0,0.0,0.0,0.0,0.0,0.0,0.0,0.0,0.0,0.0,0.0,0.0,0.0,0.0,0.0,0.0,0.0,-0.772,-0.743,-0.7693,0.0,0.0,0.0,0.0,0.0,0.0,0.0,0.0,0.0,0.0,-1.0678,-1.1342,-1.1477,-1.1746,-1.2292,-1.1984,-1.1622,-1.1479,-1.1089,-1.0755,-1.0603,0.0,0.0,0.0,0.0,0.0,0.0,0.0,0.0,0.0,0.0,0.0,0.0,0.0,0.0,0.0,0.0,0.0,0.0,0.0,0.0,0.0,0.0,0.0,0.0,0.0,0.0,0.0,0.0,0.0,0.0,-1.1588,0.0,0.0,0.0,0.0,0.0,0.0,0.0,0.0,0.0,0.0,0.0,0.0,0.0,0.0,0.0,0.0,0.0,0.0,0.0,0.0,0.0,0.0,-1.1902,-1.3312,-1.2064,-1.2141,-1.3598,-1.3667,-1.3338,-1.2693,-1.2589,-1.2503,-1.2341,0.0,0.0,0.0,0.0,0.0,0.0,0.0,0.0,0.0,0.0,0.0,0.0,0.0,0.0,0.0,0.0,0.0,0.0,0.0,0.0,0.0,0.0,0.0,0.0,0.0,0.0,-0.9853,-0.9546,-0.8911,0.0,0.0,0.0,0.0,0.0,0.0,0.0,0.0,0.0,0.0,-1.0737,-1.1094,-1.017,-1.0808,-1.1303,-1.0853,-1.0891,-1.0945,-1.09,-1.0845,-1.1006,0.0,0.0,0.0,0.0,0.0,0.0,0.0,0.0,0.0,0.0,0.0,0.0,0.0,0.0,0.0,0.0,0.0,0.0,0.0,0.0,0.0,0.0,0.0,0.0,0.0,0.0,0.0,-1.011,-1.0094,0.0,0.0,0.0,0.0,0.0,0.0,0.0,0.0,0.0,0.0,0.0,-1.2025,-1.1937,0.0,0.0,0.0,0.0,0.0,0.0,0.0,0.0,0.0,0.0,0.0,0.0,-1.1946,-1.3341,-1.2137,-1.2196,-1.3659,-1.3706,-1.4059,-1.4819,-1.3913,-1.332,-1.3099,0.0,0.0,0.0,0.0,0.0,0.0,0.0,0.0,0.0,0.0,0.0,0.0,0.0,0.0,0.0,0.0,0.0,0.0,0.0,0.0,0.0,0.0,0.0,0.0,0.0,-0.9514,0.0,0.0,0.0,0.0,0.0,0.0,0.0,0.0,0.0,0.0,0.0,-1.001,-1.0515,-1.1003,-1.1354,-1.1533,-1.2203,-1.2764,0.0,0.0,0.0,0.0,0.0,0.0,0.0,0.0,0.0,0.0,0.0,0.0,0.0,0.0,-1.1807,-1.1061,-1.0838,-1.0766,-1.0777,0.0,0.0,0.0,0.0,0.0,0.0,0.0,0.0,0.0,0.0,0.0,0.0,0.0,0.0,-0.9842,0.0,-1.0327,0.0,0.0,0.0,0.0,0.0,0.0,0.0,0.0,-1.2192,-1.2097,-1.2068,-1.1977,-1.1927,0.0,-1.2515,-1.2651,0.0,0.0,0.0,0.0,0.0,0.0,0.0,0.0,-1.2331,-1.2959,-1.254,-1.2766,-1.369,-1.4011,-1.4506,-1.5185,-1.4313,-1.3731,-1.357,-1.3572,-1.3476,0.0,0.0,0.0,0.0,0.0,0.0,0.0,0.0,0.0,0.0,0.0,0.0,0.0,0.0,0.0,0.0,0.0,0.0,0.0,0.0,0.0,0.0,0.0,-0.9886,0.0,0.0,0.0,0.0,0.0,0.0,0.0,0.0,0.0,-0.9938,-1.0135,-1.06,-1.1224,-1.1658,-1.1994,-1.2245,0.0,0.0,0.0,0.0,0.0,0.0,0.0,-1.1804,-1.1821,-1.1957,-1.229,-1.291,-1.3106,-1.3337,-1.3738,0.0,0.0,-1.164,-1.1376,-1.1343,-1.131,-1.1534,-1.1768,-1.1756,-1.2025,-1.2306,0.0,0.0,0.0,0.0,0.0,0.0,0.0,0.0,-0.9394,-1.0614,0.0,-1.0448,0.0,0.0,0.0,0.0,0.0,-1.3883,0.0,0.0,-1.1144,-1.0743,-1.0802,-1.077,-1.0653,-1.0728,-1.2687,-1.3283,-1.2554,-1.169,0.0,0.0,0.0,0.0,0.0,0.0,-1.3079,-1.2368,-1.3313,-1.3861,-1.3946,-1.4607,-1.4625,-1.3929,-1.3896,-1.3896,-1.38,-1.3837,-1.3771,-1.3691,-1.4212,0.0,0.0,0.0,0.0,0.0,0.0,0.0,0.0,0.0,0.0,0.0,0.0,0.0,0.0,0.0,0.0,0.0,0.0,0.0,0.0,-1.0297,0.0,0.0,0.0,0.0,0.0,0.0,0.0,0.0,0.0,0.0,-1.0446,-1.1164,-1.1878,-1.1894,0.0,0.0,0.0,0.0,-1.264,-1.149,-1.1494,-1.1582,-1.1189,-1.1582,-1.2284,-1.3347,0.0,0.0,-1.5106,-1.4814,-1.444,-1.4489,-1.4387,-1.3932,-1.2937,-1.2614,-1.2554,-1.259,-1.2496,-1.2389,-1.2389,-1.2568,-1.2543,-1.2438,0.0,0.0,0.0,0.0,-1.2078,-1.146,-1.0489,-0.9909,-1.0363,-1.1433,-1.0246,0.0,0.0,0.0,0.0,0.0,0.0,-1.3833,-1.2884,-1.3154,-1.3026,-1.2508,-1.3036,-1.2977,-1.2474,-1.3048,-1.2877,-1.2068,-1.2299,-1.3054,-1.4264,0.0,0.0,0.0,0.0,-1.4066,-1.4893,-1.4814,-1.4982,-1.5491,-1.5276,-1.5079,-1.4879,-1.5396,-1.5664,-1.5713,-1.5697,-1.5616,-1.5468,-1.5592,0.0,0.0,0.0,0.0,0.0,0.0,0.0,0.0,0.0,0.0,0.0,0.0,0.0,0.0,0.0,0.0,0.0,0.0,0.0,-1.2466,-1.164,-1.1373,0.0,0.0,0.0,0.0,0.0,0.0,0.0,0.0,0.0,-1.2941,-1.2099,-1.1669,0.0,0.0,-1.2546,-1.226,-1.3396,-1.4211,-1.3994,-1.4236,0.0,0.0,-1.41,-1.3821,-1.4171,-1.4626,-1.5131,-1.5724,-1.5722,-1.5768,-1.6164,-1.5894,-1.5442,-1.5076,-1.4193,-1.3578,-1.356,-1.3727,-1.3925,-1.3963,-1.4256,-1.4561,-1.3529,-1.3538,-1.333,-1.2911,-1.2338,-1.2277,-1.1618,-1.0571,-1.0101,-1.0683,-1.1937,-1.0508,-1.1274,-1.3653,-1.3644,0.0,0.0,0.0,-1.4574,-1.3908,-1.4596,-1.4848,-1.4749,-1.5184,-1.5154,-1.4684,-1.4672,-1.435,-1.3805,-1.4157,-1.4887,-1.5835,0.0,0.0,-1.6391,-1.5627,-1.5536,-1.6148,-1.6108,-1.6189,-1.6328,-1.592,-1.5755,-1.5831,-1.6215,-1.6465,-1.653,-1.6548,-1.6483,-1.6318,-1.6252,-1.6291,0.0,0.0,0.0,0.0,0.0,0.0,0.0,0.0,0.0,0.0,0.0,-1.2594,0.0,0.0,0.0,0.0,-1.1964,-1.2314,-1.223,-1.1869,0.0,0.0,0.0,0.0,0.0,0.0,0.0,-1.3389,-1.344,-1.3889,-1.477,-1.3724,-1.2969,-1.3249,-1.3473,-1.3615,-1.3611,0.0,-1.5366,-1.5343,-1.5488,-1.5618,-1.5554,-1.5195,-1.5044,-1.5479,-1.597,-1.6375,-1.6745,-1.6807,-1.6959,-1.7204,-1.7054,-1.6824,-1.6772,-1.5979,-1.5216,-1.4812,-1.488,-1.5069,-1.5082,-1.5362,-1.5575,-1.4936,-1.4279,-1.488,-1.413,-1.2547,-1.2509,-1.1717,-1.042,-1.0358,-1.1642,-1.3594,-1.1351,-1.2367,-1.5816,-1.5984,0.0,-1.3978,-1.533,-1.5636,-1.512,-1.5688,-1.6331,-1.7089,-1.7125,-1.7117,-1.7122,-1.7109,-1.7082,-1.6991,-1.6951,-1.7266,-1.7871,-1.706,-1.6888,-1.7416,-1.7542,-1.7293,-1.6652,-1.7413,-1.7447,-1.6745,-1.6655,-1.6669,-1.6817,-1.67,-1.6682,-1.6781,-1.6799,-1.6748,-1.6615,-1.6456,-1.671,-1.7436,0.0,0.0,0.0,0.0,0.0,0.0,0.0,0.0,0.0,0.0,0.0,0.0,0.0,0.0,0.0,-1.2171,0.0,-1.0945,-1.1709,0.0,0.0,0.0,-1.565,-1.6227,-1.6161,-1.5703,-1.4723,0.0,0.0,-1.5978,-1.5621,-1.5226,-1.4817,-1.518,-1.5475,-1.5534,-1.5859,-1.6098,-1.5842,-1.5837,-1.5734,-1.5693,-1.5757,-1.6209,-1.7041,-1.7663,-1.7963,-1.8058,-1.8004,-1.799,-1.799,-1.795,-1.7895,-1.7909,-1.7666,-1.737,-1.6241,-1.6005,-1.5931,-1.5958,-1.5949,-1.5913,-1.7093,-1.6971,-1.7122,-1.5413,-1.2607,-1.2574,-1.3079,-1.3825,-1.3232,-1.401,-1.5594,-1.3768,-1.3494,-1.4399,-1.5651,-1.6353,-1.6591,-1.6933,-1.7309,-1.7692,-1.7791,-1.7956,-1.8168,-1.8758,-1.9024,-1.9031,-1.9043,-1.897,-1.8906,-1.939,-1.9732,-1.9853,-2.0117,-1.9687,-1.8645,-1.8626,-1.8911,-1.9429,-1.9592,-1.9303,-1.8576,-1.7978,-1.7957,-1.8556,-1.7926,-1.7871,-1.8483,-1.852,-1.8247,-1.7682,-1.7586,-1.7579,-1.7644,-1.7273,0.0,0.0,0.0,0.0,0.0,0.0,0.0,0.0,0.0,-1.3127,-1.3468,0.0,-1.2815,0.0,-1.1891,-1.2753,-1.4767,-1.466,0.0,0.0,-1.6301,-1.6402,-1.6327,-1.6101,-1.5794,-1.5387,-1.5285,-1.5465,-1.5998,-1.5961,-1.5998,-1.6155,-1.553,-1.5031,-1.4989,-1.5679,-1.6355,-1.6741,-1.7389,-1.7964,-1.8095,-1.7883,-1.786,-1.8521,-1.87,-1.892,-1.9402,-1.9057,-1.8769,-1.8769,-1.829,-1.8003,-1.811,-1.7963,-1.7854,-1.7528,-1.7302,-1.7103,-1.7117,-1.7063,-1.7076,-1.8235,-1.7937,-1.8317,-1.7111,-1.4955,-1.4936,-1.5438,-1.6247,-1.5805,-1.6125,-1.6917,-1.6007,-1.5572,-1.5596,-1.6472,-1.7314,-1.8031,-1.7662,-1.8307,-1.9722,-1.9273,-1.9469,-2.0182,-2.061,-2.0783,-2.076,-2.0802,-2.0774,-2.0699,-2.1087,-2.1229,-2.1166,-2.149,-2.1402,-2.0854,-2.0059,-1.9911,-2.0501,-2.0435,-2.0348,-2.0259,-1.984,-1.964,-1.9713,-1.8913,-1.8515,-1.8608,-1.8245,-1.8011,-1.7874,-1.7485,-1.7531,-1.8092,-1.7354,-1.6628,0.0,0.0,0.0,0.0,0.0,0.0,0.0,0.0,0.0,0.0,0.0,-1.4404,-1.4059,-1.4005,-1.4752,-1.6545,-1.6295,-1.6308,-1.7044,-1.7093,-1.7052,-1.6962,-1.6719,-1.6524,-1.6412,-1.6454,-1.6633,-1.6959,-1.7275,-1.7563,-1.777,-1.7195,-1.6547,-1.6129,-1.6428,-1.6965,-1.787,-1.8376,-1.8767,-1.917,-1.8822,-1.87,-1.9221,-1.9029,-1.8975,-1.9572,-1.9377,-1.9142,-1.9086,-1.899,-1.892,-1.9003,-1.8962,-1.892,-1.8865,-1.8726,-1.841,-1.7814,-1.7825,-1.7958,-1.8928,-1.8321,-1.9041,-1.892,-1.8248,-1.8174,-1.8065,-1.7966,-1.7915,-1.7876,-1.7881,-1.798,-1.7949,-1.7853,-1.8021,-1.8531,-1.922,-1.8507,-1.938,-2.1457,-2.0682,-2.1079,-2.2445,-2.2497,-2.2547,-2.2593,-2.2547,-2.2547,-2.2574,-2.2488,-2.2405,-2.2356,-2.2259,-2.2667,-2.3456,-2.1814,-2.0917,-2.0844,-2.1027,-2.1367,-2.1917,-2.1808,-2.1425,-2.0696,-1.9727,-1.889,-1.817,-1.7478,-1.7346,-1.7817,-1.7074,-1.7345,-1.8769,-1.7743,-1.7365,0.0,-1.7723,0.0,0.0,0.0,0.0,0.0,0.0,0.0,0.0,-1.6348,-1.6608,-1.7302,-1.6915,-1.6837,-1.7206,-1.7289,-1.7387,-1.7605,-1.7712,-1.7873,-1.8076,-1.7873,-1.773,-1.773,-1.8067,-1.8302,-1.8275,-1.8827,-1.92,-1.9074,-1.8929,-1.8505,-1.7846,-1.7535,-1.7837,-1.9004,-1.8982,-1.9036,-1.9214,-1.8988,-1.9016,-1.9641,-1.9341,-1.8969,-1.9712,-1.9712,-1.9573,-1.9544,-1.9822,-2.0102,-2.0071,-2.01,-2.01,-2.0002,-2.0014,-1.9637,-1.8522,-1.8493,-1.8746,-2.0159,-2.0026,-2.0191,-2.0161,-2.0017,-1.999,-1.9556,-1.8866,-1.8827,-1.8805,-1.8808,-1.9442,-1.9337,-1.8803,-2.0097,-2.1139,-2.1875,-2.1719,-2.2239,-2.3296,-2.3063,-2.3075,-2.3319,-2.3992,-2.4659,-2.5196,-2.4625,-2.4629,-2.5271,-2.4551,-2.4198,-2.4182,-2.4064,-2.4474,-2.5288,0.0,0.0,0.0,-2.3529,-2.4206,-2.3617,-2.2939,-2.25,-2.23,-2.0313,0.0,-1.8966,-1.8838,-1.8772,-1.8835,-1.8605,0.0,0.0,0.0,0.0,0.0,0.0,0.0,0.0,0.0,0.0,0.0,-1.7502,-1.7143,-1.6593,-1.6483,-1.6807,-1.7603,-1.7613,-1.7701,-1.8053,-1.8574,-1.887,-1.8887,-1.9393,-1.9753,-1.9753,-1.9588,-1.9488,-1.9428,-1.9379,-1.9285,-1.9219,-1.9262,-1.9309,-1.9362,-1.9188,-1.9066,-1.892,-1.8535,-1.8577,-1.9277,-1.9568,-1.9703,-1.9624,-1.9302,-1.9464,-2.0234,-2.0287,-2.0458,-2.1377,-2.1248,-2.0964,-2.0936,-2.0581,-2.0286,-2.0386,-2.0215,-2.017,-2.0315,-2.0634,-2.0504,-1.9169,-1.9319,-1.9594,-2.0503,0.0,-2.0961,-2.1153,0.0,-2.1146,-2.0881,-2.0437,-2.0405,-2.0352,-2.0339,-2.1136,-2.0999,-2.0233,-2.1493,-2.2488,-2.3273,-2.2819,-2.3252,-2.4416,-2.4334,-2.4496,-2.487,-2.5638,-2.623,-2.661,-2.623,-2.6252,-2.661,-2.6204,-2.5963,-2.5995,-2.5911,-2.612,-2.6566,-2.6071,-2.4905,-2.3167,-2.4728,-2.5113,-2.4208,-2.4498,-2.4112,-2.2923,0.0,0.0,0.0,0.0,0.0,0.0,0.0,0.0,0.0,0.0,0.0,-2.028,-2.0079,-1.9772,-1.9378,-1.9321,-1.9282,-1.9326,-1.9365,-1.8988,-1.804,-1.8048,-1.8418,-1.9186,-1.925,-1.929,-1.943,-1.971,-1.9889,-1.9907,-2.0181,-2.0333,-2.0318,-2.0111,-2.0001,-2.0034,-2.0383,-2.0631,-2.0562,-2.1147,-2.1415,-2.1386,-2.1355,-2.1244,-2.1101,-1.9791,-1.8961,-1.9515,-1.9875,-2.0065,-1.995,-1.9909,-2.0128,-2.0866,-2.0864,-2.1098,-2.203,-2.1841,-2.1552,-2.1552,-2.1165,-2.098,-2.1394,-2.1121,-2.0862,-2.1364,-2.1676,-2.1516,-2.0555,-2.051,-2.0548,-2.072,-2.0818,-2.1653,-2.202,-2.202,-2.202,-2.2114,-2.2247,0.0,0.0,0.0,-2.2535,-2.2406,-2.1803,-2.2575,-2.3333,-2.3926,-2.3509,-2.4018,-2.531,-2.5367,-2.5674,-2.6209,-2.6832,-2.7164,-2.728,-2.7148,-2.7258,-2.7522,-2.7377,-2.732,-2.7318,-2.732,-2.738,-2.7478,-2.7492,-2.6749,-2.5374,-2.582,-2.567,-2.4871,-2.597,-2.5619,-2.362,-2.3125,-2.2228,-2.0877,-2.0056,-1.9861,-2.0391,-2.0261,-2.0634,-2.1565,-2.1405,-2.1353,-2.1629,-2.1476,-2.1356,-2.1348,-2.1264,-2.1304,-2.143,-2.1487,-2.1011,-1.9778,-1.9854,-2.0202,-2.0776,-2.0907,-2.0928,-2.0859,-2.1092,-2.1184,-2.1225,-2.1226,-2.1256,-2.1231,-2.102,-2.1044,-2.0974,-2.1742,-2.2235,-2.2212,-2.3012,-2.3719,-2.3618,-2.3355,-2.3547,-2.3205,-2.1279,-1.9872,-2.021,-2.0356,-2.0323,-2.043,-2.0572,-2.1015,-2.1649,-2.151,-2.1507,-2.1946,-2.2062,-2.1974,-2.1929,-2.1782,-2.1981,-2.2429,-2.2081,-2.1922,-2.2515,-2.2661,-2.2503,-2.1999,-2.1753,-2.1518,-2.162,-2.1698,-2.2555,-2.2926,-2.2923,-2.2916,-2.3338,-2.3891,-2.2382,-2.2117,-2.2804,-2.2802,-2.2744,-2.2658,-2.3458,-2.3859,-2.4,-2.531,-2.607,-2.6238,-2.6909,-2.6854,-2.6242,-2.6304,-2.6696,-2.7204,-2.6613,-2.7025,-2.8196,-2.7673,-2.7333,-2.7403,-2.7384,-2.7714,-2.8344,-2.9006,-2.9101,-2.8619,-2.7959,-2.7463,-2.7226,-2.6771,-2.6344,-2.5881,-2.3926,-2.272,-2.2465,-2.1717,-2.1261,-2.1222,-2.124,-2.1929,-2.3316,-2.3318,-2.3664,-2.4487,-2.4472,-2.41,-2.3437,-2.3336,-2.3249,-2.3155,-2.3155,-2.2487,-2.0941,-2.0856,-2.0912,-2.0994,-2.1662,-2.1935,-2.189,-2.2954,-2.3605,-2.3632,-2.4137,-2.4465,-2.4216,-2.416,-2.4013,-2.3932,-2.4096,-2.4076,-2.3969,-2.403,-2.4083,-2.3902,-2.4015,-2.3799,-2.3583,-2.2587,-2.1841,-2.1611,-2.1112,-2.0994,-2.1327,-2.1456,-2.1881,-2.2652,-2.2503,-2.2376,-2.2703,-2.2745,-2.2701,-2.27,-2.2566,-2.2608,-2.2844,-2.268,-2.2548,-2.2785,-2.2859,-2.2786,-2.2774,-2.2759,-2.2509,-2.2503,-2.2597,-2.3449,-2.3797,-2.3816,-2.3793,-2.402,-2.4327,-2.349,-2.3314,-2.372,-2.4053,-2.3967,-2.3631,-2.4361,-2.4696,-2.4694,-2.5447,-2.5776,-2.5798,-2.6587,-2.6719,-2.6393,-2.7182,-2.7763,-2.8058,-2.8153,-2.855,-2.9196,-2.8844,-2.8676,-2.8693,-2.8657,-2.902,-2.972,-3.0095,-3.0327,-3.0516,-2.9311,-2.8396,-2.7824,-2.7838,-2.7453,-2.6588,-2.5819,-2.5285,-2.4882,-2.4516,-2.4074,-2.3519,-2.3919,-2.4281,-2.4551,-2.4904,-2.5302,-2.5754,-2.5728,-2.552,-2.5113,-2.5023,-2.5129,-2.5403,-2.5415,-2.5294,-2.4924,-2.3364,-2.2718,-2.3495,-2.3679,-2.3713,-2.3879,-2.4489,-2.4839,-2.4812,-2.5045,-2.5181,-2.5153,-2.5057,-2.4971,-2.4935,-2.5111,-2.521,-2.5133,-2.531,-2.5397,-2.5212,-2.5089,-2.495,-2.4865,-2.4156,-2.3432,-2.2822,-2.2276,-2.2061,-2.2291,-2.2889,-2.3173,-2.3188,-2.3175,-2.3266,-2.3348,-2.3304,-2.3231,-2.3187,-2.2834,-2.2702,-2.2995,-2.2717,-2.2643,-2.3008,-2.3098,-2.3142,-2.3127,-2.3271,-2.3233,-2.3405,-2.3481,-2.4326,-2.4693,-2.4709,-2.4686,-2.4686,-2.4701,-2.4627,-2.4608,-2.4705,-2.5194,-2.517,-2.4846,-2.5158,-2.5408,-2.555,-2.5508,-2.5512,-2.5573,-2.6308,-2.665,-2.6719,-2.7951,-2.8681,-2.8957,-2.9434,-2.9813,-3.012,-2.9937,-2.992,-3.0053,-2.9981,-3.034,-3.1046,-3.0966,-3.1247,-3.1727,-3.0512,-2.9344,-2.85,-2.9026,-2.8713,-2.7669,-2.7846,-2.7769,-2.7181,-2.6979,-2.6463,-2.567,-2.6121,-2.6228,-2.5841,-2.6494,-2.6891,-2.6927,-2.7237,-2.7391,-2.7296,-2.7055,-2.7209,-2.7843,-2.77,-2.7924,-2.8478,-2.6701,-2.5533,-2.6177,-2.5895,-2.5843,-2.625,-2.6292,-2.6219,-2.6202,-2.596,-2.6009,-2.6061,-2.5936,-2.5935,-2.6078,-2.6492,-2.6762,-2.6684,-2.6978,-2.713,-2.6866,-2.6535,-2.6294,-2.6244,-2.5648,-2.4851,-2.4118,-2.3533,-2.327,-2.3263,-2.4119,-2.4398,-2.3714,-2.381,-2.3952,-2.3975,-2.3774,-2.3613,-2.3599,-2.3068,-2.2834,-2.3142,-2.2907,-2.279,-2.3201,-2.3349,-2.3319,-2.3451,-2.3606,-2.3778,-2.4286,-2.4405,-2.52,-2.5584,-2.5554,-2.5566,-2.5543,-2.5543,-2.5559,-2.5559,-2.557,-2.551,-2.5834,-2.6323,-2.571,-2.5717,-2.6288,-2.6381,-2.6309,-2.6345,-2.7109,-2.747,-2.7409,-2.7609,-2.8362,-2.9507,-2.9169,-2.9642,-3.0835,-3.0272,-3.0237,-3.0827,-3.0829,-3.1128,-3.1715,-3.166,-3.1932,-3.2551,-3.174,-3.0912,-3.0139,-3.0157,-3.0102,-2.9991,-2.926,-2.887,-2.8755,-2.8081,-2.7288,-2.6512,-2.657,-2.6881,-2.7464,-2.821,-2.8667,-2.8805,-3.0003,-3.0768,-3.0574,-2.9914,-2.9682,-3.0322,-2.9719,-2.9701,-3.0445,-3.0632,-2.9866,-2.8548,-2.7968,-2.8144,-2.8845,-2.8834,-2.8658,-2.8435,-2.7983,-2.7883,-2.8242,-2.8456,-2.8687,-2.9303,-2.9034,-2.9281,-2.8921,-2.887,-2.8762,-2.8337,-2.7811,-2.7403,-2.7188,-2.6778,-2.6293,-2.5713,-2.4999,-2.4449,-2.4535,-2.5028,-2.5134,-2.4737,-2.4592,-2.459,-2.4541,-2.419,-2.3731,-2.4223,-2.3778,-2.3393,-2.3348,-2.3289,-2.3274,-2.3363,-2.351,-2.357,-2.3938,-2.4095,-2.417,-2.5164,-2.52,-2.5554,-2.5704,-2.5694,-2.5687,-2.5703,-2.5699,-2.5703,-2.5976,-2.6299,-2.5848,-2.5788,-2.6022,-2.5588,-2.5571,-2.5851,-2.577,-2.6014,-2.6446,-2.6784,-2.7128,-2.7603,-2.8075,-2.8639,-2.9254,-2.9336,-2.9775,-3.0328,-3.054,-3.0732,-3.1017,-3.1374,-3.195,-3.2545,-3.2557,-3.2826,-3.3361,-3.311,-3.2582,-3.1759,-3.1225,-3.0986,-3.0919,-3.0625,-3.0459,-3.0393,-3.0081,-2.9305,-2.8082,-2.8379,-2.8562,-2.8434,-2.9161,-2.9844,-3.032,-3.0943,-3.1276,-3.1224,-3.0862,-3.0921,-3.1598,-3.1307,-3.1366,-3.2014,-3.2258,-3.1911,-3.1178,-3.0392,-2.9982,-2.9923,-2.9814,-2.9739,-2.9642,-2.9378,-2.933,-2.953,-2.9502,-2.9592,-2.9839,-2.9809,-2.9726,-2.9626,-2.942,-2.9244,-2.9047,-2.8689,-2.8393,-2.8196,-2.7998,-2.7791,-2.7487,-2.7061,-2.6352,-2.5628,-2.5452,-2.5476,-2.5304,-2.5257,-2.5326,-2.5284,-2.5345,-2.5152,-2.5016,-2.4507,-2.4044,-2.3683,-2.3581,-2.3523,-2.3598,-2.3539,-2.3584,-2.3778,-2.4261,-2.4597,-2.5852,-2.6077,-2.6292,-2.625,-2.6087,-2.6298,-2.6256,-2.6073,-2.6065,-2.6259,-2.6506,-2.619,-2.6009,-2.5951,-2.5832,-2.5895,-2.6054,-2.5973,-2.6224,-2.6795,-2.6759,-2.7211,-2.7973,-2.8522,-2.9049,-2.9494,-3.0032,-3.0379,-3.0629,-3.1124,-3.1525,-3.1674,-3.2161,-3.2729,-3.3273,-3.3319,-3.35,-3.3839,-3.3921,-3.3644,-3.3004,-3.244,-3.2053,-3.1801,-3.1789,-3.1789,-3.1733,-3.1733,-3.0956,-2.935,-2.9826,-2.9844,-2.935,-3.0009,-3.0863,-3.1796,-3.1715,-3.1689,-3.1871,-3.1636,-3.1901,-3.2716,-3.2629,-3.2811,-3.3486,-3.3705,-3.3641,-3.3455,-3.2784,-3.2009,-3.1142,-3.114,-3.1097,-3.0806,-3.0595,-3.056,-3.0984,-3.0655,-3.0464,-3.0849,-3.0852,-3.0402,-3.03,-3.0178,-3.0069,-2.9997,-2.9651,-2.9355,-2.9178,-2.9022,-2.8763,-2.8661,-2.8553,-2.7831,-2.6459,-2.6118,-2.5935,-2.5786,-2.5854,-2.603,-2.6092,-2.6361,-2.6321,-2.5834,-2.5394,-2.5047,-2.4731,-2.4387,-2.4133,-2.4148,-2.4075,-2.4149,-2.4609,-2.5014,-2.5326,-2.6188,-2.6988,-2.7752,-2.7553,-2.6994,-2.7686,-2.7624,-2.6942,-2.6913,-2.6507,-2.6094,-2.6532,-2.6875,-2.6784,-2.6669,-2.7099,-2.767,-2.7585,-2.7577,-2.7656,-2.7638,-2.8076,-2.8793,-2.8846,-2.962,-3.088,-3.0994,-3.1433,-3.2138,-3.2293,-3.2657,-3.313,-3.3147,-3.3422,-3.3852,-3.3843,-3.3839,-3.3815,-3.3815,-3.3797,-3.3742,-3.3739,-3.3342,-3.2691,-3.2661,-3.2592,-3.2559,-3.2559,-3.1799,-3.0191,-3.0198,-3.0161,-3.0186,-3.0869,-3.1978,-3.3223,-3.2794,-3.2648,-3.312,-3.2647,-3.2845,-3.4027,-3.3719,-3.3882,-3.5004,-3.5249,-3.5169,-3.5011,-3.4814,-3.4242,-3.3066,-3.3182,-3.3257,-3.2454,-3.1734,-3.1999,-3.3108,-3.2055,-3.209,-3.2985,-3.2581,-3.1969,-3.1792,-3.1752,-3.1502,-3.1253,-3.0825,-3.036,-3.0145,-2.9632,-2.9287,-2.9107,-2.8891,-2.8331,-2.73,-2.6989,-2.6858,-2.6724,-2.6663,-2.6757,-2.6985,-2.7162,-2.6949,-2.6673,-2.626,-2.5955,-2.5803,-2.5605,-2.5408,-2.5302,-2.5211,-2.5329,-2.528,-2.5878,-2.61,-2.7227,-2.7034,-2.7315,-2.7254,-2.7117,-2.7917,-2.8109,-2.7771,-2.7234,-2.7153,-2.717,-2.6542,-2.6439,-2.6882,-2.6832,-2.7191,-2.7864,-2.7819,-2.8061,-2.8479,-2.8479,-2.8911,-2.9655,-2.967,-3.0179,-3.114,-3.1295,-3.1661,-3.2405,-3.2937,-3.3261,-3.3381,-3.3802,-3.4078,-3.4062,-3.3965,-3.3913,-3.3868,-3.3834,-3.3807,-3.3807,-3.3868,-3.3721,-3.3456,-3.3445,-3.3445,-3.3366,-3.3313,-3.2535,-3.0917,-3.1338,-3.1386,-3.0969,-3.2046,-3.3022,-3.3588,-3.3359,-3.3267,-3.3504,-3.3322,-3.3538,-3.4497,-3.4395,-3.4624,-3.5353,-3.5508,-3.5375,-3.5381,-3.5757,-3.5383,-3.4551,-3.4376,-3.4358,-3.3952,-3.3653,-3.3635,-3.4057,-3.3757,-3.3599,-3.3792,-3.3404,-3.3085,-3.2892,-3.2748,-3.2446,-3.1942,-3.1597,-3.1386,-3.1225,-3.0964,-3.0702,-3.0496,-3.0285,-2.9856,-2.8998,-2.8185,-2.7761,-2.7679,-2.7672,-2.7821,-2.8021,-2.8059,-2.7953,-2.7427,-2.6965,-2.6626,-2.6349,-2.5995,-2.5948,-2.5856,-2.5794,-2.6004,-2.5851,-2.6298,-2.645,-2.7795,-2.7151,-2.7593,-2.7649,-2.7571,-2.8625,-2.8781,-2.8288,-2.7669,-2.7454,-2.7273,-2.6493,-2.6545,-2.7248,-2.7542,-2.8043,-2.8616,-2.8398,-2.8648,-2.9353,-2.9352,-2.9631,-3.0089,-3.0123,-3.0365,-3.0928,-3.145,-3.2158,-3.3147,-3.3753,-3.3882,-3.3668,-3.4188,-3.4311,-3.4023,-3.3921,-3.3913,-3.3887,-3.3815,-3.3807,-3.3807,-3.3842,-3.3842,-3.3815,-3.386,-3.3842,-3.3807,-3.3753,-3.3086,-3.1889,-3.1944,-3.1764,-3.1301,-3.2402,-3.3332,-3.3597,-3.3577,-3.3538,-3.352,-3.352,-3.3946,-3.486,-3.5036,-3.5403,-3.6185,-3.6195,-3.6179,-3.6236,-3.6434,-3.6417,-3.5845,-3.5537,-3.5337,-3.5127,-3.5039,-3.5162,-3.5355,-3.4969,-3.4495,-3.4212,-3.4209,-3.4047,-3.3803,-3.3621,-3.3182,-3.2506,-3.2539,-3.2553,-3.1977,-3.2061,-3.1987,-3.1517,-3.115,-3.0735,-3.0157,-2.9509,-2.8808,-2.864,-2.8445,-2.8634,-2.8794,-2.8853,-2.867,-2.814,-2.7659,-2.7255,-2.6851,-2.6417,-2.6261,-2.6183,-2.6452,-2.6752,-2.6703,-2.6693,-2.6876,-2.7815,-2.7327,-2.8784,-2.8898,-2.8449,-2.9799,-2.9737,-2.843,-2.824,-2.7462,-2.6542,-2.6696,-2.739,-2.8082,-2.8704,-2.9613,-2.9862,-2.9278,-2.9394,-3.0107,-3.0125,-3.0117,-3.0204,-3.0123,-3.0285,-3.0544,-3.1739,-3.3204,-3.4543,-3.4637,-3.4492,-3.4255,-3.4237,-3.4148,-3.3807,-3.3887,-3.3842,-3.3815,-3.3807,-3.3807,-3.3807,-3.3807,-3.3807,-3.3807,-3.3807,-3.3807,-3.3807,-3.3726,-3.3314,-3.2464,-3.1719,-3.1192,-3.1428,-3.212,-3.2728,-3.3382,-3.347,-3.3411,-3.3393,-3.3411,-3.3972,-3.5141,-3.5602,-3.6113,-3.7147,-3.7629,-3.7682,-3.7399,-3.7398,-3.7342,-3.712,-3.6914,-3.6552,-3.5969,-3.5811,-3.6092,-3.6373,-3.5618,-3.4703,-3.4734,-3.5046,-3.5004,-3.46,-3.4425,-3.4074,-3.3532,-3.3654,-3.3671,-3.2607,-3.276,-3.2596,-3.1946,-3.1598,-3.1348,-3.1049,-3.073,-3.0094,-2.956,-2.9338,-2.9261,-2.9362,-2.9409,-2.909,-2.856,-2.8153,-2.776,-2.7406,-2.7075,-2.7115,-2.7111,-2.735,-2.7365,-2.7345,-2.7324,-2.7497,-2.8147,-2.803,-2.9101,-2.9081,-2.8474,-2.9491,-2.9316,-2.8337,-2.8281,-2.7971,-2.762,-2.7774,-2.7989,-2.8173,-2.8496,-2.9013,-2.9583,-2.9371,-2.9627,-3.019,-3.0234,-3.0207,-3.0194,-3.0204,-3.0738,-3.1803,-3.2802,-3.3809,-3.466,-3.4829,-3.4645,-3.4404,-3.4269,-3.4074,-3.3834,-3.3834,-3.3815,-3.3807,-3.3807,-3.3807,-3.3807,-3.3807,-3.3825,-3.3807,-3.3753,-3.3726,-3.3726,-3.3698,-3.3287,-3.2484,-3.2693,-3.283,-3.2839,-3.2954,-3.3198,-3.3408,-3.3452,-3.3393,-3.3364,-3.3328,-3.3916,-3.513,-3.5442,-3.6179,-3.7363,-3.7613,-3.7594,-3.7466,-3.7429,-3.7334,-3.7143,-3.7182,-3.7002,-3.6675,-3.6619,-3.6654,-3.6865,-3.6531,-3.632,-3.6229,-3.6369,-3.612,-3.5556,-3.5325,-3.499,-3.4309,-3.4376,-3.4126,-3.385,-3.3685,-3.3595,-3.2844,-3.2458,-3.1981,-3.1743,-3.1392,-3.0831,-3.0327,-3.0046,-2.9748,-2.9837,-2.971,-2.938,-2.8967,-2.8558,-2.8186,-2.789,-2.774,-2.7625,-2.756,-2.7485,-2.759,-2.7784,-2.7874,-2.7801,-2.8283,-2.8342,-2.8537,-2.8344,-2.7932,-2.8752,-2.8615,-2.7952,-2.8166,-2.8127,-2.7913,-2.8166,-2.8447,-2.8634,-2.8684,-2.909,-2.9724,-2.9756,-2.9969,-3.0297,-3.0279,-3.0221,-3.0265,-3.05,-3.1276,-3.2507,-3.3352,-3.4112,-3.4831,-3.4788,-3.4602,-3.434,-3.4197,-3.4042,-3.3834,-3.3825,-3.3899,-3.4174,-3.4266,-3.4247,-3.4266,-3.4247,-3.4119,-3.3862,-3.3726,-3.3698,-3.3698,-3.3689,-3.3396,-3.2921,-3.3039,-3.3065,-3.3084,-3.2962,-3.3096,-3.3397,-3.3422,-3.3393,-3.337,-3.3502,-3.4042,-3.5091,-3.5523,-3.6185,-3.7255,-3.7447,-3.7447,-3.7503,-3.7392,-3.7259,-3.7143,-3.7143,-3.7143,-3.7009,-3.6952,-3.697,-3.697,-3.697,-3.6952,-3.6882,-3.6935,-3.6724,-3.6408,-3.6194,-3.5892,-3.5262,-3.5203,-3.4899,-3.4798,-3.4634,-3.4265,-3.3859,-3.3369,-3.2916,-3.2474,-3.1981,-3.1446,-3.1041,-3.075,-3.0377,-3.0215,-2.9886,-2.956,-2.892,-2.8462,-2.8152,-2.7855,-2.769,-2.756,-2.756,-2.7679,-2.7979,-2.8158,-2.7784,-2.7838,-2.8264,-2.8127,-2.7425,-2.7251,-2.7288,-2.8069,-2.7991,-2.7366,-2.8069,-2.8069,-2.762,-2.8323,-2.8954,-2.946,-2.9565,-2.9919,-3.0463,-3.044,-3.0346,-3.0367,-3.0343,-3.0279,-3.027,-3.0837,-3.1667,-3.2602,-3.3333,-3.4093,-3.4791,-3.4687,-3.4473,-3.4245,-3.4099,-3.3947,-3.3834,-3.3807,-3.4119,-3.4614,-3.4798,-3.4789,-3.4899,-3.4807,-3.4495,-3.3844,-3.3726,-3.3671,-3.3643,-3.3696,-3.3694,-3.3473,-3.2998,-3.2705,-3.2451,-3.2306,-3.2759,-3.3375,-3.3393,-3.3334,-3.3436,-3.3768,-3.4429,-3.5047,-3.5794,-3.6648,-3.7251,-3.7429,-3.7466,-3.7559,-3.7392,-3.7259,-3.722,-3.7143,-3.7027,-3.7009,-3.697,-3.6987,-3.7097,-3.704,-3.704,-3.7093,-3.7058,-3.6987,-3.697,-3.7005,-3.6755,-3.619,-3.6304,-3.6077,-3.5392,-3.5248,-3.5213,-3.4801,-3.4185,-3.3682,-3.3197,-3.2642,-3.2135,-3.1985,-3.155,-3.104,-3.0481,-3.0065,-2.9605,-2.9013,-2.857,-2.8179,-2.7855,-2.774,-2.776,-2.7859,-2.8083,-2.8427,-2.8472,-2.8299,-2.8308,-2.7932,-2.7386,-2.7795,-2.7952,-2.7971,-2.8225,-2.8186,-2.8069,-2.885,-2.9045,-2.9064,-2.9786,-3.0169,-3.0423,-3.0439,-3.0531,-3.0579,-3.0579,-3.051,-3.0409,-3.039,-3.0324,-3.0371,-3.0975,-3.1765,-3.2604,-3.3409,-3.4112,-3.4811,-3.4687,-3.4495,-3.4269,-3.4099,-3.3939,-3.3815,-3.3807,-3.388,-3.4082,-3.4137,-3.4614,-3.5128,-3.4541,-3.4018,-3.3781,-3.3671,-3.3605,-3.3621,-3.3966,-3.4274,-3.4352,-3.4105,-3.393,-3.3816,-3.337,-3.3207,-3.3382,-3.3388,-3.331,-3.3314,-3.3716,-3.43,-3.4907,-3.5631,-3.6317,-3.7097,-3.7164,-3.7185,-3.7223,-3.7126,-3.7066,-3.7066,-3.7027,-3.6987,-3.697,-3.6987,-3.7163,-3.7496,-3.7321,-3.7163,-3.7672,-3.7777,-3.7479,-3.7374,-3.7725,-3.7912,-3.7088,-3.6991,-3.7318,-3.6387,-3.5981,-3.5936,-3.5439,-3.4898,-3.441,-3.3898,-3.3296,-3.2934,-3.2832,-3.2436,-3.1788,-3.1034,-3.0196,-2.9685,-2.909,-2.8962,-2.8679,-2.8171,-2.7806,-2.7931,-2.8269,-2.8457,-2.8786,-2.916,-2.9214,-2.916,-2.8537,-2.8108,-2.8264,-2.8283,-2.8283,-2.8283,-2.8283,-2.8459,-2.9201,-2.9611,-2.9786,-3.045,-3.0796,-3.0785,-3.079,-3.073,-3.0651,-3.0579,-3.052,-3.0449,-3.0398,-3.0312,-3.0486,-3.1253,-3.2124,-3.2659,-3.3711,-3.4415,-3.4772,-3.4687,-3.4495,-3.4293,-3.4099,-3.3947,-3.386,-3.3834,-3.4064,-3.4412,-3.4412,-3.4724,-3.5349,-3.4724,-3.4128,-3.3808,-3.3633,-3.3658,-3.393,-3.4532,-3.4997,-3.5095,-3.5033,-3.4875,-3.463,-3.4491,-3.422,-3.3973,-3.381,-3.3669,-3.3669,-3.4013,-3.4304,-3.4641,-3.5447,-3.6292,-3.6647,-3.6837,-3.7048,-3.7108,-3.7031,-3.7009,-3.6987,-3.6948,-3.6948,-3.6987,-3.6948,-3.7101,-3.7539,-3.7176,-3.7374,-3.7755,-3.7749,-3.7632,-3.7409,-3.8029,-3.7942,-3.7539,-3.719,-3.7347,-3.719,-3.6917,-3.6539,-3.5989,-3.5855,-3.5552,-3.5052,-3.4465,-3.3748,-3.3627,-3.3056,-3.2448,-3.1813,-3.0831,-3.0245,-2.9847,-2.9545,-2.9073,-2.8503,-2.8208,-2.8568,-2.8779,-2.8906,-2.9197,-2.9699,-2.9948,-2.9978,-2.9455,-2.9377,-2.8635,-2.8342,-2.8459,-2.844,-2.8617,-2.8774,-2.9498,-2.9808,-2.9962,-3.0509,-3.0777,-3.0791,-3.0786,-3.0764,-3.0704,-3.0571,-3.0501,-3.0497,-3.0489,-3.0458,-3.0366,-3.1749,-3.254,-3.3001,-3.4317,-3.4756,-3.4809,-3.4685,-3.4495,-3.4293,-3.4099,-3.3972,-3.3913,-3.3834,-3.4357,-3.4835,-3.4706,-3.4743,-3.5018,-3.4715,-3.4238,-3.378,-3.3842,-3.4098,-3.4599,-3.5245,-3.58,-3.6041,-3.5818,-3.5457,-3.5015,-3.5535,-3.5354,-3.4775,-3.4398,-3.4146,-3.4193,-3.4372,-3.4394,-3.4181,-3.5656,-3.6605,-3.6309,-3.6566,-3.6987,-3.7031,-3.6992,-3.6948,-3.6948,-3.6869,-3.6869,-3.6908,-3.6886,-3.6829,-3.6846,-3.6978,-3.7386,-3.8093,-3.7633,-3.7673,-3.7726,-3.772,-3.7515,-3.8292,-3.7993,-3.7945,-3.7735,-3.7276,-3.6904,-3.6481,-3.6547,-3.6793,-3.6233,-3.5691,-3.4914,-3.4342,-3.3607,-3.306,-3.2744,-3.196,-3.1243,-3.0736,-3.0207,-2.9552,-2.8808,-2.8804,-2.9199,-2.9409,-2.9609,-3.0013,-3.0417,-3.0458,-3.0528,-2.8596,-2.8557,-2.8381,-2.8713,-2.9259,-2.932,-2.9697,-3.0305,-3.0502,-3.0556,-3.0628,-3.0762,-3.0794,-3.0801,-3.079,-3.076,-3.0704,-3.0607,-3.053,-3.0479,-3.1117,-3.0822,-3.0729,-3.1939,-3.2885,-3.3534,-3.4414,-3.487,-3.4848,-3.468,-3.4529,-3.4358,-3.4216,-3.3991,-3.3913,-3.3934,-3.388,-3.4137,-3.41,-3.4174,-3.422,-3.4174,-3.3908,-3.367,-3.4036,-3.4679,-3.5331,-3.6044,-3.6764,-3.7106,-3.675,-3.6317,-3.6128,-3.5858,-3.5674,-3.5399,-3.4695,-3.4211,-3.4148,-3.4073,-3.3847,-3.3828,-3.5074,-3.5966,-3.5892,-3.6431,-3.6816,-3.6851,-3.6788,-3.6806,-3.6783,-3.6725,-3.6725,-3.6766,-3.6841,-3.6876,-3.6888,-3.7411,-3.8257,-3.9196,-3.945,-3.9406,-3.9122,-3.9608,-3.9434,-3.9136,-3.8806,-3.8755,-3.826,-3.7669,-3.7123,-3.6665,-3.6807,-3.6879,-3.6275,-3.5722,-3.5155,-3.4635,-3.4011,-3.3463,-3.3206,-3.2885,-3.2079,-3.139,-3.0829,-3.0125,-2.9515,-2.9562,-3.0054,-3.0187,-3.0298,-3.0657,-3.0911,-3.0953,-3.1129,-2.9469,-2.947,-2.9468,-2.9741,-3.0113,-3.0171,-3.0443,-3.085,-3.0912,-3.0909,-3.088,-3.0841,-3.0794,-3.0798,-3.0798,-3.076,-3.0697,-3.0593,-3.0501,-3.0583,-3.12,-3.1531,-3.1742,-3.2435,-3.3287,-3.3496,-3.4451,-3.4832,-3.4727,-3.4617,-3.4465,-3.432,-3.4419,-3.4341,-3.4105,-3.4209,-3.4137,-3.3899,-3.378,-3.378,-3.378,-3.3698,-3.3633,-3.3567,-3.3912,-3.446,-3.5483,-3.5816,-3.6662,-3.7309,-3.731,-3.695,-3.6872,-3.6741,-3.6612,-3.6026,-3.5262,-3.4684,-3.4479,-3.3917,-3.3564,-3.3528,-3.4839,-3.5448,-3.5867,-3.6352,-3.6736,-3.6788,-3.6748,-3.6742,-3.6702,-3.6643,-3.6661,-3.6771,-3.7015,-3.7311,-3.7718,-3.8,-3.8426,-3.9373,-3.946,-3.9591,-3.9861,-4.0391,-4.0304,-3.9495,-3.886,-3.8755,-3.8556,-3.7906,-3.7136,-3.6765,-3.6861,-3.6732,-3.6146,-3.5582,-3.5052,-3.4659,-3.4277,-3.3839,-3.3483,-3.3177,-3.2773,-3.2158,-3.1609,-3.1218,-3.0791,-3.0849,-3.0762,-3.0782,-3.0951,-3.1192,-3.1375,-3.1342,-3.1582,-3.08,-3.08,-3.08,-3.08,-3.08,-3.0762,-3.0779,-3.0868,-3.0892,-3.0909,-3.088,-3.0821,-3.0794,-3.0801,-3.0798,-3.076,-3.0664,-3.0568,-3.0458,-3.0525,-3.1488,-3.1933,-3.245,-3.3236,-3.3665,-3.3039,-3.4261,-3.4754,-3.4645,-3.4514,-3.4377,-3.4272,-3.484,-3.4639,-3.4271,-3.4595,-3.4559,-3.3899,-3.3753,-3.3753,-3.3753,-3.3671,-3.3577,-3.3488,-3.3707,-3.4308,-3.5292,-3.5731,-3.62,-3.7345,-3.7559,-3.7274,-3.7057,-3.748,-3.7659,-3.6521,-3.5629,-3.5099,-3.4695,-3.4022,-3.3455,-3.3558,-3.4704,-3.5453,-3.5771,-3.6277,-3.6678,-3.6766,-3.6725,-3.6771,-3.68,-3.6821,-3.6891,-3.7106,-3.7532,-3.8087,-3.8625,-3.8502,-3.8868,-3.9373,-3.9859,-4.0068,-3.9971,-4.0169,-4.003,-3.9857,-3.9254,-3.8743,-3.8545,-3.8148,-3.7396,-3.6688,-3.6663,-3.6526,-3.5973,-3.5622,-3.5027,-3.4698,-3.4427,-3.4119,-3.3794,-3.3616,-3.3306,-3.2962,-3.2472,-3.206,-3.1737,-3.1581,-3.1466,-3.1402,-3.15,-3.1745,-3.1719,-3.1644,-3.1988,-3.0801,-3.08,-3.0793,-3.0786,-3.081,-3.08,-3.082,-3.082,-3.0914,-3.0909,-3.0899,-3.0821,-3.0794,-3.0801,-3.0817,-3.0755,-3.0746,-3.0685,-3.0563,-3.0782,-3.1834,-3.2546,-3.2465,-3.3884,-3.4293,-3.4029,-3.4508,-3.4792,-3.4663,-3.4547,-3.4372,-3.4352,-3.4932,-3.4833,-3.4447,-3.4568,-3.4743,-3.4045,-3.3835,-3.3753,-3.3726,-3.3661,-3.352,-3.3436,-3.3743,-3.4515,-3.5334,-3.602,-3.6486,-3.6666,-3.7292,-3.7131,-3.6827,-3.7363,-3.7273,-3.6541,-3.5687,-3.5137,-3.4779,-3.3983,-3.3783,-3.4269,-3.5014,-3.5484,-3.5727,-3.6197,-3.6615,-3.6678,-3.6689,-3.6762,-3.7318,-3.7335,-3.7655,-3.8079,-3.8399,-3.8668,-3.8937,-3.9284,-3.9745,-4.0346,-4.0579,-4.0556,-4.0452,-4.04,-4.0452,-4.04,-4.0043,-3.9209,-3.8587,-3.8242,-3.7741,-3.6991,-3.637,-3.6087,-3.5711,-3.5503,-3.5131,-3.4816,-3.4544,-3.4382,-3.4121,-3.4071,-3.3806,-3.3347,-3.3115,-3.2831,-3.2562,-3.2307,-3.2173,-3.2038,-3.2137,-3.224,-3.2227,-3.2198,-3.2466,-3.079,-3.0788,-3.0796,-3.1077,-3.1347,-3.0964,-3.1073,-3.1385,-3.1088,-3.0923,-3.088,-3.0836,-3.0791,-3.0918,-3.1317,-3.1387,-3.1263,-3.1158,-3.1091,-3.1385,-3.2555,-3.3259,-3.2832,-3.4456,-3.471,-3.462,-3.4775,-3.4791,-3.4561,-3.4487,-3.4325,-3.44,-3.5146,-3.5331,-3.4917,-3.5321,-3.5128,-3.4532,-3.3982,-3.3716,-3.3689,-3.3642,-3.347,-3.3448,-3.3615,-3.4275,-3.5301,-3.5593,-3.6274,-3.6952,-3.7434,-3.729,-3.7092,-3.7109,-3.7251,-3.6661,-3.5915,-3.5344,-3.5031,-3.4338,-3.4192,-3.4779,-3.5243,-3.5607,-3.5977,-3.6377,-3.662,-3.6589,-3.6963,-3.7145,-3.7482,-3.7818,-3.8215,-3.8543,-3.8984,-3.9254,-3.9489,-4.0043,-4.0574,-4.1065,-4.0903,-4.0804,-4.0891,-4.0891,-4.0931,-4.0844,-4.0619,-3.9761,-3.8715,-3.8249,-3.7809,-3.718,-3.6517,-3.6256,-3.591,-3.5631,-3.5335,-3.4952,-3.4594,-3.4399,-3.4284,-3.4184,-3.3969,-3.3641,-3.3454,-3.3316,-3.3119,-3.2779,-3.2717,-3.2645,-3.2707,-3.2732,-3.2751,-3.2811,-3.3096,-3.0801,-3.0801,-3.0801,-3.12,-3.1655,-3.1116,-3.1166,-3.1619,-3.1163,-3.0921,-3.0897,-3.0836,-3.0788,-3.095,-3.1393,-3.1773,-3.1856,-3.1727,-3.1588,-3.1898,-3.3135,-3.3938,-3.4174,-3.4666,-3.5035,-3.498,-3.4908,-3.4732,-3.4498,-3.4427,-3.4221,-3.4441,-3.5496,-3.5909,-3.5404,-3.5734,-3.5614,-3.519,-3.4438,-3.398,-3.3887,-3.3753,-3.3478,-3.3262,-3.3091,-3.3766,-3.5162,-3.5327,-3.5971,-3.6845,-3.7398,-3.7414,-3.712,-3.717,-3.7143,-3.6825,-3.6173,-3.5745,-3.5327,-3.4936,-3.4753,-3.544,-3.5428,-3.5849,-3.6329,-3.6648,-3.6787,-3.6525,-3.7154,-3.7654,-3.7843,-3.8343,-3.8853,-3.9232,-3.9646,-4.002,-4.0187,-4.0481,-4.0723,-4.0965,-4.0918,-4.0918,-4.0965,-4.0965,-4.0982,-4.0694,-4.0469,-3.9692,-3.875,-3.8274,-3.7816,-3.722,-3.671,-3.6531,-3.6253,-3.5874,-3.5573,-3.525,-3.4693,-3.4349,-3.425,-3.4184,-3.3969,-3.3836,-3.3751,-3.3614,-3.3435,-3.3219,-3.2882,-3.2757,-3.3035,-3.3061,-3.2811,-3.3215,-3.3739,-3.0791,-3.0791,-3.0791,-3.0869,-3.098,-3.0876,-3.086,-3.1016,-3.1013,-3.0909,-3.0897,-3.0891,-3.0885,-3.0962,-3.0981,-3.141,-3.179,-3.2008,-3.198,-3.2244,-3.3422,-3.4148,-3.4152,-3.4745,-3.5053,-3.5075,-3.4964,-3.4752,-3.4577,-3.4465,-3.4277,-3.4389,-3.545,-3.5954,-3.555,-3.6025,-3.604,-3.5875,-3.5341,-3.4943,-3.4703,-3.4382,-3.3803,-3.3314,-3.3149,-3.3698,-3.5005,-3.5239,-3.5757,-3.6577,-3.7291,-3.7074,-3.6478,-3.6732,-3.6781,-3.6481,-3.6023,-3.5575,-3.5371,-3.525,-3.5371,-3.5894,-3.6042,-3.6298,-3.6686,-3.7049,-3.7059,-3.6217,-3.7418,-3.8184,-3.8322,-3.8975,-3.9709,-4.0151,-4.044,-4.0612,-4.0763,-4.0578,-4.0853,-4.0935,-4.0918,-4.0918,-4.0918,-4.0935,-4.0901,-4.0642,-4.0245,-3.9474,-3.887,-3.8401,-3.7961,-3.7398,-3.7251,-3.7055,-3.6851,-3.6432,-3.5842,-3.5515,-3.5118,-3.4494,-3.4249,-3.4216,-3.4199,-3.4066,-3.3915,-3.3745,-3.3555,-3.3256,-3.2874,-3.294,-3.3253,-3.2985,-3.2646,-3.3335,-3.4233,-3.0801,-3.0785,-3.0791,-3.1084,-3.1438,-3.1031,-3.1103,-3.1484,-3.1561,-3.13,-3.1011,-3.1354,-3.1539,-3.1573,-3.1884,-3.2299,-3.2645,-3.2871,-3.3058,-3.3146,-3.4044,-3.4633,-3.4751,-3.4935,-3.5092,-3.5075,-3.4964,-3.4752,-3.4655,-3.4853,-3.4884,-3.477,-3.6056,-3.6909,-3.6219,-3.6618,-3.6772,-3.6419,-3.5636,-3.4867,-3.4563,-3.406,-3.3517,-3.3078,-3.3015,-3.3827,-3.4829,-3.5204,-3.5882,-3.6792,-3.7487,-3.7305,-3.6791,-3.6812,-3.6829,-3.6343,-3.6167,-3.5976,-3.5877,-3.5825,-3.6015,-3.6128,-3.6353,-3.6602,-3.7128,-3.7404,-3.7534,-3.7223,-3.8259,-3.8757,-3.8757,-3.953,-4.0147,-4.0642,-4.0793,-4.084,-4.0823,-4.0793,-4.0793,-4.084,-4.0871,-4.0871,-4.0871,-4.0935,-4.0918,-4.0698,-4.0302,-3.9635,-3.9072,-3.862,-3.818,-3.7723,-3.7653,-3.7706,-3.7465,-3.7153,-3.6274,-3.5891,-3.5912,-3.5305,-3.4491,-3.4313,-3.4343,-3.4196,-3.3998,-3.3829,-3.3623,-3.343,-3.3159,-3.327,-3.3413,-3.3252,-3.3126,-3.3666,-3.449,-3.0786,-3.0801,-3.0791,-3.1184,-3.1691,-3.1044,-3.1148,-3.1718,-3.1717,-3.1376,-3.1184,-3.1656,-3.2166,-3.2469,-3.2875,-3.3056,-3.314,-3.3832,-3.4063,-3.4357,-3.4795,-3.513,-3.5117,-3.5126,-3.5092,-3.5092,-3.4964,-3.4752,-3.4827,-3.5096,-3.5305,-3.5101,-3.6248,-3.7092,-3.7338,-3.7211,-3.7077,-3.6601,-3.6069,-3.5435,-3.483,-3.4146,-3.3849,-3.3588,-3.3538,-3.3901,-3.5187,-3.5223,-3.5936,-3.7147,-3.7237,-3.7017,-3.6886,-3.6838,-3.6708,-3.636,-3.6172,-3.6215,-3.6172,-3.6215,-3.6301,-3.6259,-3.6293,-3.6534,-3.7137,-3.743,-3.7395,-3.7231,-3.89,-3.9007,-3.8905,-3.9675,-4.0343,-4.0549,-4.0648,-4.0728,-4.0776,-4.068,-4.0648,-4.0697,-4.0728,-4.0776,-4.084,-4.0905,-4.0853,-4.0703,-4.0306,-3.9743,-3.9324,-3.8875,-3.8747,-3.8444,-3.8447,-3.8438,-3.8254,-3.7784,-3.6933,-3.6348,-3.6381,-3.608,-3.5302,-3.4829,-3.4797,-3.4568,-3.4307,-3.4011,-3.389,-3.3666,-3.3472,-3.3341,-3.3326,-3.3655,-3.3833,-3.4226,-3.4355,-3.0786,-3.0801,-3.0771,-3.0816,-3.0916,-3.0821,-3.0832,-3.1015,-3.0976,-3.0987,-3.1064,-3.1726,-3.2562,-3.2984,-3.318,-3.3336,-3.3218,-3.3928,-3.4206,-3.4457,-3.4845,-3.5184,-3.5193,-3.5145,-3.5092,-3.5075,-3.4945,-3.4772,-3.4736,-3.5044,-3.5231,-3.5312,-3.6266,-3.6776,-3.7156,-3.7356,-3.7012,-3.6789,-3.6684,-3.6492,-3.5738,-3.5119,-3.4945,-3.484,-3.4505,-3.4688,-3.6061,-3.5563,-3.5812,-3.7266,-3.6966,-3.6728,-3.6803,-3.6776,-3.6568,-3.6251,-3.6165,-3.6208,-3.6208,-3.6276,-3.6276,-3.6233,-3.6242,-3.638,-3.6981,-3.783,-3.7597,-3.709,-3.8982,-3.933,-3.9112,-3.9333,-4.0317,-4.0485,-4.0534,-4.0534,-4.0583,-4.0517,-4.0534,-4.0534,-4.0583,-4.0631,-4.068,-4.0745,-4.0858,-4.0707,-4.0388,-3.989,-3.9631,-3.9299,-3.9508,-3.9411,-3.9345,-3.9237,-3.9118,-3.8457,-3.7531,-3.7061,-3.6929,-3.6615,-3.606,-3.5768,-3.5574,-3.5266,-3.5001,-3.4562,-3.4201,-3.4217,-3.4032,-3.3333,-3.3268,-3.3771,-3.3846,-3.3819,-3.3785,-3.0314,-3.0758,-3.0239,-3.0303,-3.0801,-3.0841,-3.0834,-3.0898,-3.1364,-3.1606,-3.1636,-3.2474,-3.246,-3.2361,-3.3511,-3.3674,-3.3325,-3.392,-3.4398,-3.4808,-3.5155,-3.5242,-3.5196,-3.5127,-3.5056,-3.502,-3.4927,-3.4732,-3.4551,-3.4801,-3.4927,-3.5257,-3.6127,-3.6893,-3.7277,-3.7553,-3.7392,-3.7151,-3.707,-3.668,-3.6285,-3.5106,-3.4791,-3.5184,-3.4438,-3.4851,-3.5954,-3.5882,-3.6431,-3.6889,-3.6832,-3.6707,-3.6626,-3.6557,-3.6343,-3.6036,-3.6036,-3.6079,-3.6105,-3.6191,-3.6276,-3.6208,-3.6174,-3.637,-3.7004,-3.7952,-3.8345,-3.8623,-3.9262,-3.9642,-3.9234,-3.9659,-4.0355,-4.0337,-4.0387,-4.0436,-4.0436,-4.037,-4.0419,-4.0436,-4.0485,-4.0534,-4.0583,-4.0583,-4.0648,-4.0662,-4.0326,-4.0024,-3.981,-3.9628,-3.9766,-3.9682,-3.9523,-3.9255,-3.9082,-3.8548,-3.7997,-3.7763,-3.7513,-3.7167,-3.6805,-3.6821,-3.6594,-3.6168,-3.5796,-3.5448,-3.5198,-3.5022,-3.4625,-3.4116,-3.4004,-3.4191,-3.401,-3.3623,-3.3638,-3.0018,-3.068,-3.0154,-3.0222,-3.078,-3.086,-3.0855,-3.0917,-3.1399,-3.1887,-3.2182,-3.3122,-3.2956,-3.2486,-3.3764,-3.4353,-3.3984,-3.4318,-3.4867,-3.5163,-3.5285,-3.5264,-3.5198,-3.511,-3.5056,-3.5001,-3.4908,-3.473,-3.4495,-3.4353,-3.4408,-3.4917,-3.5857,-3.6474,-3.733,-3.7751,-3.791,-3.7517,-3.7307,-3.6718,-3.6397,-3.5577,-3.5224,-3.5722,-3.5172,-3.535,-3.6147,-3.6251,-3.639,-3.6738,-3.6763,-3.6566,-3.6487,-3.6343,-3.6088,-3.5932,-3.5861,-3.5932,-3.5958,-3.6088,-3.6148,-3.6036,-3.5993,-3.6495,-3.7246,-3.7843,-3.8201,-3.8325,-3.9302,-3.9966,-3.9321,-3.978,-4.0204,-4.0238,-4.0238,-4.0288,-4.0288,-4.0271,-4.0271,-4.032,-4.037,-4.0387,-4.0436,-4.0436,-4.0485,-4.0502,-4.0285,-4.0116,-4.0017,-3.9868,-3.9834,-3.9714,-3.9435,-3.9131,-3.8788,-3.846,-3.8163,-3.8202,-3.7968,-3.7799,-3.7566,-3.7533,-3.7268,-3.6783,-3.6492,-3.6319,-3.6178,-3.6037,-3.5537,-3.492,-3.4839,-3.4632,-3.4337,-3.3998,-3.3954,-2.9959,-3.0758,-3.068,-3.0671,-3.0799,-3.088,-3.0874,-3.0818,-3.0903,-3.1324,-3.2138,-3.3574,-3.3848,-3.3453,-3.4574,-3.4722,-3.4313,-3.4842,-3.529,-3.5152,-3.5281,-3.5245,-3.5141,-3.5034,-3.4962,-3.4964,-3.4908,-3.4769,-3.4558,-3.4381,-3.4235,-3.4218,-3.4903,-3.5842,-3.7035,-3.7641,-3.7502,-3.7032,-3.7363,-3.7113,-3.6702,-3.6203,-3.6381,-3.6612,-3.6131,-3.6128,-3.6602,-3.64,-3.652,-3.6833,-3.6287,-3.6139,-3.6416,-3.6199,-3.5958,-3.5817,-3.5773,-3.5773,-3.58,-3.5915,-3.5932,-3.5861,-3.5861,-3.6089,-3.6265,-3.7007,-3.7942,-3.8099,-3.9103,-3.9664,-3.9613,-3.9664,-3.9985,-4.0121,-4.0138,-4.0138,-4.0171,-4.0171,-4.0221,-4.0221,-4.0188,-4.0138,-4.0238,-4.0305,-4.0305,-4.0288,-4.0188,-4.0121,-4.0138,-4.002,-3.9918,-3.9592,-3.9329,-3.9023,-3.8711,-3.856,-3.8399,-3.8472,-3.839,-3.81,-3.7898,-3.7769,-3.7526,-3.7252,-3.7164,-3.7077,-3.7014,-3.6966,-3.6462,-3.5975,-3.5288,-3.4934,-3.4666,-3.4414,-3.4312,-2.8989,-3.0693,-2.9592,-2.9796,-3.078,-3.088,-3.0855,-3.0818,-3.081,-3.0984,-3.1548,-3.2984,-3.3245,-3.3193,-3.4049,-3.4556,-3.3897,-3.4331,-3.4658,-3.4606,-3.4921,-3.4751,-3.4611,-3.4693,-3.4734,-3.4452,-3.4472,-3.4708,-3.445,-3.4306,-3.4035,-3.3945,-3.4451,-3.5532,-3.6761,-3.7553,-3.7701,-3.7557,-3.7596,-3.7452,-3.7167,-3.6774,-3.672,-3.7303,-3.6573,-3.6496,-3.6999,-3.6562,-3.6646,-3.6816,-3.6139,-3.6067,-3.6241,-3.6045,-3.58,-3.5684,-3.5639,-3.5566,-3.5503,-3.5594,-3.5667,-3.5728,-3.5745,-3.5842,-3.6354,-3.6937,-3.7483,-3.8176,-3.9191,-3.9749,-3.9952,-3.9952,-4.0121,-4.0138,-4.0138,-4.0138,-4.0121,-4.0121,-4.0121,-4.0121,-4.0138,-4.0138,-4.0188,-4.0188,-4.0188,-4.0188,-4.0138,-4.0121,-4.0087,-4.002,-3.9901,-3.9523,-3.9206,-3.8914,-3.8655,-3.8504,-3.8408,-3.8432,-3.8375,-3.8214,-3.8084,-3.7955,-3.7923,-3.7762,-3.777,-3.7778,-3.7641,-3.7552,-3.7476,-3.7054,-3.6316,-3.5786,-3.5669,-3.5124,-3.4488,-2.831,-3.017,-2.9205,-2.9564,-3.0799,-3.0919,-3.0877,-3.0862,-3.1094,-3.11,-3.1207,-3.2525,-3.3031,-3.3011,-3.3723,-3.4342,-3.3616,-3.3989,-3.3894,-3.3843,-3.4121,-3.3875,-3.3794,-3.4179,-3.4203,-3.3998,-3.428,-3.4626,-3.445,-3.4204,-3.3923,-3.3834,-3.4268,-3.524,-3.6335,-3.6996,-3.7379,-3.7326,-3.7381,-3.7595,-3.738,-3.7147,-3.6949,-3.7106,-3.687,-3.6612,-3.6808,-3.6829,-3.6667,-3.6609,-3.6343,-3.6062,-3.6045,-3.5888,-3.5639,-3.5594,-3.5549,-3.5475,-3.5429,-3.5503,-3.5594,-3.5656,-3.5532,-3.5723,-3.6232,-3.673,-3.7408,-3.825,-3.9395,-3.9817,-3.9969,-3.9986,-4.007,-4.007,-4.0087,-4.0087,-4.0037,-4.002,-4.0037,-4.0054,-4.007,-4.007,-4.0087,-4.0138,-4.0138,-4.0138,-4.0087,-4.0087,-4.0087,-3.9969,-3.9765,-3.9335,-3.9065,-3.8772,-3.8583,-3.8448,-3.8391,-3.8391,-3.8294,-3.818,-3.8148,-3.8019,-3.8116,-3.8164,-3.8051,-3.7987,-3.8026,-3.8001,-3.7822,-3.7626,-3.7213,-3.6832,-3.6668,-3.6099,-3.5424,-2.7924,-2.9361,-2.9536,-2.9996,-3.0747,-3.085,-3.0857,-3.0862,-3.1631,-3.146,-3.0839,-3.2474,-3.2958,-3.3231,-3.3999,-3.4138,-3.3964,-3.3983,-3.3506,-3.316,-3.3283,-3.2905,-3.2994,-3.3437,-3.3652,-3.3866,-3.4127,-3.4358,-3.4394,-3.4092,-3.3744,-3.3694,-3.4057,-3.4816,-3.5584,-3.6224,-3.6714,-3.7094,-3.7399,-3.7595,-3.7505,-3.7376,-3.7248,-3.7226,-3.7041,-3.6847,-3.6806,-3.6684,-3.6544,-3.636,-3.6105,-3.6019,-3.5932,-3.5756,-3.5684,-3.5594,-3.5532,-3.5458,-3.5429,-3.5412,-3.5458,-3.5475,-3.5337,-3.5417,-3.5635,-3.6219,-3.6776,-3.7666,-3.8706,-3.9312,-3.98,-3.9919,-4.007,-4.007,-4.0087,-4.0037,-3.9969,-3.9952,-3.9986,-4.0003,-4.0003,-4.002,-4.002,-4.002,-3.9902,-4.0037,-3.9986,-3.9918,-3.9867,-3.9816,-3.9577,-3.9063,-3.8826,-3.8629,-3.8495,-3.8278,-3.8391,-3.8391,-3.8237,-3.8123,-3.8107,-3.8049,-3.8049,-3.8049,-3.8164,-3.8107,-3.8049,-3.7992,-3.7918,-3.7764,-3.7584,-3.7552,-3.7234,-3.7356,-3.6938,-2.7075,-2.8603,-2.8647,-2.9179,-2.9996,-3.0599,-3.0813,-3.0857,-3.11,-3.0934,-3.0761,-3.1857,-3.2353,-3.2369,-3.3102,-3.3025,-3.2963,-3.2832,-3.2564,-3.2522,-3.2851,-3.2527,-3.2594,-3.2961,-3.3159,-3.3185,-3.3391,-3.3955,-3.4209,-3.3928,-3.3661,-3.3582,-3.3749,-3.4207,-3.4799,-3.5454,-3.6321,-3.7076,-3.7453,-3.7577,-3.754,-3.7429,-3.7372,-3.7259,-3.7126,-3.6948,-3.6725,-3.6502,-3.6402,-3.6276,-3.5915,-3.5739,-3.5861,-3.5667,-3.5577,-3.5383,-3.5291,-3.5198,-3.5105,-3.5088,-3.5182,-3.5245,-3.5105,-3.5088,-3.5282,-3.5579,-3.6031,-3.695,-3.7869,-3.8522,-3.9143,-3.9413,-3.9581,-3.9648,-3.9665,-3.9665,-3.9564,-3.9529,-3.9496,-3.9261,-3.9328,-3.9514,-3.9581,-3.9732,-3.9631,-3.9817,-3.9867,-3.9782,-3.9679,-3.9558,-3.9385,-3.8867,-3.8668,-3.8574,-3.8228,-3.8051,-3.8246,-3.8335,-3.818,-3.8065,-3.7992,-3.7934,-3.7876,-3.7934,-3.7992,-3.7934,-3.7817,-3.7876,-3.7934,-3.795,-3.7844,-3.7876,-3.7892,-3.7876,-3.7764,-2.6515,-2.771,-2.7793,-2.8457,-2.9581,-3.0448,-3.0789,-3.0789,-3.0764,-3.0728,-3.0769,-3.1241,-3.1631,-3.1986,-3.2397,-3.2491,-3.2374,-3.2321,-3.2223,-3.2608,-3.2783,-3.2111,-3.2064,-3.2488,-3.2515,-3.2485,-3.273,-3.3446,-3.378,-3.3795,-3.3549,-3.3433,-3.3393,-3.3774,-3.4389,-3.5187,-3.6088,-3.6844,-3.7381,-3.7559,-3.754,-3.7429,-3.7372,-3.7223,-3.7091,-3.6851,-3.655,-3.6326,-3.6216,-3.6045,-3.5667,-3.5622,-3.5684,-3.5549,-3.5396,-3.5245,-3.5245,-3.5135,-3.5088,-3.5105,-3.5105,-3.5105,-3.5011,-3.4994,-3.4994,-3.5174,-3.5623,-3.6255,-3.7019,-3.7686,-3.8288,-3.874,-3.8942,-3.9092,-3.9142,-3.9143,-3.9075,-3.8973,-3.8722,-3.8438,-3.8489,-3.8707,-3.8925,-3.9143,-3.9193,-3.9009,-3.916,-3.9461,-3.9339,-3.9179,-3.909,-3.8755,-3.8586,-3.8463,-3.8124,-3.7906,-3.8213,-3.8335,-3.8107,-3.7992,-3.7934,-3.7876,-3.7817,-3.7817,-3.7876,-3.7817,-3.7775,-3.7892,-3.8024,-3.7982,-3.8014,-3.8129,-3.8113,-3.8065,-3.7889,-2.6166,-2.6919,-2.6978,-2.8008,-2.9506,-3.0229,-3.0598,-3.0759,-3.0611,-3.0633,-3.0672,-3.0715,-3.1122,-3.1525,-3.167,-3.1942,-3.1898,-3.184,-3.2015,-3.2694,-3.2523,-3.2003,-3.1936,-3.2093,-3.2252,-3.1995,-3.2202,-3.3044,-3.3258,-3.343,-3.352,-3.3393,-3.3382,-3.3689,-3.4321,-3.4846,-3.5588,-3.622,-3.6934,-3.7362,-3.7468,-3.7392,-3.7223,-3.7041,-3.6882,-3.6696,-3.6298,-3.6088,-3.6028,-3.5756,-3.5594,-3.5532,-3.5458,-3.5337,-3.5182,-3.5135,-3.5135,-3.5088,-3.5041,-3.5105,-3.5088,-3.5088,-3.5105,-3.4994,-3.4947,-3.4947,-3.5328,-3.566,-3.6388,-3.6837,-3.7386,-3.797,-3.8305,-3.8455,-3.8555,-3.8454,-3.8302,-3.8201,-3.8035,-3.7786,-3.7719,-3.7937,-3.8104,-3.8288,-3.8388,-3.8187,-3.8304,-3.8739,-3.885,-3.8669,-3.8459,-3.8379,-3.8525,-3.8309,-3.7897,-3.7809,-3.823,-3.8278,-3.8049,-3.7934,-3.7934,-3.7817,-3.7743,-3.7801,-3.7934,-3.7817,-3.7833,-3.8019,-3.8158,-3.8046,-3.8136,-3.8382,-3.835,-3.8203,-3.7898,-2.5815,-2.6078,-2.6711,-2.7968,-2.9338,-2.8997,-2.9608,-3.0626,-2.9991,-3.014,-3.0607,-3.0661,-3.069,-3.0888,-3.0981,-3.1141,-3.1066,-3.1541,-3.1584,-3.2203,-3.2403,-3.2219,-3.2188,-3.2117,-3.2122,-3.2184,-3.2388,-3.2724,-3.3375,-3.357,-3.352,-3.3393,-3.337,-3.364,-3.411,-3.4562,-3.4947,-3.5525,-3.6238,-3.6862,-3.7108,-3.714,-3.6988,-3.651,-3.6168,-3.6011,-3.5677,-3.5538,-3.5593,-3.552,-3.5412,-3.5383,-3.5354,-3.5135,-3.5041,-3.5041,-3.5041,-3.4994,-3.4994,-3.5041,-3.4994,-3.4994,-3.4947,-3.4947,-3.4899,-3.4899,-3.5032,-3.533,-3.566,-3.6105,-3.6537,-3.7103,-3.7586,-3.7786,-3.7969,-3.7784,-3.7549,-3.7451,-3.7368,-3.7236,-3.712,-3.7186,-3.7303,-3.7419,-3.7502,-3.7602,-3.7685,-3.792,-3.8063,-3.8035,-3.7544,-3.7563,-3.8267,-3.8116,-3.7711,-3.7776,-3.8189,-3.8221,-3.8049,-3.7992,-3.7876,-3.7817,-3.7759,-3.7876,-3.7992,-3.7833,-3.7875,-3.8316,-3.8316,-3.8089,-3.8339,-3.8659,-3.836,-3.8147,-3.779,-2.5347,-2.5808,-2.664,-2.7531,-2.834,-2.8627,-2.9316,-2.9998,-3.0004,-3.0243,-3.0651,-3.0626,-3.0557,-3.0608,-3.0764,-3.0803,-3.0822,-3.1217,-3.173,-3.2232,-3.226,-3.2112,-3.206,-3.1914,-3.1313,-3.1336,-3.1808,-3.2342,-3.3505,-3.3577,-3.3452,-3.3382,-3.3328,-3.3448,-3.3809,-3.3996,-3.4306,-3.4722,-3.5454,-3.5918,-3.6429,-3.662,-3.6612,-3.6094,-3.5665,-3.5373,-3.513,-3.5023,-3.5178,-3.5311,-3.5291,-3.5245,-3.5198,-3.5058,-3.4947,-3.4947,-3.4947,-3.4899,-3.4899,-3.4899,-3.4899,-3.4899,-3.4899,-3.4899,-3.4899,-3.4899,-3.4899,-3.5148,-3.5181,-3.5575,-3.5775,-3.6256,-3.6338,-3.6452,-3.6801,-3.6868,-3.7017,-3.7184,-3.7186,-3.7186,-3.6987,-3.6652,-3.6785,-3.6818,-3.6901,-3.6936,-3.7052,-3.7153,-3.7261,-3.7285,-3.6865,-3.675,-3.7469,-3.7825,-3.7517,-3.7704,-3.8254,-3.8221,-3.8049,-3.7934,-3.7876,-3.7775,-3.7775,-3.7876,-3.7876,-3.7658,-3.7836,-3.8277,-3.8241,-3.7934,-3.8424,-3.901,-3.8539,-3.8125,-3.7849,-2.4922,-2.5772,-2.6502,-2.6915,-2.715,-2.834,-2.9121,-2.9486,-3.0042,-3.0467,-3.0673,-3.0629,-3.0558,-3.0732,-3.1049,-3.1239,-3.1336,-3.1306,-3.1794,-3.1955,-3.183,-3.1948,-3.1724,-3.1255,-3.0977,-3.0939,-3.1277,-3.2416,-3.3661,-3.353,-3.3393,-3.3322,-3.3232,-3.317,-3.3275,-3.352,-3.3952,-3.4049,-3.4409,-3.4677,-3.5329,-3.5942,-3.5756,-3.5457,-3.5174,-3.485,-3.4483,-3.4496,-3.4656,-3.4935,-3.5052,-3.5105,-3.5041,-3.4947,-3.4947,-3.4947,-3.4947,-3.4899,-3.4899,-3.4899,-3.4899,-3.4899,-3.4899,-3.4899,-3.4899,-3.4851,-3.4851,-3.4916,-3.4949,-3.5032,-3.523,-3.5361,-3.5376,-3.5656,-3.6006,-3.642,-3.6752,-3.7069,-3.722,-3.7284,-3.702,-3.6652,-3.6486,-3.6534,-3.6419,-3.6454,-3.6406,-3.6486,-3.6528,-3.6372,-3.6137,-3.6238,-3.669,-3.6899,-3.7138,-3.7688,-3.8214,-3.8164,-3.7992,-3.7934,-3.7876,-3.7817,-3.7817,-3.7817,-3.7775,-3.7539,-3.7701,-3.8049,-3.7947,-3.771,-3.8578,-3.9116,-3.8348,-3.7955,-3.7891,-2.4907,-2.5719,-2.5898,-2.6317,-2.6825,-2.6582,-2.7482,-2.9123,-2.8844,-2.9295,-3.0377,-3.0606,-3.053,-3.0428,-3.0448,-3.058,-3.071,-3.1055,-3.1328,-3.1431,-3.1722,-3.1972,-3.1729,-3.094,-3.128,-3.1341,-3.1427,-3.2286,-3.3003,-3.3201,-3.3316,-3.322,-3.3037,-3.2993,-3.3015,-3.3219,-3.3179,-3.3326,-3.351,-3.3847,-3.3806,-3.4132,-3.3973,-3.3716,-3.3478,-3.3043,-3.2873,-3.3451,-3.3872,-3.4305,-3.4708,-3.4911,-3.4947,-3.4899,-3.4899,-3.4851,-3.4899,-3.4899,-3.4851,-3.4851,-3.4851,-3.4835,-3.4787,-3.4756,-3.4739,-3.4675,-3.4739,-3.4787,-3.482,-3.4916,-3.5048,-3.5048,-3.5129,-3.5743,-3.6224,-3.6671,-3.707,-3.7469,-3.7733,-3.7765,-3.7716,-3.7352,-3.7037,-3.6871,-3.6522,-3.6406,-3.5927,-3.5974,-3.5714,-3.5545,-3.5412,-3.569,-3.5925,-3.6532,-3.6957,-3.7576,-3.8003,-3.7985,-3.7934,-3.7876,-3.7876,-3.7876,-3.7876,-3.7759,-3.7567,-3.7329,-3.7597,-3.7881,-3.7694,-3.7707,-3.8792,-3.9185,-3.8296,-3.7864,-3.788]}]]